[[{"header":{"parameterUnit":"m.s-1","parameterCategory":1,"la1":31.0,"la2":29.5877,"lo1":-88.7671,"lo2":-86.6584,"dy":0.0162,"dx":0.0185,"nx":115,"ny":88,"refTime":"2023-10-26T12:00:00:Z","depth":0,"parameterNumber":2,"parameterNumberName":"U-component_of_WINDS"},"data":[0.0,0.0,0.0,0.0,0.0,0.0,0.0,0.0,0.0,0.0,0.0,0.0,0.0,0.0,0.0,0.0,0.0,0.0,0.0,0.0,0.0,0.0,0.0,0.0,0.0,0.0,0.0,0.0,0.0,0.0,0.0,0.0,0.0,0.0,0.0,0.0,0.0,0.0,0.0,0.0,0.0,0.0,0.0,0.0,0.0,0.0,0.0,0.0,0.0,0.0,0.0,0.0,0.0,0.0,0.0,0.0,0.0,0.0,0.0,0.0,0.0,0.0,0.0,0.0,0.0,0.0,0.0,0.0,0.0,0.0,0.0,0.0,0.0,0.0,0.0,0.0,0.0,0.0,0.0,0.0,0.0,0.0,0.0,0.0,0.0,0.0,0.0,0.0,0.0,0.0,0.0,0.0,0.0,0.0,0.0,0.0,0.0,0.0,0.0,0.0,0.0,0.0,0.0,0.0,0.0,0.0,0.0,0.0,0.0,0.0,0.0,0.0,0.0,0.0,0.0,0.0,0.0,0.0,0.0,0.0,0.0,0.0,0.0,0.0,0.0,0.0,0.0,0.0,0.0,0.0,0.0,0.0,0.0,0.0,0.0,0.0,0.0,0.0,0.0,0.0,0.0,0.0,0.0,0.0,0.0,0.0,0.0,0.0,0.0,0.0,0.0,0.0,0.0,0.0,0.0,0.0,0.0,0.0,0.0,0.0,0.0,0.0,0.0,0.0,0.0,0.0,0.0,0.0,0.0,0.0,0.0,0.0,0.0,0.0,0.0,0.0,0.0,0.0,0.0,0.0,0.0,0.0,0.0,0.0,0.0,0.0,0.0,0.0,0.0,0.0,0.0,0.0,0.0,0.0,0.0,0.0,0.0,0.0,0.0,0.0,0.0,0.0,0.0,0.0,0.0,0.0,0.0,0.0,0.0,0.0,0.0,0.0,0.0,0.0,0.0,0.0,0.0,0.0,0.0,0.0,0.0,0.0,0.0,0.0,0.0,0.0,0.0,0.0,0.0,0.0,0.0,0.0,0.0,0.0,0.0,0.0,0.0,0.0,0.0,0.0,0.0,0.0,0.0,0.0,0.0,0.0,0.0,0.0,0.0,0.0,0.0,0.0,0.0,0.0,0.0,0.0,0.0,0.0,0.0,0.0,0.0,0.0,0.0,0.0,0.0,0.0,0.0,0.0,0.0,0.0,0.0,0.0,0.0,0.0,0.0,0.0,0.0,0.0,0.0,0.0,0.0,0.0,0.0,0.0,0.0,0.0,0.0,0.0,0.0,0.0,0.0,0.0,0.0,0.0,0.0,0.0,0.0,0.0,0.0,0.0,0.0,0.0,0.0,0.0,0.0,0.0,0.0,0.0,0.0,0.0,0.0,0.0,0.0,0.0,0.0,0.0,0.0,0.0,0.0,0.0,0.0,0.0,0.0,0.0,0.0,0.0,0.0,0.0,0.0,0.0,0.0,0.0,0.0,0.0,0.0,0.0,0.0,0.0,0.0,0.0,0.0,0.0,0.0,0.0,0.0,0.0,0.0,0.0,0.0,0.0,0.0,0.0,0.0,0.0,0.0,0.0,0.0,0.0,0.0,0.0,0.0,0.0,0.0,0.0,0.0,0.0,0.0,0.0,0.0,0.0,0.0,0.0,0.0,0.0,0.0,0.0,0.0,0.0,0.0,0.0,0.0,0.0,0.0,0.0,0.0,0.0,0.0,0.0,0.0,0.0,0.0,0.0,0.0,0.0,0.0,0.0,0.0,0.0,0.0,0.0,0.0,0.0,0.0,0.0,0.0,0.0,0.0,0.0,0.0,0.0,0.0,0.0,0.0,0.0,0.0,0.0,0.0,0.0,0.0,0.0,0.0,0.0,0.0,0.0,0.0,0.0,0.0,0.0,0.0,0.0,0.0,0.0,0.0,0.0,0.0,0.0,0.0,0.0,0.0,0.0,0.0,0.0,0.0,0.0,0.0,0.0,0.0,0.0,0.0,0.0,0.0,0.0,0.0,0.0,0.0,0.0,0.0,0.0,0.0,0.0,0.0,0.0,0.0,0.0,0.0,0.0,0.0,0.0,0.0,0.0,0.0,0.0,0.0,0.0,0.0,0.0,0.0,0.0,0.0,0.0,0.0,0.0,0.0,0.0,0.0,0.0,0.0,0.0,0.0,0.0,0.0,0.0,0.0,0.0,0.0,0.0,0.0,0.0,0.0,0.0,0.0,0.0,0.0,0.0,0.0,0.0,0.0,0.0,0.0,0.0,0.0,0.0,0.0,0.0,0.0,0.0,0.0,0.0,0.0,0.0,0.0,0.0,0.0,0.0,0.0,0.0,0.0,0.0,0.0,0.0,0.0,0.0,0.0,0.0,0.0,0.0,0.0,0.0,0.0,0.0,0.0,0.0,0.0,0.0,0.0,0.0,0.0,0.0,0.0,0.0,0.0,0.0,0.0,0.0,0.0,0.0,0.0,0.0,0.0,0.0,0.0,0.0,0.0,0.0,0.0,0.0,0.0,0.0,0.0,0.0,0.0,0.0,0.0,0.0,0.0,0.0,0.0,0.0,0.0,0.0,0.0,0.0,0.0,0.0,0.0,0.0,0.0,0.0,0.0,0.0,0.0,0.0,0.0,0.0,0.0,0.0,0.0,0.0,0.0,0.0,0.0,0.0,0.0,0.0,0.0,0.0,0.0,0.0,0.0,0.0,0.0,0.0,0.0,0.0,0.0,0.0,0.0,0.0,0.0,0.0,0.0,0.0,0.0,0.0,0.0,0.0,0.0,0.0,0.0,0.0,0.0,0.0,0.0,0.0,0.0,0.0,0.0,0.0,0.0,0.0,0.0,0.0,0.0,0.0,0.0,0.0,0.0,0.0,0.0,0.0,0.0,0.0,0.0,0.0,0.0,0.0,0.0,0.0,0.0,0.0,0.0,0.0,0.0,0.0,0.0,0.0,0.0,0.0,0.0,0.0,0.0,0.0,0.0,0.0,0.0,0.0,0.0,0.0,0.0,0.0,0.0,0.0,0.0,0.0,0.0,0.0,0.0,0.0,0.0,0.0,0.0,0.0,0.0,0.0,0.0,0.0,0.0,0.0,0.0,0.0,0.0,0.0,0.0,0.0,0.0,0.0,0.0,0.0,0.0,0.0,0.0,0.0,0.0,0.0,0.0,0.0,0.0,0.0,0.0,0.0,0.0,0.0,0.0,0.0,0.0,0.0,0.0,0.0,0.0,0.0,0.0,0.0,0.0,0.0,0.0,0.0,0.0,0.0,0.0,0.0,0.0,0.0,0.0,0.0,0.0,0.0,0.0,0.0,0.0,0.0,0.0,0.0,0.0,0.0,0.0,0.0,0.0,0.0,0.0,0.0,0.0,0.0,0.0,0.0,0.0,0.0,0.0,0.0,0.0,0.0,0.0,0.0,0.0,0.0,0.0,0.0,0.0,0.0,0.0,0.0,0.0,0.0,0.0,0.0,0.0,0.0,0.0,0.0,0.0,0.0,0.0,0.0,0.0,0.0,0.0,0.0,0.0,0.0,0.0,0.0,0.0,0.0,0.0,0.0,0.0,0.0,0.0,0.0,0.0,0.0,0.0,0.0,0.0,0.0,0.0,0.0,0.0,0.0,0.0,0.0,0.0,0.0,0.0,0.0,0.0,0.0,0.0,0.0,0.0,0.0,0.0,0.0,0.0,0.0,0.0,0.0,0.0,0.0,0.0,0.0,0.0,0.0,0.0,0.0,0.0,0.0,0.0,0.0,0.0,0.0,0.0,0.0,0.0,0.0,0.0,0.0,0.0,0.0,0.0,0.0,0.0,0.0,0.0,0.0,0.0,0.0,0.0,0.0,0.0,0.0,0.0,0.0,0.0,0.0,0.0,0.0,0.0,0.0,0.0,0.0,0.0,0.0,0.0,0.0,0.0,0.0,0.0,0.0,0.0,0.0,0.0,0.0,0.0,0.0,0.0,0.0,0.0,0.0,0.0,0.0,0.0,0.0,0.0,0.0,0.0,0.0,0.0,0.0,0.0,0.0,0.0,0.0,0.0,0.0,0.0,0.0,0.0,0.0,0.0,0.0,0.0,0.0,0.0,0.0,0.0,0.0,0.0,0.0,0.0,0.0,0.0,0.0,0.0,0.0,0.0,0.0,0.0,0.0,0.0,0.0,0.0,0.0,0.0,0.0,0.0,0.0,0.0,0.0,0.0,0.0,0.0,0.0,0.0,0.0,0.0,0.0,0.0,0.0,0.0,0.0,0.0,0.0,0.0,0.0,0.0,0.0,-2.4893,0.0,0.0,0.0,0.0,0.0,0.0,0.0,0.0,0.0,0.0,0.0,0.0,0.0,0.0,0.0,0.0,0.0,0.0,0.0,0.0,0.0,0.0,0.0,0.0,0.0,0.0,0.0,0.0,0.0,0.0,0.0,0.0,0.0,0.0,0.0,0.0,0.0,0.0,0.0,0.0,0.0,0.0,0.0,0.0,0.0,0.0,0.0,0.0,0.0,0.0,0.0,0.0,0.0,0.0,0.0,0.0,0.0,0.0,0.0,0.0,0.0,0.0,0.0,0.0,0.0,0.0,0.0,0.0,0.0,0.0,0.0,0.0,0.0,0.0,0.0,0.0,0.0,0.0,0.0,0.0,0.0,0.0,0.0,0.0,0.0,0.0,0.0,0.0,0.0,0.0,0.0,0.0,0.0,0.0,0.0,0.0,0.0,0.0,0.0,0.0,0.0,0.0,0.0,0.0,0.0,0.0,0.0,0.0,0.0,0.0,-2.9538,-2.8052,-2.9119,-2.8384,-2.5588,0.0,0.0,0.0,0.0,0.0,0.0,0.0,0.0,0.0,0.0,0.0,0.0,0.0,0.0,0.0,0.0,0.0,0.0,0.0,0.0,0.0,0.0,0.0,0.0,0.0,0.0,0.0,0.0,0.0,0.0,0.0,0.0,0.0,0.0,0.0,0.0,0.0,0.0,0.0,0.0,0.0,0.0,0.0,0.0,0.0,0.0,0.0,0.0,0.0,0.0,0.0,0.0,0.0,0.0,0.0,0.0,0.0,0.0,0.0,0.0,0.0,0.0,0.0,0.0,0.0,0.0,0.0,0.0,0.0,0.0,0.0,0.0,0.0,0.0,0.0,0.0,0.0,0.0,0.0,0.0,0.0,0.0,0.0,0.0,0.0,0.0,0.0,0.0,0.0,0.0,0.0,0.0,0.0,0.0,0.0,0.0,0.0,0.0,0.0,0.0,0.0,0.0,0.0,0.0,0.0,0.0,0.0,0.0,0.0,0.0,0.0,0.0,-3.1839,-3.0697,-2.714,0.0,0.0,0.0,0.0,0.0,0.0,0.0,0.0,0.0,0.0,0.0,0.0,0.0,0.0,0.0,0.0,0.0,0.0,0.0,0.0,0.0,0.0,0.0,0.0,0.0,0.0,0.0,0.0,0.0,0.0,0.0,0.0,0.0,0.0,0.0,0.0,0.0,0.0,0.0,0.0,0.0,0.0,0.0,0.0,0.0,0.0,0.0,0.0,0.0,0.0,0.0,0.0,0.0,0.0,0.0,0.0,0.0,0.0,0.0,0.0,0.0,0.0,0.0,0.0,0.0,0.0,0.0,0.0,0.0,0.0,0.0,0.0,0.0,0.0,0.0,0.0,0.0,0.0,0.0,0.0,0.0,0.0,0.0,0.0,0.0,0.0,0.0,0.0,0.0,0.0,0.0,0.0,0.0,0.0,0.0,0.0,0.0,0.0,0.0,0.0,0.0,0.0,0.0,0.0,0.0,0.0,0.0,0.0,0.0,0.0,-3.2655,-3.5113,-3.4961,0.0,-3.0643,0.0,0.0,0.0,0.0,0.0,0.0,0.0,0.0,0.0,0.0,0.0,0.0,0.0,0.0,0.0,0.0,0.0,0.0,0.0,0.0,0.0,0.0,0.0,0.0,0.0,0.0,0.0,0.0,0.0,0.0,0.0,0.0,0.0,0.0,0.0,0.0,0.0,0.0,0.0,0.0,0.0,0.0,0.0,0.0,0.0,0.0,0.0,0.0,0.0,0.0,0.0,0.0,0.0,0.0,0.0,0.0,0.0,0.0,0.0,0.0,0.0,0.0,0.0,0.0,0.0,0.0,0.0,0.0,0.0,0.0,0.0,0.0,0.0,0.0,0.0,0.0,0.0,0.0,0.0,0.0,0.0,0.0,0.0,0.0,0.0,0.0,0.0,0.0,0.0,0.0,0.0,0.0,0.0,0.0,0.0,0.0,0.0,0.0,0.0,0.0,0.0,0.0,0.0,0.0,0.0,0.0,0.0,0.0,0.0,0.0,-3.4827,-3.6806,-3.5472,-3.3658,0.0,0.0,0.0,0.0,0.0,0.0,0.0,0.0,0.0,0.0,0.0,0.0,0.0,0.0,0.0,0.0,0.0,0.0,0.0,0.0,0.0,0.0,0.0,0.0,0.0,0.0,0.0,0.0,0.0,0.0,0.0,0.0,0.0,0.0,0.0,0.0,0.0,0.0,0.0,0.0,0.0,0.0,0.0,0.0,0.0,0.0,0.0,0.0,0.0,0.0,0.0,0.0,0.0,0.0,0.0,0.0,0.0,0.0,0.0,0.0,0.0,0.0,0.0,0.0,0.0,0.0,0.0,0.0,0.0,0.0,0.0,0.0,0.0,0.0,0.0,0.0,0.0,0.0,0.0,0.0,0.0,0.0,0.0,0.0,0.0,0.0,0.0,0.0,0.0,0.0,0.0,0.0,0.0,0.0,0.0,0.0,0.0,0.0,0.0,0.0,0.0,0.0,0.0,0.0,0.0,0.0,0.0,0.0,0.0,0.0,-3.5696,-3.7191,-3.8935,-3.6977,-3.4841,-3.2819,0.0,0.0,0.0,0.0,0.0,0.0,0.0,0.0,0.0,0.0,0.0,0.0,0.0,0.0,0.0,0.0,0.0,0.0,0.0,0.0,0.0,0.0,0.0,0.0,0.0,0.0,0.0,0.0,0.0,0.0,0.0,0.0,0.0,0.0,0.0,0.0,0.0,0.0,0.0,0.0,0.0,0.0,0.0,0.0,0.0,0.0,0.0,0.0,0.0,0.0,0.0,0.0,0.0,0.0,0.0,0.0,0.0,0.0,0.0,0.0,0.0,0.0,0.0,0.0,0.0,0.0,0.0,0.0,0.0,0.0,0.0,0.0,0.0,0.0,0.0,0.0,0.0,0.0,0.0,0.0,0.0,0.0,0.0,0.0,0.0,0.0,0.0,0.0,0.0,0.0,0.0,0.0,0.0,0.0,0.0,0.0,0.0,0.0,0.0,0.0,0.0,0.0,0.0,0.0,0.0,0.0,0.0,0.0,-3.9774,-3.8816,-3.9729,-4.284,-4.0591,-3.8127,0.0,0.0,0.0,0.0,0.0,0.0,0.0,0.0,0.0,0.0,0.0,0.0,0.0,0.0,0.0,0.0,0.0,0.0,0.0,0.0,0.0,0.0,0.0,0.0,0.0,0.0,0.0,0.0,0.0,0.0,0.0,0.0,0.0,0.0,0.0,0.0,0.0,0.0,0.0,0.0,0.0,0.0,0.0,0.0,0.0,0.0,0.0,0.0,0.0,0.0,0.0,0.0,0.0,0.0,0.0,0.0,0.0,0.0,0.0,0.0,0.0,0.0,0.0,0.0,0.0,0.0,0.0,0.0,0.0,0.0,0.0,0.0,0.0,0.0,0.0,0.0,0.0,0.0,0.0,0.0,0.0,0.0,0.0,0.0,0.0,0.0,0.0,0.0,0.0,0.0,0.0,0.0,0.0,0.0,0.0,0.0,0.0,0.0,0.0,0.0,0.0,0.0,0.0,0.0,0.0,0.0,0.0,0.0,0.0,-3.5996,-3.79,-4.0819,-4.4606,-4.047,-3.7821,0.0,0.0,0.0,0.0,0.0,0.0,0.0,0.0,0.0,0.0,0.0,0.0,0.0,0.0,0.0,0.0,0.0,0.0,0.0,0.0,0.0,0.0,0.0,0.0,0.0,0.0,0.0,0.0,0.0,0.0,0.0,0.0,0.0,0.0,0.0,0.0,0.0,0.0,0.0,0.0,0.0,0.0,0.0,0.0,0.0,0.0,0.0,0.0,0.0,0.0,0.0,0.0,0.0,0.0,0.0,0.0,0.0,0.0,0.0,0.0,0.0,0.0,0.0,0.0,0.0,0.0,0.0,0.0,0.0,0.0,0.0,0.0,0.0,0.0,0.0,0.0,0.0,0.0,0.0,0.0,0.0,0.0,0.0,0.0,0.0,0.0,0.0,0.0,0.0,0.0,0.0,0.0,0.0,0.0,0.0,0.0,0.0,0.0,0.0,0.0,0.0,0.0,0.0,0.0,0.0,0.0,0.0,0.0,0.0,-3.6403,0.0,-4.2728,-4.4724,-4.1054,-3.821,0.0,0.0,0.0,0.0,0.0,0.0,0.0,0.0,0.0,0.0,0.0,0.0,0.0,0.0,0.0,0.0,0.0,0.0,0.0,0.0,0.0,0.0,0.0,0.0,0.0,0.0,0.0,0.0,0.0,0.0,0.0,0.0,0.0,0.0,0.0,0.0,0.0,0.0,0.0,0.0,0.0,0.0,0.0,0.0,0.0,0.0,0.0,0.0,0.0,0.0,0.0,0.0,0.0,0.0,0.0,0.0,0.0,0.0,0.0,0.0,0.0,0.0,0.0,0.0,0.0,0.0,0.0,0.0,0.0,0.0,0.0,0.0,0.0,0.0,0.0,0.0,0.0,0.0,0.0,0.0,0.0,0.0,0.0,0.0,0.0,0.0,0.0,0.0,0.0,0.0,0.0,0.0,0.0,0.0,0.0,0.0,0.0,0.0,0.0,0.0,0.0,0.0,0.0,0.0,0.0,0.0,0.0,0.0,-3.5856,-4.1992,-4.4854,-4.5263,-4.3354,-4.2552,-3.9464,0.0,0.0,0.0,0.0,0.0,0.0,0.0,0.0,0.0,0.0,0.0,0.0,0.0,0.0,0.0,0.0,0.0,0.0,0.0,0.0,0.0,0.0,0.0,0.0,0.0,0.0,0.0,0.0,0.0,0.0,0.0,0.0,0.0,0.0,0.0,0.0,0.0,0.0,0.0,0.0,0.0,0.0,0.0,0.0,0.0,0.0,0.0,0.0,0.0,0.0,0.0,0.0,0.0,0.0,0.0,0.0,0.0,0.0,0.0,0.0,0.0,0.0,0.0,0.0,0.0,0.0,0.0,0.0,0.0,0.0,0.0,0.0,0.0,0.0,0.0,0.0,0.0,0.0,0.0,0.0,0.0,0.0,0.0,0.0,0.0,0.0,0.0,0.0,0.0,0.0,0.0,0.0,0.0,0.0,0.0,0.0,0.0,0.0,0.0,0.0,0.0,0.0,0.0,0.0,0.0,0.0,0.0,0.0,0.0,-3.9841,-4.2196,-4.4289,-4.5855,-4.1944,-3.9382,0.0,0.0,0.0,0.0,0.0,0.0,0.0,0.0,0.0,0.0,0.0,0.0,0.0,0.0,0.0,0.0,0.0,0.0,0.0,0.0,0.0,0.0,0.0,0.0,0.0,0.0,0.0,0.0,0.0,0.0,0.0,0.0,0.0,0.0,0.0,0.0,0.0,0.0,0.0,0.0,0.0,0.0,0.0,0.0,0.0,0.0,0.0,0.0,0.0,0.0,0.0,0.0,0.0,0.0,0.0,0.0,0.0,0.0,0.0,0.0,0.0,0.0,0.0,0.0,0.0,0.0,0.0,0.0,0.0,0.0,0.0,0.0,0.0,0.0,0.0,0.0,0.0,0.0,0.0,0.0,0.0,0.0,0.0,0.0,0.0,0.0,0.0,0.0,0.0,0.0,0.0,0.0,0.0,0.0,0.0,0.0,0.0,0.0,0.0,0.0,0.0,0.0,0.0,0.0,0.0,0.0,0.0,0.0,0.0,-4.1138,-4.3792,-4.5885,-4.724,-4.3102,-4.0312,-3.9131,0.0,0.0,0.0,0.0,0.0,0.0,0.0,0.0,0.0,0.0,0.0,0.0,0.0,0.0,0.0,0.0,0.0,0.0,0.0,0.0,0.0,0.0,0.0,0.0,0.0,0.0,0.0,0.0,0.0,0.0,0.0,0.0,0.0,0.0,0.0,0.0,0.0,0.0,0.0,0.0,0.0,0.0,0.0,0.0,0.0,0.0,0.0,0.0,0.0,0.0,0.0,0.0,0.0,0.0,0.0,0.0,0.0,0.0,0.0,0.0,0.0,0.0,0.0,0.0,0.0,0.0,0.0,0.0,0.0,0.0,0.0,0.0,0.0,0.0,0.0,0.0,0.0,0.0,0.0,0.0,0.0,0.0,0.0,0.0,0.0,0.0,0.0,0.0,0.0,0.0,0.0,0.0,0.0,0.0,0.0,0.0,0.0,0.0,0.0,0.0,0.0,0.0,0.0,0.0,0.0,0.0,0.0,0.0,-4.5079,-4.8817,-4.9622,-4.7421,-4.5657,-4.2131,0.0,0.0,0.0,0.0,0.0,0.0,0.0,0.0,0.0,0.0,0.0,0.0,0.0,0.0,0.0,0.0,0.0,0.0,0.0,0.0,0.0,0.0,0.0,0.0,0.0,0.0,0.0,0.0,0.0,0.0,0.0,0.0,0.0,0.0,0.0,0.0,0.0,0.0,0.0,0.0,0.0,0.0,0.0,0.0,0.0,0.0,0.0,0.0,0.0,0.0,0.0,0.0,0.0,0.0,0.0,0.0,0.0,0.0,0.0,0.0,0.0,0.0,0.0,0.0,0.0,0.0,0.0,0.0,0.0,0.0,0.0,0.0,0.0,0.0,0.0,0.0,0.0,0.0,0.0,0.0,0.0,0.0,0.0,0.0,0.0,0.0,0.0,0.0,0.0,0.0,0.0,0.0,0.0,0.0,0.0,0.0,0.0,0.0,0.0,0.0,0.0,0.0,0.0,0.0,0.0,0.0,0.0,0.0,0.0,-4.6758,-4.9999,-5.1163,-5.0087,-4.6667,-4.3184,0.0,0.0,0.0,0.0,0.0,0.0,0.0,0.0,0.0,0.0,0.0,0.0,0.0,0.0,0.0,0.0,0.0,0.0,0.0,0.0,0.0,0.0,0.0,0.0,0.0,0.0,0.0,0.0,0.0,0.0,0.0,0.0,0.0,0.0,0.0,0.0,0.0,0.0,0.0,0.0,0.0,0.0,0.0,0.0,0.0,0.0,0.0,0.0,0.0,0.0,0.0,0.0,0.0,0.0,0.0,0.0,0.0,0.0,0.0,0.0,0.0,0.0,0.0,0.0,0.0,0.0,0.0,0.0,0.0,0.0,0.0,0.0,0.0,0.0,0.0,0.0,0.0,0.0,0.0,0.0,0.0,0.0,0.0,0.0,0.0,0.0,0.0,0.0,0.0,0.0,0.0,0.0,0.0,0.0,0.0,0.0,0.0,0.0,0.0,0.0,0.0,0.0,0.0,0.0,0.0,0.0,0.0,0.0,-4.4149,-4.8108,-5.0793,-5.2038,-5.1757,-4.8603,-4.4997,0.0,0.0,0.0,0.0,0.0,0.0,0.0,0.0,0.0,0.0,0.0,0.0,0.0,0.0,0.0,0.0,0.0,0.0,0.0,0.0,0.0,0.0,0.0,0.0,0.0,0.0,0.0,0.0,0.0,0.0,0.0,0.0,0.0,0.0,0.0,0.0,0.0,0.0,0.0,0.0,0.0,0.0,0.0,0.0,0.0,0.0,0.0,0.0,0.0,0.0,0.0,0.0,0.0,0.0,0.0,0.0,0.0,0.0,0.0,0.0,0.0,0.0,0.0,0.0,0.0,0.0,0.0,0.0,0.0,0.0,0.0,0.0,0.0,0.0,0.0,0.0,0.0,0.0,0.0,0.0,0.0,0.0,0.0,0.0,0.0,0.0,0.0,0.0,0.0,0.0,0.0,0.0,0.0,0.0,0.0,0.0,0.0,0.0,0.0,0.0,0.0,0.0,0.0,0.0,0.0,0.0,0.0,0.0,-4.5479,-4.8902,-5.121,-5.2393,-5.2392,-5.0494,-4.6839,0.0,0.0,0.0,0.0,0.0,0.0,0.0,0.0,0.0,0.0,0.0,0.0,0.0,0.0,0.0,0.0,0.0,0.0,0.0,0.0,0.0,0.0,0.0,0.0,0.0,0.0,0.0,0.0,0.0,0.0,0.0,0.0,0.0,0.0,0.0,0.0,0.0,0.0,0.0,0.0,0.0,0.0,0.0,0.0,0.0,0.0,0.0,0.0,0.0,0.0,0.0,0.0,0.0,0.0,0.0,0.0,0.0,0.0,0.0,0.0,0.0,0.0,0.0,0.0,0.0,0.0,0.0,0.0,0.0,0.0,0.0,0.0,0.0,0.0,0.0,0.0,0.0,0.0,0.0,0.0,0.0,0.0,0.0,0.0,0.0,0.0,0.0,0.0,0.0,0.0,0.0,0.0,0.0,0.0,0.0,0.0,0.0,0.0,0.0,0.0,0.0,0.0,0.0,0.0,0.0,0.0,0.0,0.0,-4.5734,-4.8126,-5.0865,-5.2301,-5.2258,-4.9433,-4.5954,0.0,0.0,0.0,0.0,0.0,0.0,0.0,0.0,0.0,0.0,0.0,0.0,0.0,0.0,0.0,0.0,0.0,0.0,0.0,0.0,0.0,0.0,0.0,0.0,0.0,0.0,0.0,0.0,0.0,0.0,0.0,0.0,0.0,0.0,0.0,0.0,0.0,0.0,0.0,0.0,0.0,0.0,0.0,0.0,0.0,0.0,0.0,0.0,-3.7923,0.0,0.0,0.0,0.0,0.0,0.0,0.0,0.0,0.0,0.0,0.0,0.0,0.0,0.0,0.0,0.0,0.0,0.0,0.0,0.0,0.0,0.0,0.0,0.0,0.0,0.0,0.0,0.0,0.0,0.0,0.0,0.0,0.0,0.0,0.0,0.0,0.0,0.0,0.0,0.0,0.0,0.0,0.0,0.0,0.0,0.0,0.0,0.0,0.0,0.0,0.0,0.0,0.0,0.0,0.0,0.0,0.0,0.0,0.0,-4.6101,-4.7792,-4.9939,-5.0828,-5.0229,-4.796,-4.538,0.0,0.0,0.0,0.0,0.0,0.0,0.0,0.0,0.0,0.0,0.0,0.0,0.0,0.0,0.0,0.0,0.0,0.0,0.0,0.0,0.0,0.0,0.0,0.0,0.0,0.0,0.0,0.0,0.0,0.0,0.0,0.0,0.0,0.0,0.0,0.0,0.0,0.0,0.0,0.0,0.0,0.0,0.0,0.0,0.0,0.0,0.0,0.0,0.0,0.0,0.0,0.0,0.0,0.0,0.0,0.0,0.0,0.0,0.0,0.0,0.0,0.0,0.0,0.0,0.0,0.0,0.0,0.0,0.0,0.0,0.0,0.0,0.0,0.0,0.0,0.0,0.0,0.0,0.0,0.0,0.0,0.0,0.0,0.0,0.0,0.0,0.0,0.0,0.0,0.0,0.0,0.0,0.0,0.0,0.0,0.0,0.0,0.0,0.0,0.0,0.0,0.0,0.0,0.0,0.0,0.0,0.0,-4.343,-4.6132,-4.7413,-4.8696,-4.8912,-4.8002,-4.6709,-4.4993,-4.2797,0.0,0.0,0.0,0.0,0.0,0.0,0.0,0.0,0.0,0.0,0.0,0.0,0.0,0.0,0.0,0.0,0.0,0.0,0.0,0.0,0.0,0.0,0.0,0.0,0.0,0.0,0.0,0.0,0.0,0.0,0.0,0.0,0.0,0.0,0.0,0.0,0.0,0.0,-3.451,-3.7244,0.0,0.0,0.0,0.0,0.0,0.0,0.0,0.0,-3.9021,0.0,0.0,0.0,0.0,0.0,0.0,0.0,0.0,0.0,0.0,0.0,0.0,0.0,0.0,0.0,0.0,0.0,0.0,0.0,0.0,0.0,0.0,0.0,0.0,0.0,0.0,0.0,0.0,0.0,0.0,0.0,0.0,0.0,0.0,0.0,0.0,0.0,0.0,0.0,0.0,0.0,0.0,0.0,0.0,0.0,0.0,0.0,0.0,0.0,0.0,0.0,0.0,0.0,0.0,0.0,0.0,-4.0071,-4.2823,-4.4876,-4.6243,-4.7258,-4.7707,-4.7498,-4.6584,-4.465,-4.1581,0.0,0.0,0.0,0.0,0.0,0.0,0.0,0.0,0.0,0.0,0.0,0.0,0.0,0.0,0.0,0.0,0.0,0.0,0.0,0.0,0.0,0.0,0.0,0.0,0.0,0.0,0.0,0.0,0.0,0.0,0.0,0.0,0.0,0.0,0.0,0.0,0.0,0.0,0.0,-4.0141,-4.1324,0.0,0.0,0.0,0.0,0.0,0.0,0.0,0.0,-3.6783,0.0,0.0,0.0,0.0,0.0,0.0,0.0,0.0,0.0,0.0,0.0,0.0,0.0,0.0,0.0,0.0,0.0,0.0,0.0,0.0,0.0,0.0,0.0,0.0,0.0,0.0,0.0,0.0,0.0,0.0,0.0,0.0,0.0,0.0,0.0,0.0,0.0,0.0,0.0,0.0,0.0,0.0,0.0,0.0,0.0,0.0,0.0,0.0,0.0,0.0,0.0,0.0,0.0,0.0,0.0,-3.91,-4.2475,-4.4693,-4.5664,-4.6259,-4.6201,-4.5387,-4.4264,-4.2438,0.0,0.0,0.0,0.0,0.0,0.0,0.0,0.0,0.0,0.0,0.0,0.0,0.0,0.0,0.0,0.0,0.0,0.0,0.0,0.0,0.0,0.0,0.0,0.0,0.0,0.0,0.0,0.0,0.0,0.0,0.0,0.0,0.0,0.0,0.0,0.0,0.0,0.0,0.0,0.0,-4.0713,-4.187,-4.232,0.0,0.0,0.0,0.0,0.0,0.0,-3.7689,-3.684,0.0,0.0,0.0,0.0,0.0,0.0,0.0,0.0,0.0,0.0,0.0,0.0,0.0,0.0,0.0,0.0,0.0,0.0,0.0,0.0,0.0,0.0,0.0,0.0,0.0,0.0,0.0,0.0,0.0,0.0,0.0,0.0,0.0,0.0,0.0,0.0,0.0,0.0,0.0,0.0,0.0,0.0,0.0,0.0,0.0,0.0,0.0,0.0,0.0,0.0,0.0,0.0,0.0,0.0,0.0,-3.7582,-4.1467,-4.3883,-4.471,-4.4972,-4.4507,-4.3309,-4.2356,-4.0755,0.0,0.0,0.0,0.0,0.0,0.0,0.0,0.0,0.0,0.0,0.0,0.0,0.0,0.0,0.0,0.0,0.0,0.0,0.0,0.0,0.0,0.0,0.0,0.0,0.0,0.0,0.0,0.0,0.0,0.0,0.0,0.0,0.0,0.0,0.0,0.0,0.0,0.0,0.0,0.0,0.0,-4.2268,-4.2467,-4.2381,0.0,0.0,0.0,0.0,-3.7653,-3.7865,0.0,0.0,0.0,0.0,0.0,0.0,0.0,0.0,0.0,0.0,0.0,0.0,0.0,0.0,0.0,0.0,0.0,0.0,0.0,0.0,0.0,0.0,0.0,0.0,0.0,0.0,0.0,0.0,0.0,0.0,0.0,0.0,0.0,0.0,0.0,0.0,0.0,0.0,0.0,0.0,0.0,0.0,0.0,0.0,0.0,0.0,0.0,0.0,0.0,0.0,0.0,0.0,0.0,0.0,0.0,0.0,-3.6045,-3.8722,-4.0879,-4.2404,-4.2616,-4.2675,-4.2621,-4.309,-4.1741,0.0,0.0,0.0,0.0,0.0,0.0,0.0,0.0,0.0,0.0,0.0,0.0,0.0,0.0,0.0,0.0,0.0,0.0,0.0,0.0,0.0,0.0,0.0,0.0,0.0,0.0,0.0,0.0,0.0,0.0,0.0,0.0,0.0,0.0,0.0,0.0,0.0,0.0,0.0,0.0,0.0,-4.3434,-4.0528,-4.1751,-4.2093,0.0,0.0,-3.7949,-3.9122,-3.934,0.0,0.0,0.0,0.0,0.0,0.0,0.0,0.0,0.0,0.0,0.0,0.0,0.0,0.0,0.0,0.0,0.0,0.0,0.0,0.0,0.0,0.0,0.0,0.0,0.0,0.0,0.0,0.0,0.0,0.0,0.0,0.0,0.0,0.0,0.0,0.0,0.0,0.0,0.0,0.0,0.0,0.0,0.0,0.0,0.0,0.0,0.0,0.0,0.0,0.0,0.0,0.0,0.0,0.0,0.0,-3.3154,-3.4929,-3.8122,-4.0489,-4.1866,-4.1982,-4.1916,-4.1707,-4.1487,-4.0125,0.0,0.0,0.0,0.0,0.0,0.0,0.0,0.0,0.0,0.0,0.0,0.0,0.0,0.0,0.0,0.0,0.0,0.0,0.0,0.0,0.0,0.0,0.0,0.0,0.0,0.0,0.0,0.0,0.0,0.0,0.0,0.0,0.0,0.0,0.0,0.0,0.0,0.0,0.0,0.0,0.0,0.0,-4.0951,-4.1745,0.0,0.0,0.0,-3.7243,-3.811,0.0,0.0,0.0,0.0,0.0,0.0,0.0,0.0,0.0,0.0,0.0,0.0,0.0,0.0,0.0,0.0,0.0,0.0,0.0,0.0,0.0,0.0,0.0,0.0,0.0,0.0,0.0,0.0,0.0,0.0,0.0,0.0,0.0,0.0,0.0,0.0,0.0,0.0,0.0,0.0,0.0,0.0,0.0,0.0,0.0,0.0,0.0,0.0,0.0,0.0,0.0,0.0,0.0,0.0,0.0,0.0,0.0,-3.3754,-3.7188,-3.9629,-4.0914,-4.0972,-4.081,-4.0497,-3.9669,0.0,0.0,0.0,0.0,0.0,0.0,0.0,0.0,0.0,0.0,0.0,0.0,0.0,0.0,0.0,0.0,0.0,0.0,0.0,0.0,0.0,0.0,0.0,0.0,0.0,0.0,0.0,-2.4461,0.0,0.0,0.0,0.0,0.0,0.0,0.0,0.0,0.0,0.0,0.0,0.0,0.0,0.0,-4.1033,-4.0817,-4.1596,-4.1861,0.0,0.0,-3.6892,-3.7464,-3.7622,-3.6846,0.0,0.0,0.0,0.0,0.0,0.0,0.0,0.0,0.0,0.0,0.0,0.0,0.0,0.0,0.0,0.0,0.0,0.0,0.0,0.0,0.0,0.0,0.0,0.0,0.0,0.0,0.0,0.0,0.0,0.0,0.0,0.0,0.0,0.0,0.0,0.0,0.0,0.0,0.0,0.0,0.0,0.0,0.0,0.0,0.0,0.0,0.0,0.0,0.0,0.0,0.0,0.0,0.0,0.0,-3.0356,-3.2416,-3.4899,-3.7052,-3.8652,-3.8668,-3.8706,-3.8848,-3.8505,-3.7283,0.0,0.0,0.0,0.0,0.0,0.0,0.0,0.0,0.0,0.0,0.0,0.0,0.0,0.0,0.0,0.0,0.0,0.0,0.0,0.0,0.0,0.0,0.0,0.0,0.0,0.0,0.0,0.0,0.0,0.0,0.0,0.0,0.0,0.0,0.0,0.0,0.0,0.0,0.0,0.0,0.0,-3.9865,-3.876,-4.0992,-4.2423,0.0,0.0,-3.7523,-3.8265,-3.8363,-3.7045,-3.3246,0.0,0.0,0.0,0.0,0.0,0.0,0.0,0.0,0.0,0.0,0.0,0.0,0.0,0.0,0.0,0.0,0.0,0.0,0.0,0.0,0.0,0.0,0.0,0.0,0.0,0.0,0.0,0.0,0.0,0.0,0.0,0.0,0.0,0.0,0.0,0.0,0.0,0.0,0.0,0.0,0.0,0.0,0.0,0.0,0.0,0.0,0.0,0.0,0.0,0.0,0.0,0.0,0.0,-2.9733,-3.1023,-3.4156,-3.652,-3.7999,-3.8048,-3.806,-3.8133,-3.7906,-3.6754,0.0,0.0,0.0,0.0,0.0,0.0,0.0,0.0,0.0,0.0,0.0,0.0,0.0,0.0,0.0,0.0,0.0,0.0,0.0,0.0,0.0,0.0,0.0,0.0,0.0,0.0,0.0,0.0,-2.4377,-2.4217,-2.4557,0.0,0.0,0.0,0.0,0.0,0.0,0.0,0.0,0.0,0.0,-3.9146,-3.897,-4.0395,0.0,0.0,-3.8569,-3.7476,-3.7767,-3.7504,-3.6465,-3.4098,-3.326,0.0,0.0,0.0,0.0,0.0,0.0,0.0,0.0,0.0,0.0,0.0,0.0,0.0,0.0,0.0,0.0,0.0,0.0,0.0,0.0,0.0,0.0,0.0,0.0,0.0,0.0,0.0,0.0,0.0,0.0,0.0,0.0,0.0,0.0,0.0,0.0,0.0,0.0,0.0,0.0,0.0,0.0,0.0,0.0,0.0,0.0,0.0,0.0,0.0,0.0,0.0,0.0,-2.9131,-3.0101,-3.3311,-3.5718,-3.7233,-3.7189,-3.7095,-3.6934,-3.661,-3.5556,0.0,0.0,0.0,0.0,0.0,0.0,0.0,0.0,0.0,0.0,0.0,0.0,0.0,0.0,0.0,0.0,0.0,0.0,0.0,0.0,0.0,0.0,0.0,0.0,0.0,0.0,0.0,0.0,-2.4502,-2.4287,-2.4445,0.0,0.0,0.0,0.0,0.0,0.0,0.0,0.0,0.0,0.0,-3.8333,-3.8686,-3.9596,-3.9858,-3.8702,-3.7569,-3.6776,-3.6567,-3.6357,-3.5663,-3.4051,0.0,0.0,0.0,0.0,0.0,0.0,0.0,0.0,0.0,0.0,0.0,0.0,0.0,0.0,0.0,0.0,0.0,0.0,0.0,0.0,0.0,0.0,0.0,0.0,0.0,0.0,0.0,0.0,0.0,0.0,-2.7126,0.0,0.0,0.0,0.0,0.0,0.0,0.0,0.0,0.0,0.0,0.0,0.0,0.0,0.0,0.0,0.0,0.0,0.0,0.0,0.0,0.0,0.0,-2.8321,-2.9767,-3.2111,-3.4205,-3.5944,-3.5816,-3.5498,-3.5079,-3.4304,-3.3377,-3.2342,0.0,0.0,0.0,0.0,0.0,0.0,0.0,0.0,0.0,0.0,0.0,0.0,0.0,0.0,0.0,0.0,0.0,0.0,0.0,0.0,0.0,0.0,0.0,0.0,0.0,0.0,-2.67,-2.525,-2.3916,0.0,0.0,0.0,0.0,0.0,0.0,0.0,0.0,0.0,0.0,-3.5133,-3.7262,-3.7415,-3.8556,-3.8686,-3.6832,-3.5995,-3.5322,-3.4709,-3.5098,-3.475,0.0,0.0,0.0,0.0,0.0,0.0,0.0,0.0,0.0,0.0,0.0,0.0,0.0,0.0,0.0,0.0,0.0,0.0,0.0,0.0,0.0,0.0,0.0,0.0,0.0,0.0,0.0,-3.0655,-2.9901,0.0,0.0,0.0,0.0,0.0,0.0,0.0,0.0,0.0,0.0,0.0,-2.7014,-2.6371,0.0,0.0,0.0,0.0,0.0,0.0,0.0,0.0,0.0,0.0,0.0,0.0,-2.7169,-2.8082,-3.0405,-3.2317,-3.3654,-3.3311,-3.3245,-3.3518,-3.292,-3.2003,-3.0659,0.0,0.0,0.0,0.0,0.0,0.0,0.0,0.0,0.0,0.0,0.0,0.0,0.0,0.0,0.0,0.0,0.0,0.0,0.0,0.0,0.0,0.0,0.0,0.0,0.0,-2.4462,0.0,0.0,0.0,0.0,0.0,0.0,0.0,0.0,0.0,0.0,0.0,-2.9582,-3.2,-3.3741,-3.5032,-3.564,-3.6515,-3.653,0.0,0.0,0.0,0.0,0.0,0.0,0.0,0.0,0.0,0.0,0.0,0.0,0.0,0.0,-3.5126,-3.3412,-3.2444,-3.1896,-3.1896,0.0,0.0,0.0,0.0,0.0,0.0,0.0,0.0,0.0,0.0,0.0,0.0,0.0,0.0,-3.0263,0.0,-2.9174,0.0,0.0,0.0,0.0,0.0,0.0,0.0,0.0,-2.5677,-2.521,-2.4902,-2.4361,-2.3907,0.0,-2.4429,-2.5099,0.0,0.0,0.0,0.0,0.0,0.0,0.0,0.0,-2.6688,-2.732,-2.9747,-3.1495,-3.2524,-3.2083,-3.1907,-3.2102,-3.1542,-3.0576,-2.9233,-2.7423,-2.5992,0.0,0.0,0.0,0.0,0.0,0.0,0.0,0.0,0.0,0.0,0.0,0.0,0.0,0.0,0.0,0.0,0.0,0.0,0.0,0.0,0.0,0.0,0.0,-2.3397,0.0,0.0,0.0,0.0,0.0,0.0,0.0,0.0,0.0,-2.6951,-2.8069,-2.9696,-3.2266,-3.3115,-3.3799,-3.4608,0.0,0.0,0.0,0.0,0.0,0.0,0.0,-3.3289,-3.3477,-3.3009,-3.2382,-3.1806,-3.2707,-3.3513,-3.3548,0.0,0.0,-3.4435,-3.3591,-3.3081,-3.3156,-3.2779,-3.2432,-3.2447,-3.2564,-3.2599,0.0,0.0,0.0,0.0,0.0,0.0,0.0,0.0,-2.9238,-2.9155,0.0,-2.747,0.0,0.0,0.0,0.0,0.0,-2.4002,0.0,0.0,-2.1781,-2.1375,-2.2017,-2.229,-2.2092,-2.1843,-2.4865,-2.5583,-2.406,-2.3154,0.0,0.0,0.0,0.0,0.0,0.0,-2.6809,-2.7397,-2.9881,-3.1613,-3.2332,-3.1902,-3.1344,-3.0717,-3.0119,-2.9242,-2.8146,-2.8903,-2.8078,-2.5256,-2.5981,0.0,0.0,0.0,0.0,0.0,0.0,0.0,0.0,0.0,0.0,0.0,0.0,0.0,0.0,0.0,0.0,0.0,0.0,0.0,0.0,-2.3756,0.0,0.0,0.0,0.0,0.0,0.0,0.0,0.0,0.0,0.0,-2.6032,-2.838,-3.0736,-3.2554,0.0,0.0,0.0,0.0,-3.304,-3.1769,-3.205,-3.2242,-3.1658,-3.2525,-3.2767,-3.1376,0.0,0.0,-3.1797,-3.3178,-3.3947,-3.2792,-3.3691,-3.5165,-3.6606,-3.5785,-3.5157,-3.5322,-3.4367,-3.3604,-3.3531,-3.3466,-3.3211,-2.9283,0.0,0.0,0.0,0.0,-2.905,-2.9819,-3.0956,-3.0488,-2.9965,-2.9331,-2.8365,0.0,0.0,0.0,0.0,0.0,0.0,-2.3785,-2.1626,-2.1587,-2.1063,-2.0029,-1.993,-1.975,-1.9654,-2.1482,-2.2061,-2.142,-2.2163,-2.3189,-2.4356,0.0,0.0,0.0,0.0,-2.4845,-2.5655,-2.7498,-2.8737,-2.9302,-2.9224,-2.9121,-2.9016,-2.8843,-2.876,-2.8769,-2.788,-2.7178,-2.6643,-2.4975,0.0,0.0,0.0,0.0,0.0,0.0,0.0,0.0,0.0,0.0,0.0,0.0,0.0,0.0,0.0,0.0,0.0,0.0,0.0,-2.3537,-2.2914,-2.232,0.0,0.0,0.0,0.0,0.0,0.0,0.0,0.0,0.0,-2.6788,-2.7719,-2.868,0.0,0.0,-3.0957,-3.129,-3.1211,-3.0939,-3.0589,-3.0792,0.0,-3.1686,-3.1449,-3.1466,-3.23,-3.2005,-3.1589,-3.1339,-3.1378,-3.1427,-3.1542,-3.1954,-3.2568,-3.3493,-3.4466,-3.4983,-3.5169,-3.4951,-3.4582,-3.4309,-3.4106,-3.3817,-2.8674,-2.8321,-2.8162,-2.833,-2.859,-2.8541,-2.8992,-2.9787,-2.9001,-2.8705,-2.8652,-2.6876,-2.5773,-2.5155,-2.4555,0.0,0.0,0.0,-2.2336,-2.0246,-2.0378,-2.0022,-1.9207,-1.8668,-1.8587,-1.9003,-2.0017,-2.06,-2.0827,-2.221,-2.3192,-2.3784,0.0,0.0,-2.3242,-2.3694,-2.4191,-2.4712,-2.6091,-2.696,-2.7257,-2.7102,-2.6931,-2.6814,-2.7065,-2.741,-2.768,-2.6711,-2.6129,-2.6057,-2.4436,-2.2959,0.0,0.0,0.0,0.0,0.0,0.0,0.0,0.0,0.0,0.0,0.0,-2.3215,-2.2855,0.0,0.0,0.0,-2.2206,-2.2577,-2.1739,-2.1131,0.0,0.0,0.0,0.0,0.0,0.0,0.0,-2.3035,-2.4557,-2.591,-2.6611,-2.728,-2.8155,-2.9475,-2.9717,-2.9906,-3.0224,0.0,-2.9972,-2.9972,-3.0265,-3.0662,-3.1293,-3.0854,-3.0738,-3.1565,-3.1033,-3.0517,-3.0609,-3.0252,-3.0164,-3.0545,-3.0884,-3.1244,-3.1669,-3.2702,-3.3729,-3.4365,-3.4615,-3.4614,-3.431,-3.3863,-3.3332,-2.7475,-2.7208,-2.742,-2.7511,-2.7596,-2.7583,-2.7511,-2.7299,-2.5854,-2.6134,-2.7406,-2.3894,-2.3135,-2.444,-2.2921,0.0,-2.0119,-2.0353,-1.9995,-1.9127,-1.8579,-1.8602,-1.9104,-1.8304,-1.8424,-1.9359,-2.0008,-2.0827,-2.1695,-2.2862,-2.3252,-2.2846,-2.246,-2.2665,-2.3475,-2.4048,-2.4373,-2.4404,-2.5455,-2.6018,-2.6052,-2.5457,-2.497,-2.4582,-2.5161,-2.5529,-2.5563,-2.5529,-2.5116,-2.4294,-2.404,-2.282,-2.0469,0.0,0.0,0.0,0.0,0.0,0.0,0.0,0.0,0.0,0.0,0.0,0.0,0.0,0.0,0.0,-1.9649,0.0,-1.9649,-1.9252,0.0,0.0,0.0,-2.0625,-2.1228,-2.2795,-2.3798,-2.3758,0.0,0.0,-2.5753,-2.6789,-2.8429,-3.0785,-3.034,-2.9928,-3.0442,-3.0054,-2.9779,-2.9818,-3.0206,-3.0532,-3.0561,-3.0524,-3.036,-3.0072,-2.9779,-2.9817,-2.9855,-2.9843,-2.9792,-2.9768,-3.0266,-3.0703,-3.069,-3.0935,-3.1555,-3.2849,-3.347,-3.3794,-3.3652,-3.2923,-3.2109,-2.6404,-2.6251,-2.5765,-2.6128,-2.6921,-2.648,-2.5866,-2.5119,-2.5026,-2.4772,-2.4272,-2.281,-2.2038,-2.1772,-2.1352,-2.0795,-2.0176,-2.0031,-1.9542,-1.8798,-1.8484,-1.8484,-1.8825,-1.8903,-1.9186,-1.9665,-2.0785,-2.1463,-2.1739,-2.274,-2.3129,-2.3022,-2.2934,-2.2764,-2.2563,-2.2987,-2.3293,-2.3512,-2.4556,-2.5313,-2.5659,-2.455,-2.4251,-2.4852,-2.4679,-2.4819,-2.5267,-2.4841,-2.4489,-2.4243,-2.267,-2.1481,-2.0831,-2.0052,0.0,0.0,0.0,0.0,0.0,0.0,0.0,0.0,0.0,-2.038,-1.9459,0.0,-1.8854,0.0,-1.8447,-1.9725,-2.17,-2.1419,0.0,0.0,-2.192,-2.1999,-2.2171,-2.3329,-2.3918,-2.3391,-2.4053,-2.477,-2.5216,-2.5291,-2.6136,-2.8312,-2.9013,-2.9376,-2.9656,-2.9569,-2.956,-2.9753,-2.9905,-2.998,-3.0005,-2.9993,-2.9955,-2.9817,-2.9779,-2.9779,-2.9779,-2.9779,-2.9654,-2.9252,-2.924,-2.9213,-2.8907,-2.9282,-2.979,-3.0122,-3.1225,-3.2288,-3.2423,-3.1869,-3.1235,-2.4603,-2.4427,-2.4079,-2.425,-2.4725,-2.488,-2.4597,-2.4061,-2.3648,-2.3243,-2.2897,-2.1719,-2.0589,-1.9605,-1.9828,-1.9721,-1.9399,-1.9243,-1.9094,-1.8895,-1.8218,-1.8086,-1.8503,-1.8776,-1.9268,-1.9949,-2.1023,-2.1784,-2.2334,-2.2862,-2.3101,-2.3101,-2.3101,-2.2953,-2.263,-2.2837,-2.3008,-2.3179,-2.3659,-2.393,-2.3879,-2.3264,-2.3098,-2.3424,-2.3324,-2.3369,-2.3714,-2.3189,-2.284,-2.2656,-2.1468,-2.0394,-1.9484,-1.9007,-1.8401,0.0,0.0,0.0,0.0,0.0,0.0,0.0,0.0,0.0,0.0,0.0,-1.8326,-1.8301,-1.8789,-1.9849,-2.171,-2.137,-2.1218,-2.1724,-2.1948,-2.218,-2.2492,-2.3564,-2.422,-2.3851,-2.4462,-2.5037,-2.5346,-2.5216,-2.5502,-2.6737,-2.7354,-2.8051,-2.9028,-2.9275,-2.9326,-2.9456,-2.9507,-2.9507,-2.9507,-2.9573,-2.9482,-2.917,-2.9456,-2.96,-2.8966,-2.9172,-2.9227,-2.8662,-2.8524,-2.8486,-2.8184,-2.798,-2.8096,-2.8351,-2.8712,-2.9398,-3.0296,-2.9856,-2.9202,-2.2593,-2.2381,-2.2325,-2.2135,-2.1955,-2.2812,-2.3223,-2.3183,-2.1904,-2.1596,-2.1996,-2.0458,-1.9111,-1.8051,-1.8504,-1.8565,-1.8397,-1.8325,-1.8542,-1.8922,-1.7799,-1.7517,-1.8015,-1.838,-1.9109,-2.015,-2.1015,-2.1971,-2.3003,-2.2916,-2.2818,-2.2818,-2.2687,-2.2643,-2.2687,-2.2687,-2.2775,-2.296,-2.2758,-2.2367,-2.1839,-2.2066,-2.1924,-2.1497,-2.1568,-2.1581,-2.1447,-2.1053,-2.0639,-2.0313,-2.0226,-1.9393,-1.7688,-1.799,-1.7749,0.0,-1.6813,0.0,0.0,0.0,0.0,0.0,0.0,0.0,0.0,-1.817,-1.832,-1.9825,-1.9811,-2.0083,-2.0992,-2.0567,-2.051,-2.11,-2.1504,-2.1926,-2.2555,-2.3632,-2.4327,-2.4327,-2.4988,-2.5453,-2.5358,-2.5442,-2.5442,-2.5523,-2.5661,-2.6408,-2.8076,-2.8533,-2.8581,-2.8764,-2.8764,-2.8633,-2.8673,-2.8819,-2.8664,-2.81,-2.8488,-2.8823,-2.7517,-2.7905,-2.8213,-2.7705,-2.7409,-2.7408,-2.7542,-2.6623,-2.6205,-2.6817,-2.6239,-2.6238,-2.7868,-2.7745,-2.6989,-2.1101,-2.0978,-2.0575,-2.0308,-2.0212,-1.9958,-2.0082,-2.0515,-2.0047,-1.9493,-1.8867,-1.8534,-1.8261,-1.7994,-1.8094,-1.8261,-1.8361,-1.7902,-1.7754,-1.7775,-1.7079,-1.6815,-1.6996,-1.855,-1.9392,-1.9749,-2.1392,-2.2299,-2.252,-2.1774,-2.14,-2.1364,-2.0584,-2.0277,-2.0484,0.0,0.0,0.0,-2.1866,-2.1787,-2.2025,-2.1968,-2.171,-2.1202,-2.0601,0.0,-1.9164,-1.8795,-1.8558,-1.8479,-1.8189,0.0,0.0,0.0,0.0,0.0,0.0,0.0,0.0,0.0,0.0,0.0,-1.7863,-1.8097,-1.8635,-1.8806,-1.9207,-2.0072,-2.0287,-2.0829,-2.1835,-2.2001,-2.2178,-2.2635,-2.2742,-2.2843,-2.2984,-2.3217,-2.3353,-2.3396,-2.3507,-2.3637,-2.3651,-2.3604,-2.3745,-2.4138,-2.4503,-2.5019,-2.5783,-2.6418,-2.6778,-2.6935,-2.7075,-2.7005,-2.6987,-2.7064,-2.6938,-2.6445,-2.6519,-2.6533,-2.5899,-2.5927,-2.5869,-2.5246,-2.4745,-2.4644,-2.472,-2.3792,-2.3519,-2.4682,-2.403,-2.4065,-2.663,-2.6644,-2.6036,-2.0374,-2.0201,-1.9773,-1.9586,0.0,-1.9272,-1.926,-1.9341,-1.8894,-1.8346,-1.7816,-1.7816,-1.7708,-1.7596,-1.7738,-1.7763,-1.7729,-1.7325,-1.719,-1.7271,-1.6681,-1.6501,-1.6629,-1.7971,-1.865,-1.8826,-2.0141,-2.0836,-2.0926,-2.0494,-2.0268,-2.0268,-1.9724,-1.9588,-1.9695,-1.9338,-1.9886,-2.1347,-2.1148,-2.0952,-2.0837,-2.0643,-2.0208,-1.9494,-1.8911,0.0,0.0,0.0,0.0,0.0,0.0,0.0,0.0,-1.6776,0.0,-1.6095,-1.6732,-1.6958,-1.6533,-1.7025,-1.7284,-1.7111,-1.7767,-1.8309,-1.8621,-1.9186,-1.9871,-2.058,-2.0634,-2.1071,-2.2155,-2.2346,-2.2436,-2.263,-2.2746,-2.2764,-2.2578,-2.2715,-2.2691,-2.2578,-2.2695,-2.2721,-2.2549,-2.2529,-2.2601,-2.2812,-2.3068,-2.3316,-2.3691,-2.4959,-2.6005,-2.613,-2.5972,-2.5839,-2.5858,-2.5768,-2.5429,-2.4912,-2.5227,-2.5184,-2.426,-2.4569,-2.4657,-2.4022,-2.3565,-2.3328,-2.3291,-2.2525,-2.2036,-2.2577,-2.2028,-2.1792,-2.3518,-2.4141,-2.4379,-2.004,-1.984,-1.9512,-1.9424,-1.9424,-1.9319,-1.9125,-1.8811,0.0,0.0,0.0,-1.7589,-1.7455,-1.7293,-1.7482,-1.7398,-1.7109,-1.6834,-1.6801,-1.694,-1.6409,-1.6265,-1.6494,-1.7279,-1.7684,-1.7902,-1.868,-1.9177,-1.936,-1.9222,-1.9093,-1.9085,-1.8948,-1.8848,-1.8856,-1.8373,-1.8711,-1.9903,-2.013,-1.9932,-1.9387,-1.9245,-1.8726,-1.7788,-1.7408,-1.7114,-1.6942,-1.6557,-1.6357,-1.6357,-1.6317,-1.5921,-1.5051,-1.5372,-1.5282,-1.4526,-1.4648,-1.4993,-1.5587,-1.5816,-1.6121,-1.6786,-1.773,-1.8463,-1.8854,-1.9578,-2.031,-2.0952,-2.0778,-2.1074,-2.2023,-2.2059,-2.202,-2.202,-2.219,-2.213,-2.1912,-2.2126,-2.2223,-2.1992,-2.2207,-2.2275,-2.1973,-2.1934,-2.1846,-2.1797,-2.1958,-2.1936,-2.217,-2.367,-2.4911,-2.4879,-2.4571,-2.4553,-2.4592,-2.4435,-2.4032,-2.328,-2.3874,-2.4022,-2.2994,-2.3053,-2.331,-2.2644,-2.2399,-2.2174,-2.2192,-2.138,-2.093,-2.1018,-2.0338,-1.9753,-2.0208,-2.1434,-2.2372,-1.998,-2.0127,-1.9586,-1.9424,-1.9352,-1.9098,-1.8818,-1.8531,-1.8135,-1.7869,-1.7589,-1.7589,-1.7562,-1.7522,-1.7562,-1.7454,-1.7183,-1.682,-1.6596,-1.6412,-1.6013,-1.5872,-1.5974,-1.6911,-1.7372,-1.7466,-1.8373,-1.8834,-1.8788,-1.801,-1.7598,-1.7505,-1.6756,-1.648,-1.6676,-1.677,-1.7052,-1.7481,-1.8295,-1.868,-1.8579,-1.8905,-1.8648,-1.7689,-1.7091,-1.6349,-1.5505,-1.5203,-1.4989,-1.4989,-1.4989,-1.5099,-1.5303,-1.5546,-1.546,-1.5101,-1.5865,-1.6126,-1.5519,-1.6124,-1.6743,-1.7137,-1.7191,-1.7853,-1.9565,-2.0154,-2.0442,-2.0585,-2.0676,-2.0913,-2.1109,-2.124,-2.136,-2.1351,-2.1351,-2.1438,-2.1467,-2.1627,-2.1687,-2.1795,-2.1924,-2.1963,-2.1836,-2.1826,-2.167,-2.1475,-2.1562,-2.1846,-2.1826,-2.218,-2.2415,-2.2466,-2.2426,-2.2376,-2.2552,-2.2368,-2.215,-2.1609,-2.183,-2.1813,-2.0749,-2.0838,-2.0873,-2.0102,-1.9828,-1.9676,-2.0104,-1.9247,-1.9073,-1.9533,-1.9168,-1.8761,-1.8685,-1.9679,-2.0476,-1.9927,-1.974,-1.9472,-1.9424,-1.9332,-1.8885,-1.8617,-1.845,-1.7996,-1.7816,-1.7836,-1.7829,-1.7742,-1.7575,-1.7467,-1.7239,-1.6894,-1.66,-1.6306,-1.6039,-1.5885,-1.5825,-1.5825,-1.6251,-1.648,-1.6534,-1.6943,-1.7171,-1.7124,-1.6669,-1.648,-1.648,-1.6015,-1.5879,-1.5974,-1.6116,-1.6211,-1.6353,-1.7192,-1.7567,-1.7451,-1.7447,-1.7056,-1.6183,-1.5927,-1.5494,-1.4863,-1.4683,-1.4608,-1.4608,-1.4458,-1.4461,-1.4699,-1.479,-1.4748,-1.4587,-1.5026,-1.511,-1.4699,-1.5068,-1.5578,-1.6171,-1.6145,-1.6646,-1.8067,-1.8872,-1.9386,-1.9621,-1.9879,-2.0218,-2.0624,-2.0703,-2.0686,-2.0645,-2.08,-2.0797,-2.0697,-2.089,-2.096,-2.0878,-2.1134,-2.1264,-2.1081,-2.1132,-2.1123,-2.0918,-2.1074,-2.1052,-2.0569,-2.0479,-2.0821,-2.1675,-2.1699,-2.1553,-2.1504,-2.1094,-2.0771,-2.0498,-2.0556,-2.033,-1.9717,-1.9791,-1.9781,-1.9402,-1.8926,-1.8778,-1.9069,-1.8532,-1.8321,-1.8367,-1.8054,-1.7646,-1.7794,-1.8375,-1.9058,-1.8781,-1.8569,-1.868,-1.8771,-1.8797,-1.8361,-1.8229,-1.8226,-1.7681,-1.7538,-1.7723,-1.7841,-1.7809,-1.7569,-1.7333,-1.7079,-1.6774,-1.6433,-1.6146,-1.5939,-1.5865,-1.5825,-1.5825,-1.5825,-1.5825,-1.5825,-1.5825,-1.5825,-1.5825,-1.5825,-1.5825,-1.5825,-1.5825,-1.5825,-1.5825,-1.5825,-1.5825,-1.5825,-1.6407,-1.6636,-1.6433,-1.6095,-1.5689,-1.5129,-1.5042,-1.4856,-1.4636,-1.4623,-1.4589,-1.4516,-1.4309,-1.4155,-1.4095,-1.4088,-1.4115,-1.4168,-1.4182,-1.4215,-1.4275,-1.4215,-1.4472,-1.5126,-1.5146,-1.5394,-1.6113,-1.7069,-1.7895,-1.8347,-1.857,-1.8972,-1.9416,-1.951,-1.9444,-1.9435,-1.9607,-1.961,-1.9583,-1.9866,-1.9974,-1.9648,-2.004,-2.0146,-1.9643,-1.9685,-1.9743,-1.9687,-1.9793,-1.9484,-1.8939,-1.8846,-1.9519,-2.0238,-2.0625,-2.0571,-2.0612,-2.0197,-1.976,-1.9579,-1.9673,-1.9563,-1.9316,-1.9424,-1.9414,-1.9014,-1.8711,-1.8486,-1.8412,-1.8144,-1.7856,-1.7721,-1.7137,-1.6761,-1.7012,-1.7286,-1.7962,-1.5481,-1.5953,-1.6535,-1.6932,-1.722,-1.716,-1.7235,-1.7478,-1.7171,-1.6934,-1.6777,-1.7373,-1.7563,-1.7549,-1.7281,-1.7128,-1.7099,-1.6576,-1.6315,-1.6206,-1.5952,-1.5832,-1.5858,-1.5791,-1.5825,-1.5791,-1.5832,-1.5825,-1.5825,-1.5825,-1.5825,-1.5825,-1.5825,-1.5825,-1.5825,-1.5825,-1.5825,-1.5825,-1.5879,-1.5927,-1.5859,-1.5591,-1.543,-1.5357,-1.5149,-1.4995,-1.4923,-1.4968,-1.4803,-1.4506,-1.4496,-1.4355,-1.4135,-1.4095,-1.4208,-1.4462,-1.4482,-1.4596,-1.4823,-1.4629,-1.4519,-1.4542,-1.4406,-1.4306,-1.4461,-1.518,-1.602,-1.6719,-1.6918,-1.7123,-1.7032,-1.7155,-1.7278,-1.7368,-1.7311,-1.7416,-1.8247,-1.8496,-1.8461,-1.8363,-1.8642,-1.8329,-1.7368,-1.745,-1.7609,-1.7649,-1.7716,-1.7602,-1.7345,-1.7467,-1.7506,-1.7586,-1.8053,-1.8797,-1.8971,-1.9258,-1.886,-1.849,-1.8896,-1.8851,-1.8545,-1.8482,-1.8572,-1.8187,-1.809,-1.8032,-1.8037,-1.7734,-1.7363,-1.7148,-1.6672,-1.6196,-1.6233,-1.6319,-1.6941,-1.4891,-1.4975,-1.524,-1.5435,-1.5542,-1.5408,-1.5315,-1.5341,-1.505,-1.4816,-1.4751,-1.4973,-1.5636,-1.6539,-1.6268,-1.651,-1.7172,-1.6714,-1.6526,-1.652,-1.64,-1.6346,-1.6333,-1.6166,-1.6092,-1.6066,-1.5919,-1.5825,-1.5825,-1.5825,-1.5825,-1.5825,-1.5825,-1.5825,-1.5825,-1.5825,-1.5825,-1.5825,-1.5825,-1.5825,-1.5771,-1.5718,-1.5571,-1.5418,-1.5444,-1.5391,-1.5244,-1.5217,-1.5157,-1.503,-1.4672,-1.4549,-1.4596,-1.4442,-1.4476,-1.475,-1.4783,-1.4836,-1.4957,-1.4888,-1.4703,-1.4529,-1.4409,-1.4282,-1.4151,-1.4419,-1.4783,-1.5193,-1.6083,-1.6698,-1.6657,-1.6698,-1.6698,-1.6698,-1.6698,-1.6862,-1.7261,-1.7374,-1.7349,-1.7313,-1.7525,-1.7384,-1.6752,-1.6638,-1.6707,-1.6632,-1.6606,-1.643,-1.607,-1.6047,-1.6025,-1.5912,-1.6084,-1.6518,-1.7177,-1.737,-1.724,-1.7012,-1.7122,-1.7234,-1.6902,-1.7063,-1.7232,-1.7178,-1.7242,-1.7516,-1.7959,-1.7676,-1.7295,-1.6943,-1.6475,-1.6028,-1.5732,-1.5912,-1.6407,-1.3542,-1.3481,-1.377,-1.3954,-1.3939,-1.3721,-1.3587,-1.3494,-1.3228,-1.307,-1.293,-1.2866,-1.3485,-1.4635,-1.5048,-1.5774,-1.653,-1.6588,-1.6607,-1.6607,-1.6557,-1.6567,-1.6474,-1.6281,-1.6224,-1.6129,-1.578,-1.5594,-1.5607,-1.5686,-1.5713,-1.5719,-1.5785,-1.5792,-1.5719,-1.5713,-1.5673,-1.5601,-1.5601,-1.5648,-1.5683,-1.573,-1.5631,-1.5551,-1.5718,-1.5725,-1.5531,-1.5518,-1.5471,-1.5391,-1.4983,-1.4816,-1.4943,-1.4756,-1.4776,-1.505,-1.5164,-1.5249,-1.5197,-1.5176,-1.5001,-1.4676,-1.4576,-1.4396,-1.4155,-1.4088,-1.4088,-1.4208,-1.5269,-1.5925,-1.6008,-1.6008,-1.5966,-1.6008,-1.6,-1.6041,-1.6288,-1.6329,-1.6324,-1.6246,-1.6297,-1.6196,-1.5732,-1.5356,-1.5217,-1.5292,-1.5346,-1.5302,-1.4759,-1.4637,-1.4659,-1.4538,-1.4328,-1.4743,-1.5675,-1.6012,-1.5702,-1.5478,-1.5632,-1.5829,-1.5284,-1.5804,-1.6095,-1.6202,-1.634,-1.6515,-1.6923,-1.694,-1.6793,-1.6726,-1.6328,-1.5771,-1.5537,-1.5739,-1.5845,-1.0186,-1.0728,-1.1808,-1.229,-1.229,-1.2277,-1.2392,-1.2395,-1.2175,-1.2042,-1.1946,-1.1671,-1.1592,-1.1905,-1.3895,-1.4995,-1.5225,-1.5909,-1.627,-1.627,-1.6314,-1.6195,-1.5921,-1.5931,-1.595,-1.5947,-1.5541,-1.5236,-1.5236,-1.5405,-1.5526,-1.5539,-1.57,-1.5719,-1.546,-1.5354,-1.5344,-1.5086,-1.4994,-1.522,-1.5445,-1.5499,-1.5432,-1.5602,-1.5778,-1.5764,-1.5751,-1.5758,-1.5638,-1.5411,-1.5298,-1.5224,-1.5055,-1.5015,-1.5135,-1.5364,-1.5625,-1.5772,-1.5725,-1.5518,-1.5251,-1.5015,-1.473,-1.4416,-1.4168,-1.4128,-1.4115,-1.4088,-1.4292,-1.4419,-1.4419,-1.4531,-1.4461,-1.4412,-1.4334,-1.4699,-1.5394,-1.5436,-1.5289,-1.5083,-1.5036,-1.4659,-1.3456,-1.2937,-1.313,-1.3219,-1.3154,-1.3175,-1.3276,-1.3379,-1.3325,-1.3138,-1.3248,-1.3726,-1.4575,-1.4788,-1.4676,-1.4444,-1.4548,-1.5043,-1.5188,-1.5251,-1.5207,-1.5203,-1.5177,-1.536,-1.5682,-1.573,-1.5511,-1.5434,-1.5561,-1.5274,-1.5342,-1.5391,-1.5497,-0.9883,-1.0004,-1.0482,-1.0664,-1.0668,-1.0664,-1.0576,-1.0499,-1.0377,-1.0201,-1.0028,-0.989,-0.9864,-0.9966,-1.1679,-1.3041,-1.3939,-1.4983,-1.5485,-1.5537,-1.6229,-1.649,-1.6388,-1.626,-1.617,-1.6087,-1.58,-1.5611,-1.5617,-1.5719,-1.5757,-1.5613,-1.5034,-1.4675,-1.4474,-1.3807,-1.3627,-1.4082,-1.3451,-1.3752,-1.4987,-1.3896,-1.3547,-1.4328,-1.5296,-1.5825,-1.5825,-1.5207,-1.5061,-1.5631,-1.4873,-1.4722,-1.5411,-1.5518,-1.5558,-1.5665,-1.5724,-1.5825,-1.5812,-1.5738,-1.5545,-1.5271,-1.515,-1.4812,-1.4476,-1.4355,-1.4295,-1.4142,-1.4088,-1.4088,-1.4088,-1.4088,-1.4088,-1.4088,-1.4088,-1.4215,-1.4454,-1.458,-1.4531,-1.4338,-1.4102,-1.3541,-1.3042,-1.2597,-1.2459,-1.2526,-1.2526,-1.2526,-1.2539,-1.2634,-1.2655,-1.2499,-1.257,-1.2794,-1.3047,-1.3345,-1.339,-1.3215,-1.3251,-1.3361,-1.3484,-1.3744,-1.3772,-1.4026,-1.4025,-1.4209,-1.4545,-1.4611,-1.4373,-1.4617,-1.4703,-1.4824,-1.5196,-1.5147,-1.5264,-0.9819,-0.9819,-0.9819,-0.9819,-0.9819,-0.9819,-0.9683,-0.9459,-0.9401,-0.9239,-0.9032,-0.896,-0.8937,-0.9047,-0.997,-1.0891,-1.2028,-1.3485,-1.4298,-1.4358,-1.5102,-1.5388,-1.5282,-1.5129,-1.5047,-1.4972,-1.478,-1.4606,-1.4536,-1.46,-1.4641,-1.4538,-1.3879,-1.3522,-1.3282,-1.2567,-1.2461,-1.2762,-1.2162,-1.2655,-1.4074,-1.3066,-1.2678,-1.3511,-1.4627,-1.501,-1.4717,-1.4094,-1.4046,-1.4543,-1.3909,-1.3992,-1.5175,-1.5635,-1.5825,-1.5778,-1.5384,-1.5188,-1.5092,-1.48,-1.4545,-1.467,-1.4638,-1.4532,-1.4369,-1.4487,-1.4385,-1.4223,-1.4186,-1.4208,-1.4108,-1.4088,-1.4088,-1.4088,-1.4088,-1.4088,-1.4088,-1.413,-1.4023,-1.3802,-1.3494,-1.3105,-1.2723,-1.2476,-1.2325,-1.2305,-1.2305,-1.2305,-1.2305,-1.2305,-1.2305,-1.2305,-1.2311,-1.2368,-1.253,-1.276,-1.2813,-1.2666,-1.2636,-1.2445,-1.2388,-1.2581,-1.2673,-1.2877,-1.3021,-1.3155,-1.329,-1.3403,-1.3618,-1.3879,-1.3944,-1.3974,-1.4401,-1.4815,-1.4874,-0.9819,-0.9819,-0.9819,-0.9819,-0.9819,-0.9819,-0.9737,-0.9568,-0.9439,-0.9279,-0.9096,-0.8994,-0.8937,-0.8937,-0.9103,-0.9099,-0.9699,-1.1664,-1.2684,-1.2832,-1.2989,-1.2944,-1.2785,-1.2823,-1.2813,-1.276,-1.2322,-1.2054,-1.2062,-1.2336,-1.2428,-1.2254,-1.2441,-1.2257,-1.2004,-1.1799,-1.1706,-1.1634,-1.1388,-1.2038,-1.3116,-1.303,-1.3007,-1.3437,-1.3667,-1.3312,-1.2436,-1.2581,-1.2775,-1.2877,-1.2764,-1.321,-1.419,-1.501,-1.5683,-1.5439,-1.4561,-1.3968,-1.383,-1.2861,-1.263,-1.3042,-1.3168,-1.3444,-1.3801,-1.4134,-1.4148,-1.4,-1.4017,-1.4199,-1.4048,-1.3952,-1.3981,-1.4088,-1.4088,-1.4088,-1.4088,-1.4088,-1.3881,-1.344,-1.3227,-1.2966,-1.2518,-1.2371,-1.2358,-1.2318,-1.2305,-1.2305,-1.2305,-1.2305,-1.2305,-1.2305,-1.2305,-1.2305,-1.2305,-1.2305,-1.2342,-1.2342,-1.2378,-1.2298,-1.2295,-1.2371,-1.234,-1.2436,-1.1991,-1.2123,-1.226,-1.2403,-1.2711,-1.2951,-1.2997,-1.3199,-1.3666,-1.4094,-1.4371,-0.9819,-0.9819,-0.9819,-0.9819,-0.9819,-0.9819,-0.9686,-0.9459,-0.9398,-0.9242,-0.9028,-0.8957,-0.8937,-0.8881,-0.8937,-0.8885,-0.8999,-0.9965,-1.0679,-1.14,-1.2141,-1.2434,-1.2372,-1.2367,-1.2367,-1.2367,-1.2313,-1.2236,-1.2135,-1.2182,-1.2264,-1.2175,-1.157,-1.1189,-1.1025,-1.0212,-0.9949,-1.0628,-1.0616,-1.1443,-1.306,-1.2544,-1.2475,-1.3002,-1.1982,-1.1126,-1.1037,-1.1419,-1.1999,-1.2581,-1.2047,-1.215,-1.3071,-1.3505,-1.3938,-1.4286,-1.3451,-1.3113,-1.3409,-1.2528,-1.192,-1.2197,-1.2229,-1.2263,-1.2343,-1.248,-1.2699,-1.2897,-1.2575,-1.2523,-1.348,-1.3182,-1.3151,-1.3981,-1.4088,-1.4088,-1.4004,-1.4039,-1.3908,-1.3567,-1.3467,-1.3233,-1.2824,-1.2643,-1.2512,-1.2308,-1.2238,-1.2231,-1.2231,-1.2114,-1.2305,-1.2305,-1.2305,-1.2157,-1.212,-1.2083,-1.2157,-1.2231,-1.2305,-1.2305,-1.2265,-1.2158,-1.2098,-1.1857,-1.1424,-1.1234,-1.1367,-1.1499,-1.1844,-1.2078,-1.2219,-1.2568,-1.3025,-1.3312,-1.3524,-0.9873,-0.9822,-0.9819,-0.9819,-0.9819,-0.9819,-0.972,-0.9488,-0.9069,-0.8974,-0.9024,-0.8708,-0.87,-0.887,-0.9049,-0.9069,-0.9042,-0.9228,-0.9582,-1.0204,-1.0849,-1.1186,-1.1139,-1.119,-1.1215,-1.1232,-1.1231,-1.1261,-1.1261,-1.1265,-1.1261,-1.1098,-1.054,-1.017,-1.0116,-0.9361,-0.9395,-1.0281,-1.0392,-1.1338,-1.2884,-1.2643,-1.2479,-1.2791,-1.1816,-1.089,-1.04,-1.0694,-1.1033,-1.1321,-1.1023,-1.1268,-1.1804,-1.2193,-1.263,-1.2775,-1.2193,-1.1653,-1.2047,-1.097,-1.0676,-1.0921,-1.1068,-1.121,-1.1327,-1.1441,-1.1774,-1.1817,-1.1672,-1.1671,-1.2423,-1.2187,-1.2124,-1.2738,-1.3534,-1.3792,-1.3701,-1.347,-1.3342,-1.3172,-1.3335,-1.3307,-1.3073,-1.2754,-1.2508,-1.2117,-1.1845,-1.1589,-1.1471,-1.1285,-1.136,-1.1366,-1.1136,-1.1248,-1.1744,-1.1855,-1.1966,-1.212,-1.2305,-1.2305,-1.2285,-1.2118,-1.2033,-1.175,-1.1329,-1.1189,-1.1264,-1.0964,-1.1055,-1.1238,-1.1534,-1.1744,-1.2089,-1.2305,-1.2551,-0.9893,-0.9714,-0.9704,-0.9515,-0.9393,-0.939,-0.9306,-0.9274,-0.8504,-0.8431,-0.8852,-0.8347,-0.8355,-0.8907,-0.9235,-0.9273,-0.9268,-0.9381,-0.9429,-0.9493,-0.9581,-0.9529,-0.943,-0.9567,-0.9614,-0.9522,-0.9573,-0.9578,-0.9727,-0.973,-0.9381,-0.9629,-0.9615,-0.9361,-0.9351,-0.9217,-0.9633,-1.0304,-1.0604,-1.1826,-1.3546,-1.358,-1.3302,-1.3325,-1.3008,-1.2029,-1.0592,-1.0203,-0.9871,-0.9426,-0.9957,-1.0293,-1.0489,-1.1214,-1.1604,-1.1702,-1.0632,-1.0194,-0.9805,-0.9164,-0.8726,-0.946,-0.9608,-0.9903,-1.0605,-1.0777,-1.096,-1.0996,-1.0963,-1.1108,-1.1129,-1.0839,-1.0801,-1.1032,-1.229,-1.2924,-1.2656,-1.2339,-1.2197,-1.2338,-1.2909,-1.331,-1.2868,-1.2511,-1.2008,-1.1565,-1.1059,-1.0581,-1.0233,-1.0121,-0.9863,-0.99,-1.0088,-1.0346,-1.0838,-1.095,-1.1025,-1.1248,-1.1589,-1.1811,-1.2114,-1.2108,-1.2,-1.1697,-1.134,-1.1208,-1.1042,-1.0794,-1.062,-1.081,-1.0968,-1.0965,-1.1146,-1.1452,-1.167,-0.9364,-0.8544,-0.8451,-0.7856,-0.706,-0.7184,-0.7261,-0.7188,-0.7162,-0.7568,-0.8119,-0.8041,-0.836,-0.9222,-0.934,-0.9357,-0.9364,-0.9479,-0.9479,-0.9408,-0.9469,-0.9401,-0.9289,-0.9296,-0.932,-0.933,-0.9381,-0.9381,-0.9381,-0.9401,-0.9398,-0.9381,-0.9405,-0.9374,-0.9323,-0.9381,-0.941,-0.9916,-1.153,-1.234,-1.2886,-1.4362,-1.4953,-1.4533,-1.3563,-1.2457,-1.1096,-0.9657,-0.8973,-0.8928,-0.9072,-0.9213,-0.9262,-0.9554,-0.9998,-1.0243,-0.9509,-0.9118,-0.9361,-0.8627,-0.8233,-0.8333,-0.8531,-0.8531,-0.8775,-0.892,-0.9288,-0.9588,-0.9433,-0.9506,-1.0367,-1.0023,-0.9808,-1.0402,-1.1003,-1.1343,-1.1219,-1.1085,-1.1053,-1.1091,-1.1325,-1.1668,-1.1834,-1.1438,-1.0939,-1.0824,-1.0341,-0.9673,-0.9309,-0.9183,-0.9031,-0.9296,-0.9523,-0.9674,-0.9863,-0.9933,-1.0083,-1.0271,-1.0608,-1.1019,-1.1545,-1.2061,-1.1992,-1.1886,-1.1394,-1.1136,-1.0983,-1.0775,-1.0713,-1.0687,-1.0631,-1.0733,-1.0726,-1.0915,-1.0954,-0.9159,-0.8092,-0.7969,-0.7121,-0.6018,-0.6267,-0.6359,-0.6254,-0.6187,-0.6858,-0.767,-0.7584,-0.8195,-0.934,-0.9507,-0.9527,-0.9503,-0.9632,-0.9646,-0.9602,-0.9659,-0.9571,-0.9439,-0.9432,-0.9479,-0.9486,-0.9537,-0.9568,-0.9571,-0.9564,-0.9564,-0.9578,-0.9564,-0.9537,-0.9479,-0.9473,-0.9689,-1.02,-1.1555,-1.2251,-1.2628,-1.365,-1.3965,-1.3697,-1.2826,-1.1909,-1.0776,-0.923,-0.8457,-0.8603,-0.8531,-0.8478,-0.8478,-0.8482,-0.8676,-0.9118,-0.8528,-0.8478,-0.8676,-0.8333,-0.8038,-0.7988,-0.7988,-0.7988,-0.8038,-0.7988,-0.8382,-0.8722,-0.8283,-0.8629,-0.9154,-0.8855,-0.8686,-0.8938,-0.9104,-0.9405,-0.9927,-0.9966,-0.9966,-1.0053,-1.0341,-1.0699,-1.1148,-1.0479,-1.0125,-0.9857,-0.9286,-0.8737,-0.8282,-0.8298,-0.8284,-0.845,-0.8484,-0.8479,-0.877,-0.8955,-0.9216,-0.9405,-0.9556,-1.0002,-1.049,-1.1236,-1.1169,-1.1026,-1.106,-1.1025,-1.0717,-1.0665,-1.0942,-1.0875,-1.0683,-1.0617,-1.0709,-1.0539,-1.0546,-0.9178,-0.7861,-0.7728,-0.6815,-0.5531,-0.5839,-0.5714,-0.5839,-0.5287,-0.604,-0.7193,-0.7086,-0.7736,-0.9267,-0.9493,-0.9744,-0.9639,-0.9744,-0.9791,-0.9785,-0.9785,-0.968,-0.951,-0.9585,-0.9629,-0.9642,-0.9761,-0.9785,-0.9768,-0.9788,-0.9805,-0.9774,-0.9788,-0.9747,-0.9652,-0.9629,-1.013,-1.0597,-1.1131,-1.1725,-1.2179,-1.2616,-1.2743,-1.2394,-1.1695,-1.0954,-1.001,-0.894,-0.8391,-0.8442,-0.8158,-0.8088,-0.8038,-0.8038,-0.8038,-0.8137,-0.8137,-0.8038,-0.8038,-0.8088,-0.7988,-0.7988,-0.7988,-0.7988,-0.7988,-0.7988,-0.8038,-0.8184,-0.7988,-0.8113,-0.8097,-0.7808,-0.7768,-0.7819,-0.7489,-0.7838,-0.8604,-0.8859,-0.8798,-0.8969,-0.9744,-1.0135,-1.0259,-0.9928,-0.9368,-0.911,-0.8481,-0.789,-0.7529,-0.7403,-0.7309,-0.7247,-0.7231,-0.713,-0.7531,-0.7931,-0.8309,-0.8613,-0.8609,-0.8874,-0.9064,-0.9524,-0.9665,-0.9726,-1.0035,-1.0195,-1.0108,-1.0311,-1.0717,-1.0717,-1.03,-1.06,-1.0909,-1.051,-1.0387,-0.854,-0.6258,-0.6339,-0.4981,-0.3082,-0.3206,-0.3512,-0.3758,-0.3638,-0.4424,-0.5515,-0.6202,-0.7157,-0.8262,-0.9169,-0.9802,-0.9643,-0.9744,-0.9819,-0.9819,-0.9819,-0.9798,-0.972,-0.9754,-0.9764,-0.9778,-0.9798,-0.9819,-0.9819,-0.9819,-0.9819,-0.9819,-0.9819,-0.9808,-0.9774,-0.9754,-0.9763,-1.0076,-1.0959,-1.1326,-1.1372,-1.2047,-1.2233,-1.1833,-1.0897,-1.031,-0.9928,-0.9001,-0.847,-0.8391,-0.8187,-0.8025,-0.8008,-0.7995,-0.7988,-0.7988,-0.7988,-0.7988,-0.7988,-0.7988,-0.7988,-0.7988,-0.7988,-0.7988,-0.7988,-0.7988,-0.7988,-0.7988,-0.7985,-0.7994,-0.7902,-0.7818,-0.7692,-0.7556,-0.7417,-0.7451,-0.7705,-0.7656,-0.7628,-0.7705,-0.7878,-0.8141,-0.8842,-0.8337,-0.8037,-0.8159,-0.7773,-0.7125,-0.6867,-0.6732,-0.671,-0.6709,-0.6691,-0.6759,-0.6952,-0.7301,-0.7478,-0.7718,-0.774,-0.7778,-0.797,-0.8257,-0.8567,-0.8874,-0.9201,-0.927,-0.9298,-0.9634,-0.995,-0.9894,-0.9949,-1.0273,-1.0459,-1.0257,-1.0377,-0.7051,-0.572,-0.5192,-0.3779,-0.2038,-0.2159,-0.2281,-0.2343,-0.2651,-0.3389,-0.437,-0.5165,-0.6023,-0.706,-0.8285,-0.89,-0.9086,-0.9576,-0.9819,-0.9819,-0.9819,-0.9819,-0.9819,-0.9819,-0.9819,-0.9819,-0.9819,-0.9819,-0.9819,-0.9819,-0.9819,-0.9819,-0.9819,-0.9819,-0.9819,-0.9819,-0.9785,-0.9854,-1.0311,-1.0415,-0.9793,-1.0019,-1.0232,-0.9987,-0.9574,-0.9518,-0.933,-0.8959,-0.8641,-0.8533,-0.8374,-0.8211,-0.814,-0.8079,-0.7995,-0.7988,-0.7988,-0.7988,-0.7988,-0.7988,-0.7988,-0.7992,-0.7988,-0.7988,-0.7988,-0.7988,-0.7988,-0.7988,-0.7982,-0.8001,-0.7926,-0.7834,-0.777,-0.7702,-0.7567,-0.7458,-0.737,-0.7238,-0.7095,-0.7095,-0.7228,-0.7448,-0.7448,-0.7316,-0.7246,-0.7567,-0.7534,-0.6919,-0.684,-0.6719,-0.6675,-0.6654,-0.6579,-0.6544,-0.6631,-0.6705,-0.6727,-0.6835,-0.6868,-0.6868,-0.6945,-0.731,-0.7702,-0.7974,-0.8165,-0.8463,-0.8541,-0.8893,-0.923,-0.943,-0.9649,-0.9898,-1.0083,-1.0088,-1.0381,-0.5358,-0.5051,-0.422,-0.2936,-0.1607,-0.1727,-0.1727,-0.1665,-0.2035,-0.265,-0.3509,-0.4,-0.4674,-0.559,-0.6813,-0.7426,-0.8041,-0.8775,-0.9204,-0.964,-0.9758,-0.9758,-0.9819,-0.9819,-0.9819,-0.9819,-0.9819,-0.9819,-0.9819,-0.9819,-0.9819,-0.9819,-0.9819,-0.9819,-0.9819,-0.9819,-0.9812,-0.9802,-0.9559,-0.9099,-0.7997,-0.7814,-0.7456,-0.7756,-0.8136,-0.8756,-0.8849,-0.8825,-0.8743,-0.8737,-0.8601,-0.8469,-0.834,-0.8201,-0.8106,-0.8066,-0.8093,-0.8103,-0.8099,-0.8062,-0.8089,-0.8075,-0.7995,-0.7988,-0.7988,-0.7988,-0.7988,-0.7988,-0.7985,-0.7985,-0.7978,-0.7943,-0.7868,-0.7821,-0.7719,-0.7584,-0.7451,-0.7299,-0.7196,-0.7095,-0.7095,-0.7228,-0.7228,-0.7136,-0.7058,-0.695,-0.6923,-0.6879,-0.681,-0.6753,-0.6773,-0.6753,-0.6685,-0.6593,-0.6627,-0.6579,-0.6529,-0.6467,-0.6408,-0.6342,-0.6342,-0.6633,-0.703,-0.6901,-0.7112,-0.743,-0.7796,-0.812,-0.8477,-0.8923,-0.9085,-0.9122,-0.9465,-0.9886,-1.0148,-0.4364,-0.3076,-0.3164,-0.2375,-0.1236,-0.1173,-0.1296,-0.1418,-0.1296,-0.1481,-0.1972,-0.2832,-0.3324,-0.3815,-0.4855,-0.5957,-0.6938,-0.7731,-0.8407,-0.9211,-0.9576,-0.9761,-0.9761,-0.9758,-0.9819,-0.9819,-0.9819,-0.9819,-0.9819,-0.9819,-0.9819,-0.9819,-0.9819,-0.9819,-0.9758,-0.9822,-0.9761,-0.9636,-0.9025,-0.8265,-0.7535,-0.6731,-0.652,-0.703,-0.7556,-0.8224,-0.8927,-0.8964,-0.8844,-0.8886,-0.8754,-0.8676,-0.8611,-0.8492,-0.8411,-0.837,-0.8364,-0.835,-0.8347,-0.8286,-0.8245,-0.8204,-0.8126,-0.7998,-0.7992,-0.7988,-0.7988,-0.7988,-0.7988,-0.7988,-0.7988,-0.7944,-0.7948,-0.7911,-0.7823,-0.776,-0.7699,-0.7584,-0.7358,-0.7203,-0.7149,-0.7095,-0.7095,-0.7095,-0.7058,-0.7024,-0.7014,-0.7007,-0.7,-0.6973,-0.694,-0.6943,-0.6881,-0.6783,-0.6705,-0.662,-0.6518,-0.6496,-0.6434,-0.6359,-0.6313,-0.6303,-0.6349,-0.6468,-0.6465,-0.6663,-0.7,-0.7365,-0.7488,-0.7748,-0.7995,-0.8261,-0.8599,-0.8944,-0.9026,-0.2692,-0.2481,-0.2149,-0.1502,-0.0804,-0.0741,-0.0741,-0.074,-0.0741,-0.0802,-0.1111,-0.1666,-0.1973,-0.2281,-0.3263,-0.4611,-0.5712,-0.6811,-0.7487,-0.8163,-0.9025,-0.9518,-0.9579,-0.97,-0.9758,-0.9819,-0.9819,-0.9819,-0.9819,-0.9819,-0.9829,-0.9819,-0.9819,-0.9697,-0.9579,-0.9518,-0.9582,-0.9335,-0.8903,-0.798,-0.6989,-0.5941,-0.6131,-0.6505,-0.7715,-0.8638,-0.906,-0.9218,-0.9167,-0.914,-0.9022,-0.8954,-0.8893,-0.8798,-0.8645,-0.8533,-0.8496,-0.8542,-0.8482,-0.8408,-0.8405,-0.832,-0.8194,-0.8119,-0.8012,-0.7988,-0.7995,-0.7988,-0.7988,-0.7988,-0.7988,-0.7988,-0.7988,-0.7978,-0.7917,-0.7847,-0.7821,-0.775,-0.7587,-0.7344,-0.7336,-0.7265,-0.7095,-0.7095,-0.7095,-0.7095,-0.7098,-0.7095,-0.7095,-0.7078,-0.7055,-0.7024,-0.6953,-0.6866,-0.6778,-0.6722,-0.66,-0.6566,-0.6484,-0.6409,-0.6337,-0.633,-0.631,-0.6321,-0.6296,-0.6323,-0.6409,-0.68,-0.6687,-0.6695,-0.7262,-0.7746,-0.781,-0.7968,-0.8074,-0.1021,-0.1954,-0.1136,-0.0626,-0.0433,-0.0432,-0.0247,-0.0062,-0.0309,-0.0432,-0.0432,-0.0679,-0.0803,-0.1049,-0.1911,-0.3017,-0.4366,-0.5468,-0.6141,-0.7123,-0.8105,-0.8842,-0.9275,-0.9518,-0.964,-0.964,-0.9758,-0.9819,-0.9832,-0.9866,-0.9812,-0.9825,-0.9873,-0.9683,-0.9451,-0.9422,-0.9291,-0.9156,-0.8909,-0.7797,-0.6406,-0.5804,-0.5917,-0.6075,-0.7991,-0.9029,-0.9418,-0.9367,-0.9347,-0.932,-0.9256,-0.9248,-0.9234,-0.9089,-0.8848,-0.8619,-0.8541,-0.8574,-0.8574,-0.8537,-0.8492,-0.8414,-0.8391,-0.8248,-0.8123,-0.8086,-0.7982,-0.7949,-0.7839,-0.7839,-0.7842,-0.7892,-0.7939,-0.7988,-0.7978,-0.7948,-0.7916,-0.7845,-0.779,-0.7638,-0.7529,-0.7428,-0.7336,-0.7224,-0.7241,-0.72,-0.72,-0.7098,-0.7095,-0.7095,-0.7082,-0.7088,-0.7041,-0.6964,-0.6896,-0.6849,-0.6776,-0.6681,-0.6586,-0.6495,-0.6439,-0.6364,-0.6351,-0.6344,-0.6368,-0.6385,-0.6347,-0.6323,-0.6426,-0.6648,-0.6992,-0.7145,-0.7151,-0.7262,-0.7401,-0.0126,0.0,0.0,-0.0063,0.0,0.0,0.0,0.0,0.0,-0.0062,0.0,0.0,0.0,0.0,0.0,0.0,-0.2218,-0.3139,-0.4364,-0.5837,-0.6818,-0.7678,-0.8665,-0.9217,-0.9025,-0.9086,-0.9454,-0.9758,-0.9778,-0.9872,-0.9943,-0.994,-0.992,-0.9836,-0.9578,-0.9361,-0.9159,-0.8857,-0.8116,-0.715,-0.6234,-0.5968,-0.655,-0.7231,-0.7948,-0.858,-0.9429,-0.9496,-0.9429,-0.9408,-0.9381,-0.9354,-0.9354,-0.9405,-0.9074,-0.8868,-0.8749,-0.8828,-0.8726,-0.8693,-0.8608,-0.8534,-0.8523,-0.8459,-0.8319,-0.8074,-0.7883,-0.765,-0.75,-0.7444,-0.7596,-0.7643,-0.7739,-0.7889,-0.7939,-0.7935,-0.7944,-0.7897,-0.784,-0.78,-0.7726,-0.7662,-0.7587,-0.7455,-0.7388,-0.7295,-0.7251,-0.7204,-0.7125,-0.7197,-0.7102,-0.7098,-0.7095,-0.7028,-0.6994,-0.695,-0.6873,-0.682,-0.6732,-0.6627,-0.6525,-0.648,-0.6426,-0.6426,-0.6463,-0.647,-0.6436,-0.6419,-0.6405,-0.6516,-0.6749,-0.6624,-0.6409,-0.6577,-0.6877,0.0,0.0,0.0,0.0,0.0,0.0,0.0,0.0,0.0,0.0,0.0,0.0,0.0,0.0,0.0,0.0,-0.0987,-0.1787,-0.2709,-0.406,-0.4977,-0.5835,-0.6204,-0.6696,-0.7062,-0.7928,-0.8346,-0.8897,-0.9297,-0.971,-0.9889,-0.9977,-0.9926,-0.9829,-0.9635,-0.9283,-0.911,-0.8764,-0.803,-0.7228,-0.689,-0.6936,-0.7296,-0.7843,-0.8447,-0.9121,-0.9496,-0.9683,-0.9632,-0.9612,-0.9568,-0.951,-0.9401,-0.9252,-0.8892,-0.888,-0.8492,-0.8383,-0.8361,-0.8481,-0.8529,-0.851,-0.8538,-0.8574,-0.8447,-0.8167,-0.7914,-0.7778,-0.7509,-0.7374,-0.7363,-0.7391,-0.7441,-0.754,-0.7739,-0.7793,-0.7842,-0.7988,-0.7948,-0.7917,-0.788,-0.7806,-0.7725,-0.7601,-0.7529,-0.7475,-0.7444,-0.7414,-0.7366,-0.7343,-0.7258,-0.7102,-0.7098,-0.7082,-0.7065,-0.7038,-0.696,-0.6922,-0.6885,-0.6776,-0.6661,-0.658,-0.6532,-0.6573,-0.6668,-0.663,-0.6569,-0.6559,-0.6542,-0.6505,-0.6454,-0.643,-0.6403,-0.6452,-0.6624,0.0,0.0,0.0,0.0,0.0,0.0,0.0,0.0,0.0,0.0,0.0,0.0,0.0,0.0,0.0,0.0,-0.0123,-0.1048,-0.1665,-0.2341,-0.3139,-0.3996,-0.461,-0.4855,-0.5419,-0.6298,-0.6619,-0.7442,-0.8397,-0.8974,-0.9224,-0.9978,-0.9985,-0.9827,-0.9592,-0.9238,-0.8905,-0.8777,-0.8111,-0.7808,-0.7914,-0.8097,-0.8279,-0.865,-0.9207,-0.9819,-0.9819,-0.9808,-0.9805,-0.9781,-0.9597,-0.9483,-0.945,-0.9104,-0.8774,-0.8641,-0.8359,-0.8158,-0.8171,-0.8279,-0.8381,-0.8484,-0.854,-0.871,-0.8524,-0.8272,-0.8006,-0.7972,-0.7494,-0.7334,-0.7264,-0.7219,-0.7188,-0.7291,-0.749,-0.7543,-0.7593,-0.7739,-0.7889,-0.7965,-0.7895,-0.7912,-0.7821,-0.7717,-0.763,-0.7662,-0.7631,-0.7614,-0.755,-0.7475,-0.7366,-0.7234,-0.7119,-0.7112,-0.7098,-0.7075,-0.7011,-0.6984,-0.695,-0.6922,-0.6803,-0.6742,-0.6709,-0.6783,-0.6861,-0.6824,-0.6715,-0.6719,-0.6715,-0.6634,-0.6573,-0.6583,-0.6566,-0.6529,-0.6508,0.0,0.0,0.0,0.0,0.0,0.0,0.0,0.0,0.0,0.0,0.0,0.0,0.0,0.0,0.0,0.0,0.0,0.0,-0.0864,-0.1603,-0.2219,-0.2709,-0.3262,-0.3757,-0.4268,-0.4624,-0.4939,-0.5859,-0.6948,-0.7329,-0.8505,-0.9942,-0.9694,-0.9687,-0.946,-0.9117,-0.8736,-0.8711,-0.8332,-0.8561,-0.8851,-0.9089,-0.9211,-0.9515,-0.9697,-0.9819,-0.9819,-0.97,-0.97,-0.97,-0.9431,-0.9297,-0.9207,-0.8963,-0.8602,-0.8429,-0.8341,-0.8154,-0.8094,-0.8236,-0.8488,-0.8582,-0.8673,-0.8784,-0.8662,-0.8427,-0.8248,-0.8072,-0.7574,-0.7325,-0.725,-0.7134,-0.6983,-0.7039,-0.7188,-0.7391,-0.7444,-0.7543,-0.769,-0.7842,-0.7842,-0.7739,-0.7739,-0.7579,-0.7726,-0.7762,-0.7753,-0.7729,-0.7628,-0.755,-0.7458,-0.7346,-0.7224,-0.7132,-0.7112,-0.7082,-0.7051,-0.7068,-0.7065,-0.6991,-0.6939,-0.6862,-0.6929,-0.6868,-0.6912,-0.6866,-0.6873,-0.6859,-0.6812,-0.6746,-0.6702,-0.6746,-0.6712,-0.6651,-0.6576,0.0,0.0,0.0,0.0,0.0,0.0,0.0,0.0,0.0,0.0,0.0,0.0,0.0,0.0,0.0,0.0,0.0,0.0,0.0,0.0,-0.0864,0.0,0.0,0.0,-0.2048,-0.2826,-0.3338,-0.4118,-0.5321,-0.5637,-0.6114,-0.7226,-0.859,-0.945,-0.94,-0.9042,-0.8793,-0.8733,-0.8732,-0.9011,-0.922,-0.9518,-0.9636,-0.9758,-0.9579,-0.9518,-0.9457,-0.9339,-0.9278,-0.9217,-0.9095,-0.9037,-0.8961,-0.8669,-0.8464,-0.8317,-0.8278,-0.8184,-0.813,-0.8344,-0.8549,-0.8712,-0.8819,-0.8858,-0.8787,-0.8568,-0.8391,-0.8072,-0.7715,-0.7419,-0.7198,-0.6938,-0.669,-0.677,-0.6945,-0.7206,-0.7303,-0.7359,-0.749,-0.7643,-0.754,-0.7388,-0.7388,-0.7378,-0.7644,-0.7809,-0.7801,-0.7786,-0.7743,-0.7655,-0.7573,-0.7485,-0.737,-0.7302,-0.7282,-0.7221,-0.7112,-0.7149,-0.7189,-0.7139,-0.7132,-0.7187,-0.7183,-0.7082,-0.6997,-0.6994,-0.7018,-0.7014,-0.6937,-0.6837,-0.6858,-0.6946,-0.6878,-0.678,-0.6702,0.0,0.0,0.0,0.0,0.0,0.0,0.0,0.0,0.0,0.0,0.0,0.0,0.0,0.0,0.0,0.0,0.0,0.0,0.0,0.0,0.0,0.0,0.0,0.0,-0.0822,0.0,0.0,-0.2446,-0.3723,-0.4015,-0.462,-0.5531,-0.6747,-0.7873,-0.8898,-0.913,-0.9018,-0.8983,-0.895,-0.9153,-0.9413,-0.9541,-0.97,-0.97,-0.9518,-0.9335,-0.9278,-0.9156,-0.8976,-0.8915,-0.8854,-0.8735,-0.8581,-0.8427,-0.8294,-0.8262,-0.8318,-0.8272,-0.8472,-0.8563,-0.8713,-0.892,-0.9015,-0.8991,-0.8895,-0.8712,-0.8581,-0.8471,-0.7973,-0.7603,-0.74,-0.7174,-0.6872,-0.697,-0.6943,-0.7086,-0.7107,-0.7145,-0.7266,-0.7444,-0.7241,-0.7138,-0.7238,-0.7288,-0.7431,-0.766,-0.7737,-0.7789,-0.7843,-0.7807,-0.7726,-0.7634,-0.7529,-0.7478,-0.748,-0.739,-0.7356,-0.7377,-0.7404,-0.7387,-0.737,-0.7407,-0.7373,-0.7248,-0.719,-0.7162,-0.7166,-0.7214,-0.7075,-0.6905,-0.6966,-0.6994,-0.697,-0.6873,-0.6809,0.0,0.0,0.0,0.0,0.0,0.0,0.0,0.0,0.0,0.0,0.0,0.0,0.0,0.0,0.0,0.0,0.0,0.0,0.0,0.0,0.0,0.0,0.0,0.0,0.0,0.0,0.0,-0.1183,-0.214,-0.2273,-0.2944,-0.388,-0.4931,-0.614,-0.756,-0.8796,-0.9326,-0.9349,-0.8937,-0.9168,-0.9255,-0.9355,-0.9683,-0.964,-0.9211,-0.8967,-0.9156,-0.8607,-0.8485,-0.8671,-0.8488,-0.843,-0.8358,-0.8105,-0.8102,-0.8346,-0.8483,-0.8715,-0.905,-0.8978,-0.9028,-0.9171,-0.913,-0.9069,-0.8981,-0.8885,-0.8819,-0.8704,-0.8426,-0.8192,-0.7943,-0.7615,-0.7331,-0.7041,-0.701,-0.7027,-0.7052,-0.694,-0.7065,-0.7139,-0.7009,-0.6892,-0.7089,-0.7188,-0.7291,-0.7437,-0.754,-0.7673,-0.7839,-0.7894,-0.7858,-0.7787,-0.7689,-0.7628,-0.7587,-0.7573,-0.756,-0.7577,-0.7567,-0.7543,-0.7516,-0.7506,-0.7455,-0.738,-0.7366,-0.7366,-0.7366,-0.7412,-0.7251,-0.7153,-0.7011,-0.7031,-0.7024,-0.7004,-0.6937,0.0,0.0,0.0,0.0,0.0,0.0,0.0,0.0,0.0,0.0,0.0,0.0,0.0,0.0,0.0,0.0,0.0,0.0,0.0,0.0,0.0,0.0,0.0,0.0,0.0,0.0,0.0,0.0,-0.0739,0.0,0.0,-0.1882,-0.3492,-0.4766,-0.5834,-0.6664,-0.6775,-0.7103,-0.7659,-0.8342,-0.8563,-0.9181,-0.961,-0.9585,-0.8599,-0.8355,-0.879,-0.8061,-0.7766,-0.8255,-0.8197,-0.8133,-0.813,-0.7941,-0.8058,-0.8369,-0.8606,-0.9026,-0.9382,-0.949,-0.9436,-0.9381,-0.9286,-0.9221,-0.9086,-0.8981,-0.8954,-0.8888,-0.8686,-0.8442,-0.817,-0.792,-0.7639,-0.722,-0.7157,-0.7157,-0.7125,-0.683,-0.6774,-0.685,-0.6825,-0.6676,-0.6709,-0.6842,-0.6989,-0.7144,-0.7294,-0.7497,-0.767,-0.7869,-0.7921,-0.7874,-0.7851,-0.778,-0.7733,-0.762,-0.7539,-0.7519,-0.758,-0.7678,-0.7651,-0.7584,-0.759,-0.7543,-0.7533,-0.7522,-0.7522,-0.7519,-0.7506,-0.7434,-0.7282,-0.7136,-0.7132,-0.7109,-0.7051,0.0,0.0,0.0,0.0,0.0,0.0,0.0,0.0,0.0,0.0,0.0,0.0,0.0,0.0,0.0,0.0,0.0,0.0,0.0,0.0,0.0,0.0,0.0,0.0,0.0,0.0,0.0,0.0,0.0,0.0,0.0,-0.1211,-0.2286,-0.3294,-0.4298,-0.5091,-0.6078,-0.6421,-0.6958,-0.7255,-0.7511,-0.7924,-0.8346,-0.8016,-0.7492,-0.7189,-0.7697,-0.7472,-0.6943,-0.7683,-0.7993,-0.7993,-0.7929,-0.7958,-0.8127,-0.8488,-0.8973,-0.9393,-0.9687,-0.9744,-0.9626,-0.9571,-0.9453,-0.935,-0.9303,-0.9167,-0.9133,-0.9047,-0.8811,-0.8745,-0.8556,-0.8297,-0.7991,-0.7621,-0.7256,-0.7256,-0.6993,-0.6697,-0.652,-0.6649,-0.6776,-0.6615,-0.6446,-0.6453,-0.6589,-0.6792,-0.6995,-0.7147,-0.7297,-0.764,-0.7736,-0.7598,-0.7622,-0.7566,-0.7573,-0.756,-0.7521,-0.7472,-0.7536,-0.7717,-0.7614,-0.7546,-0.7603,-0.7658,-0.7546,-0.7533,-0.7628,-0.7668,-0.7597,-0.7513,-0.7414,-0.7336,-0.7302,-0.7261,-0.7224,0.0,0.0,0.0,0.0,0.0,0.0,0.0,0.0,0.0,0.0,0.0,0.0,0.0,0.0,0.0,0.0,0.0,0.0,0.0,0.0,0.0,0.0,0.0,0.0,0.0,0.0,0.0,0.0,0.0,0.0,0.0,-0.101,-0.175,-0.2356,-0.3294,-0.4297,-0.5292,-0.5401,-0.5831,-0.6017,-0.6186,-0.6345,-0.6643,-0.6386,-0.5974,-0.6407,-0.6865,-0.685,-0.7336,-0.7859,-0.8244,-0.8179,-0.8078,-0.794,-0.8331,-0.879,-0.9335,-0.9579,-0.9697,-0.97,-0.9815,-0.9727,-0.9656,-0.954,-0.9422,-0.9337,-0.9289,-0.9262,-0.9158,-0.9181,-0.908,-0.8769,-0.8406,-0.7941,-0.7489,-0.7179,-0.6861,-0.6577,-0.6401,-0.6471,-0.6663,-0.6665,-0.6527,-0.6516,-0.5908,-0.5984,-0.6035,-0.5854,-0.6203,-0.7191,-0.7235,-0.6983,-0.7068,-0.7276,-0.7298,-0.7408,-0.7396,-0.7345,-0.7534,-0.7661,-0.7605,-0.7478,-0.7482,-0.7446,-0.744,-0.7437,-0.7485,-0.7562,-0.7677,-0.7577,-0.7419,-0.7426,-0.7396,-0.7421,-0.739,0.0,0.0,0.0,0.0,0.0,0.0,0.0,0.0,0.0,0.0,0.0,0.0,0.0,0.0,0.0,0.0,0.0,0.0,0.0,0.0,0.0,0.0,0.0,0.0,0.0,0.0,0.0,0.0,0.0,-0.0401,-0.0874,-0.1414,-0.1751,-0.202,-0.2423,-0.3026,-0.3427,-0.3825,-0.4407,-0.456,-0.4829,-0.5144,-0.532,-0.5254,-0.4513,-0.5322,-0.6676,-0.615,-0.6764,-0.8292,-0.8306,-0.816,-0.8111,-0.8078,-0.8296,-0.8561,-0.9034,-0.9457,-0.9457,-0.964,-0.9761,-0.9758,-0.9707,-0.9693,-0.9571,-0.9473,-0.9418,-0.9408,-0.9374,-0.933,-0.93,-0.906,-0.8562,-0.7965,-0.7349,-0.6695,-0.6201,-0.5416,-0.5364,-0.5941,-0.6195,-0.6288,-0.6213,-0.5654,-0.5145,-0.5103,-0.4965,-0.4741,-0.4909,-0.5904,-0.6584,-0.6334,-0.6484,-0.6686,-0.7086,-0.7257,-0.7217,-0.7276,-0.7437,-0.749,-0.7363,-0.7288,-0.7332,-0.7316,-0.7291,-0.7307,-0.7328,-0.7396,-0.7495,-0.7491,-0.7443,-0.7481,-0.7478,-0.7453,-0.7413,0.0,0.0,0.0,0.0,0.0,0.0,0.0,0.0,0.0,0.0,0.0,0.0,0.0,0.0,0.0,0.0,0.0,0.0,0.0,0.0,0.0,0.0,0.0,0.0,0.0,0.0,0.0,0.0,0.0,-0.0529,-0.1002,-0.1548,-0.1885,-0.202,-0.2222,-0.2423,-0.2357,-0.2422,-0.255,-0.2731,-0.3031,-0.3321,-0.3274,-0.3726,-0.2931,-0.4376,-0.6482,-0.5628,-0.6714,-0.8472,-0.8562,-0.825,-0.8185,-0.8174,-0.8223,-0.8494,-0.8854,-0.9095,-0.9153,-0.9278,-0.946,-0.9579,-0.9636,-0.9654,-0.9657,-0.9635,-0.9605,-0.9581,-0.952,-0.9466,-0.9445,-0.9288,-0.859,-0.7849,-0.6956,-0.6073,-0.5106,-0.4103,-0.4466,-0.5164,-0.5452,-0.5609,-0.5354,-0.4744,-0.4291,-0.4147,-0.3865,-0.3493,-0.3604,-0.4166,-0.505,-0.5432,-0.5784,-0.6137,-0.6495,-0.6706,-0.6695,-0.6742,-0.7188,-0.7188,-0.7089,-0.6983,-0.6915,-0.7018,-0.7126,-0.7129,-0.7123,-0.7176,-0.7257,-0.7288,-0.7341,-0.7297,-0.7291,-0.7273,-0.7254,0.0,0.0,0.0,0.0,0.0,0.0,0.0,0.0,0.0,0.0,0.0,0.0,0.0,0.0,0.0,0.0,0.0,0.0,0.0,0.0,0.0,0.0,0.0,0.0,0.0,0.0,0.0,0.0,0.0,-0.0457,-0.0936,-0.1548,-0.1548,-0.1683,-0.1885,-0.1953,-0.1885,-0.1818,-0.1277,-0.087,-0.0597,0.0,0.0651,-0.0511,-0.114,-0.2212,-0.4951,-0.6149,-0.661,-0.8182,-0.887,-0.8369,-0.8265,-0.82,-0.8287,-0.8436,-0.8671,-0.8793,-0.8851,-0.8976,-0.9095,-0.9217,-0.9278,-0.9387,-0.9472,-0.969,-0.972,-0.9526,-0.941,-0.9023,-0.8882,-0.8307,-0.7573,-0.6732,-0.5813,-0.4847,-0.3881,-0.3215,-0.341,-0.4006,-0.4357,-0.4537,-0.4637,-0.4021,-0.3238,-0.3101,-0.2609,-0.2128,0.0,0.0,-0.3335,-0.4221,-0.469,-0.5054,-0.5346,-0.5599,-0.5861,-0.615,-0.6503,-0.6284,-0.5682,-0.5987,-0.6492,-0.6389,-0.6287,-0.6786,-0.6933,-0.6936,-0.6986,-0.7089,-0.7089,-0.7138,-0.7084,-0.7058,-0.7052,0.0,0.0,0.0,0.0,0.0,0.0,0.0,0.0,0.0,0.0,0.0,0.0,0.0,0.0,0.0,0.0,0.0,0.0,0.0,0.0,0.0,0.0,0.0,0.0,0.0,0.0,0.0,-0.0129,-0.0323,-0.0526,-0.067,-0.1144,-0.1212,-0.1346,-0.1481,-0.1481,-0.1414,-0.1414,-0.0673,-0.0202,-0.0201,0.0133,0.0394,-0.0131,-0.0716,-0.2395,-0.4743,-0.628,-0.7391,-0.8783,-0.8739,-0.8435,-0.8244,-0.807,-0.8016,-0.8058,-0.8372,-0.8503,-0.8555,-0.868,-0.887,-0.8915,-0.8976,-0.9037,-0.9217,-0.9579,-0.9633,-0.938,-0.9057,-0.8612,-0.8101,-0.7334,-0.6448,-0.5493,-0.4618,-0.3634,-0.2669,-0.2525,-0.2441,-0.2812,-0.3235,-0.3391,-0.3552,-0.3148,-0.2416,-0.1748,-0.1034,0.0,0.0,0.0,0.0,-0.2458,-0.3308,-0.3761,-0.4159,-0.4484,-0.4767,-0.4841,-0.4989,-0.4714,-0.4332,-0.463,-0.4983,-0.5186,-0.5336,-0.5784,-0.6184,-0.6537,-0.6587,-0.6789,-0.6839,-0.6839,-0.6789,-0.6784,-0.6802,0.0,0.0,0.0,0.0,0.0,0.0,0.0,0.0,0.0,0.0,0.0,0.0,0.0,0.0,0.0,0.0,0.0,0.0,0.0,0.0,0.0,0.0,0.0,0.0,0.0,0.0,0.0,-0.0128,-0.0389,-0.0395,-0.0467,-0.0941,-0.101,-0.0875,-0.101,-0.1077,-0.1077,-0.1077,-0.0337,-0.0135,-0.0067,0.0668,0.1254,0.0856,-0.059,-0.2557,-0.4599,-0.6335,-0.7632,-0.8522,-0.8659,-0.8418,-0.8242,-0.8065,-0.8002,-0.7971,-0.8097,-0.8239,-0.8275,-0.8404,-0.8594,-0.8631,-0.7936,-0.7694,-0.7645,-0.7948,-0.8334,-0.8136,-0.798,-0.7591,-0.7162,-0.6528,-0.5147,-0.4023,-0.3405,-0.267,-0.1704,-0.1106,-0.1496,-0.2219,-0.2261,-0.1914,-0.1964,-0.1727,0.0,0.0,0.0,0.0,0.0,0.0,0.0,-0.0916,-0.1889,-0.285,-0.3503,-0.3665,-0.3649,-0.3628,-0.3612,-0.3675,-0.365,-0.3484,-0.3476,-0.3887,-0.4291,-0.4682,-0.5083,-0.5534,-0.6184,-0.6487,-0.6537,-0.6487,-0.6439,-0.6339,-0.6489,0.0,0.0,0.0,0.0,0.0,0.0,0.0,0.0,0.0,0.0,0.0,0.0,0.0,0.0,0.0,0.0,0.0,0.0,0.0,0.0,0.0,0.0,0.0,0.0,0.0,0.0,0.0,0.0,-0.0323,-0.0262,-0.0331,-0.0804,-0.0739,-0.0605,-0.0875,-0.0943,-0.0875,-0.0808,-0.0471,-0.0134,0.0605,0.148,0.1662,0.1053,-0.0327,-0.2901,-0.4885,-0.6609,-0.7845,-0.8231,-0.8624,-0.8459,-0.8272,-0.8125,-0.8016,-0.8018,-0.8007,-0.8055,-0.8038,-0.8096,-0.8254,-0.8036,-0.691,-0.633,-0.6335,-0.6277,-0.6614,-0.6529,-0.6379,-0.6348,-0.598,-0.5091,-0.3653,-0.2667,-0.2173,0.0,0.0,0.0,0.0,0.0,0.0,0.0,0.0,0.0,0.0,0.0,0.0,0.0,0.0,0.0,0.0,0.0,-0.0977,-0.1829,0.0,0.0,0.0,-0.2434,-0.242,-0.2741,-0.2865,-0.2364,-0.2308,-0.2843,-0.3245,-0.3547,-0.4036,-0.4531,-0.5233,-0.5789,-0.5482,-0.5231,-0.5434,-0.5434,-0.5989,0.0,0.0,0.0,0.0,0.0,0.0,0.0,0.0,0.0,0.0,0.0,0.0,0.0,0.0,0.0,0.0,0.0,0.0,0.0,0.0,0.0,0.0,0.0,0.0,0.0,0.0,0.0,0.0,0.0,-0.0195,-0.0131,-0.0403,-0.0465,-0.0333,-0.0269,-0.0337,-0.0471,-0.0471,-0.0403,-0.0067,0.0866,0.1204,0.0608,-0.0202,-0.1408,-0.364,-0.5672,-0.7522,-0.8246,-0.8546,-0.8555,-0.8421,-0.8318,-0.8187,-0.8068,-0.807,-0.8056,-0.7934,-0.7937,-0.8016,-0.8127,-0.7747,-0.6651,-0.5486,-0.5083,-0.4147,-0.426,-0.4007,-0.4048,-0.451,-0.4119,-0.2781,-0.1472,-0.1227,-0.0796,0.0,0.0,0.0,0.0,0.0,0.0,0.0,0.0,0.0,0.0,0.0,0.0,0.0,0.0,0.0,0.0,0.0,0.0,0.0,0.0,0.0,0.0,0.0,-0.1288,-0.169,-0.1626,-0.095,-0.1051,-0.17,-0.205,-0.2357,-0.2853,-0.3488,-0.3788,-0.4191,-0.3879,-0.3725,-0.4078,-0.4529,-0.5033]},{"header":{"parameterUnit":"m.s-1","parameterCategory":1,"la1":31.0,"la2":29.5877,"lo1":-88.7671,"lo2":-86.6584,"dy":0.0162,"dx":0.0185,"nx":115,"ny":88,"refTime":"2023-10-26T12:00:00:Z","depth":0,"parameterNumber":3,"parameterNumberName":"V-component_of_WINDS"},"data":[0.0,0.0,0.0,0.0,0.0,0.0,0.0,0.0,0.0,0.0,0.0,0.0,0.0,0.0,0.0,0.0,0.0,0.0,0.0,0.0,0.0,0.0,0.0,0.0,0.0,0.0,0.0,0.0,0.0,0.0,0.0,0.0,0.0,0.0,0.0,0.0,0.0,0.0,0.0,0.0,0.0,0.0,0.0,0.0,0.0,0.0,0.0,0.0,0.0,0.0,0.0,0.0,0.0,0.0,0.0,0.0,0.0,0.0,0.0,0.0,0.0,0.0,0.0,0.0,0.0,0.0,0.0,0.0,0.0,0.0,0.0,0.0,0.0,0.0,0.0,0.0,0.0,0.0,0.0,0.0,0.0,0.0,0.0,0.0,0.0,0.0,0.0,0.0,0.0,0.0,0.0,0.0,0.0,0.0,0.0,0.0,0.0,0.0,0.0,0.0,0.0,0.0,0.0,0.0,0.0,0.0,0.0,0.0,0.0,0.0,0.0,0.0,0.0,0.0,0.0,0.0,0.0,0.0,0.0,0.0,0.0,0.0,0.0,0.0,0.0,0.0,0.0,0.0,0.0,0.0,0.0,0.0,0.0,0.0,0.0,0.0,0.0,0.0,0.0,0.0,0.0,0.0,0.0,0.0,0.0,0.0,0.0,0.0,0.0,0.0,0.0,0.0,0.0,0.0,0.0,0.0,0.0,0.0,0.0,0.0,0.0,0.0,0.0,0.0,0.0,0.0,0.0,0.0,0.0,0.0,0.0,0.0,0.0,0.0,0.0,0.0,0.0,0.0,0.0,0.0,0.0,0.0,0.0,0.0,0.0,0.0,0.0,0.0,0.0,0.0,0.0,0.0,0.0,0.0,0.0,0.0,0.0,0.0,0.0,0.0,0.0,0.0,0.0,0.0,0.0,0.0,0.0,0.0,0.0,0.0,0.0,0.0,0.0,0.0,0.0,0.0,0.0,0.0,0.0,0.0,0.0,0.0,0.0,0.0,0.0,0.0,0.0,0.0,0.0,0.0,0.0,0.0,0.0,0.0,0.0,0.0,0.0,0.0,0.0,0.0,0.0,0.0,0.0,0.0,0.0,0.0,0.0,0.0,0.0,0.0,0.0,0.0,0.0,0.0,0.0,0.0,0.0,0.0,0.0,0.0,0.0,0.0,0.0,0.0,0.0,0.0,0.0,0.0,0.0,0.0,0.0,0.0,0.0,0.0,0.0,0.0,0.0,0.0,0.0,0.0,0.0,0.0,0.0,0.0,0.0,0.0,0.0,0.0,0.0,0.0,0.0,0.0,0.0,0.0,0.0,0.0,0.0,0.0,0.0,0.0,0.0,0.0,0.0,0.0,0.0,0.0,0.0,0.0,0.0,0.0,0.0,0.0,0.0,0.0,0.0,0.0,0.0,0.0,0.0,0.0,0.0,0.0,0.0,0.0,0.0,0.0,0.0,0.0,0.0,0.0,0.0,0.0,0.0,0.0,0.0,0.0,0.0,0.0,0.0,0.0,0.0,0.0,0.0,0.0,0.0,0.0,0.0,0.0,0.0,0.0,0.0,0.0,0.0,0.0,0.0,0.0,0.0,0.0,0.0,0.0,0.0,0.0,0.0,0.0,0.0,0.0,0.0,0.0,0.0,0.0,0.0,0.0,0.0,0.0,0.0,0.0,0.0,0.0,0.0,0.0,0.0,0.0,0.0,0.0,0.0,0.0,0.0,0.0,0.0,0.0,0.0,0.0,0.0,0.0,0.0,0.0,0.0,0.0,0.0,0.0,0.0,0.0,0.0,0.0,0.0,0.0,0.0,0.0,0.0,0.0,0.0,0.0,0.0,0.0,0.0,0.0,0.0,0.0,0.0,0.0,0.0,0.0,0.0,0.0,0.0,0.0,0.0,0.0,0.0,0.0,0.0,0.0,0.0,0.0,0.0,0.0,0.0,0.0,0.0,0.0,0.0,0.0,0.0,0.0,0.0,0.0,0.0,0.0,0.0,0.0,0.0,0.0,0.0,0.0,0.0,0.0,0.0,0.0,0.0,0.0,0.0,0.0,0.0,0.0,0.0,0.0,0.0,0.0,0.0,0.0,0.0,0.0,0.0,0.0,0.0,0.0,0.0,0.0,0.0,0.0,0.0,0.0,0.0,0.0,0.0,0.0,0.0,0.0,0.0,0.0,0.0,0.0,0.0,0.0,0.0,0.0,0.0,0.0,0.0,0.0,0.0,0.0,0.0,0.0,0.0,0.0,0.0,0.0,0.0,0.0,0.0,0.0,0.0,0.0,0.0,0.0,0.0,0.0,0.0,0.0,0.0,0.0,0.0,0.0,0.0,0.0,0.0,0.0,0.0,0.0,0.0,0.0,0.0,0.0,0.0,0.0,0.0,0.0,0.0,0.0,0.0,0.0,0.0,0.0,0.0,0.0,0.0,0.0,0.0,0.0,0.0,0.0,0.0,0.0,0.0,0.0,0.0,0.0,0.0,0.0,0.0,0.0,0.0,0.0,0.0,0.0,0.0,0.0,0.0,0.0,0.0,0.0,0.0,0.0,0.0,0.0,0.0,0.0,0.0,0.0,0.0,0.0,0.0,0.0,0.0,0.0,0.0,0.0,0.0,0.0,0.0,0.0,0.0,0.0,0.0,0.0,0.0,0.0,0.0,0.0,0.0,0.0,0.0,0.0,0.0,0.0,0.0,0.0,0.0,0.0,0.0,0.0,0.0,0.0,0.0,0.0,0.0,0.0,0.0,0.0,0.0,0.0,0.0,0.0,0.0,0.0,0.0,0.0,0.0,0.0,0.0,0.0,0.0,0.0,0.0,0.0,0.0,0.0,0.0,0.0,0.0,0.0,0.0,0.0,0.0,0.0,0.0,0.0,0.0,0.0,0.0,0.0,0.0,0.0,0.0,0.0,0.0,0.0,0.0,0.0,0.0,0.0,0.0,0.0,0.0,0.0,0.0,0.0,0.0,0.0,0.0,0.0,0.0,0.0,0.0,0.0,0.0,0.0,0.0,0.0,0.0,0.0,0.0,0.0,0.0,0.0,0.0,0.0,0.0,0.0,0.0,0.0,0.0,0.0,0.0,0.0,0.0,0.0,0.0,0.0,0.0,0.0,0.0,0.0,0.0,0.0,0.0,0.0,0.0,0.0,0.0,0.0,0.0,0.0,0.0,0.0,0.0,0.0,0.0,0.0,0.0,0.0,0.0,0.0,0.0,0.0,0.0,0.0,0.0,0.0,0.0,0.0,0.0,0.0,0.0,0.0,0.0,0.0,0.0,0.0,0.0,0.0,0.0,0.0,0.0,0.0,0.0,0.0,0.0,0.0,0.0,0.0,0.0,0.0,0.0,0.0,0.0,0.0,0.0,0.0,0.0,0.0,0.0,0.0,0.0,0.0,0.0,0.0,0.0,0.0,0.0,0.0,0.0,0.0,0.0,0.0,0.0,0.0,0.0,0.0,0.0,0.0,0.0,0.0,0.0,0.0,0.0,0.0,0.0,0.0,0.0,0.0,0.0,0.0,0.0,0.0,0.0,0.0,0.0,0.0,0.0,0.0,0.0,0.0,0.0,0.0,0.0,0.0,0.0,0.0,0.0,0.0,0.0,0.0,0.0,0.0,0.0,0.0,0.0,0.0,0.0,0.0,0.0,0.0,0.0,0.0,0.0,0.0,0.0,0.0,0.0,0.0,0.0,0.0,0.0,0.0,0.0,0.0,0.0,0.0,0.0,0.0,0.0,0.0,0.0,0.0,0.0,0.0,0.0,0.0,0.0,0.0,0.0,0.0,0.0,0.0,0.0,0.0,0.0,0.0,0.0,0.0,0.0,0.0,0.0,0.0,0.0,0.0,0.0,0.0,0.0,0.0,0.0,0.0,0.0,0.0,0.0,0.0,0.0,0.0,0.0,0.0,0.0,0.0,0.0,0.0,0.0,0.0,0.0,0.0,0.0,0.0,0.0,0.0,0.0,0.0,0.0,0.0,0.0,0.0,0.0,0.0,0.0,0.0,0.0,0.0,0.0,0.0,0.0,0.0,0.0,0.0,0.0,0.0,0.0,0.0,0.0,0.0,0.0,0.0,0.0,0.0,0.0,0.0,0.0,0.0,0.0,0.0,0.0,0.0,0.0,0.0,0.0,0.0,0.0,0.0,0.0,0.0,0.0,0.0,0.0,0.0,0.0,0.0,0.0,0.0,0.0,0.0,0.0,0.0,0.0,0.0,0.0,0.0,0.0,0.0,0.0,0.0,0.0,0.0,0.0,0.0,0.0,0.0,0.0,0.0,1.0026,0.0,0.0,0.0,0.0,0.0,0.0,0.0,0.0,0.0,0.0,0.0,0.0,0.0,0.0,0.0,0.0,0.0,0.0,0.0,0.0,0.0,0.0,0.0,0.0,0.0,0.0,0.0,0.0,0.0,0.0,0.0,0.0,0.0,0.0,0.0,0.0,0.0,0.0,0.0,0.0,0.0,0.0,0.0,0.0,0.0,0.0,0.0,0.0,0.0,0.0,0.0,0.0,0.0,0.0,0.0,0.0,0.0,0.0,0.0,0.0,0.0,0.0,0.0,0.0,0.0,0.0,0.0,0.0,0.0,0.0,0.0,0.0,0.0,0.0,0.0,0.0,0.0,0.0,0.0,0.0,0.0,0.0,0.0,0.0,0.0,0.0,0.0,0.0,0.0,0.0,0.0,0.0,0.0,0.0,0.0,0.0,0.0,0.0,0.0,0.0,0.0,0.0,0.0,0.0,0.0,0.0,0.0,0.0,0.0,0.0,1.145,0.9659,1.0098,0.9773,0.8655,0.0,0.0,0.0,0.0,0.0,0.0,0.0,0.0,0.0,0.0,0.0,0.0,0.0,0.0,0.0,0.0,0.0,0.0,0.0,0.0,0.0,0.0,0.0,0.0,0.0,0.0,0.0,0.0,0.0,0.0,0.0,0.0,0.0,0.0,0.0,0.0,0.0,0.0,0.0,0.0,0.0,0.0,0.0,0.0,0.0,0.0,0.0,0.0,0.0,0.0,0.0,0.0,0.0,0.0,0.0,0.0,0.0,0.0,0.0,0.0,0.0,0.0,0.0,0.0,0.0,0.0,0.0,0.0,0.0,0.0,0.0,0.0,0.0,0.0,0.0,0.0,0.0,0.0,0.0,0.0,0.0,0.0,0.0,0.0,0.0,0.0,0.0,0.0,0.0,0.0,0.0,0.0,0.0,0.0,0.0,0.0,0.0,0.0,0.0,0.0,0.0,0.0,0.0,0.0,0.0,0.0,0.0,0.0,0.0,0.0,0.0,0.0,0.928,0.8657,0.7527,0.0,0.0,0.0,0.0,0.0,0.0,0.0,0.0,0.0,0.0,0.0,0.0,0.0,0.0,0.0,0.0,0.0,0.0,0.0,0.0,0.0,0.0,0.0,0.0,0.0,0.0,0.0,0.0,0.0,0.0,0.0,0.0,0.0,0.0,0.0,0.0,0.0,0.0,0.0,0.0,0.0,0.0,0.0,0.0,0.0,0.0,0.0,0.0,0.0,0.0,0.0,0.0,0.0,0.0,0.0,0.0,0.0,0.0,0.0,0.0,0.0,0.0,0.0,0.0,0.0,0.0,0.0,0.0,0.0,0.0,0.0,0.0,0.0,0.0,0.0,0.0,0.0,0.0,0.0,0.0,0.0,0.0,0.0,0.0,0.0,0.0,0.0,0.0,0.0,0.0,0.0,0.0,0.0,0.0,0.0,0.0,0.0,0.0,0.0,0.0,0.0,0.0,0.0,0.0,0.0,0.0,0.0,0.0,0.0,0.0,1.061,1.0193,0.8152,0.0,0.7145,0.0,0.0,0.0,0.0,0.0,0.0,0.0,0.0,0.0,0.0,0.0,0.0,0.0,0.0,0.0,0.0,0.0,0.0,0.0,0.0,0.0,0.0,0.0,0.0,0.0,0.0,0.0,0.0,0.0,0.0,0.0,0.0,0.0,0.0,0.0,0.0,0.0,0.0,0.0,0.0,0.0,0.0,0.0,0.0,0.0,0.0,0.0,0.0,0.0,0.0,0.0,0.0,0.0,0.0,0.0,0.0,0.0,0.0,0.0,0.0,0.0,0.0,0.0,0.0,0.0,0.0,0.0,0.0,0.0,0.0,0.0,0.0,0.0,0.0,0.0,0.0,0.0,0.0,0.0,0.0,0.0,0.0,0.0,0.0,0.0,0.0,0.0,0.0,0.0,0.0,0.0,0.0,0.0,0.0,0.0,0.0,0.0,0.0,0.0,0.0,0.0,0.0,0.0,0.0,0.0,0.0,0.0,0.0,0.0,0.0,0.9986,0.8836,0.6454,0.5482,0.0,0.0,0.0,0.0,0.0,0.0,0.0,0.0,0.0,0.0,0.0,0.0,0.0,0.0,0.0,0.0,0.0,0.0,0.0,0.0,0.0,0.0,0.0,0.0,0.0,0.0,0.0,0.0,0.0,0.0,0.0,0.0,0.0,0.0,0.0,0.0,0.0,0.0,0.0,0.0,0.0,0.0,0.0,0.0,0.0,0.0,0.0,0.0,0.0,0.0,0.0,0.0,0.0,0.0,0.0,0.0,0.0,0.0,0.0,0.0,0.0,0.0,0.0,0.0,0.0,0.0,0.0,0.0,0.0,0.0,0.0,0.0,0.0,0.0,0.0,0.0,0.0,0.0,0.0,0.0,0.0,0.0,0.0,0.0,0.0,0.0,0.0,0.0,0.0,0.0,0.0,0.0,0.0,0.0,0.0,0.0,0.0,0.0,0.0,0.0,0.0,0.0,0.0,0.0,0.0,0.0,0.0,0.0,0.0,0.0,1.1426,0.9316,0.7172,0.5361,0.4548,0.4905,0.0,0.0,0.0,0.0,0.0,0.0,0.0,0.0,0.0,0.0,0.0,0.0,0.0,0.0,0.0,0.0,0.0,0.0,0.0,0.0,0.0,0.0,0.0,0.0,0.0,0.0,0.0,0.0,0.0,0.0,0.0,0.0,0.0,0.0,0.0,0.0,0.0,0.0,0.0,0.0,0.0,0.0,0.0,0.0,0.0,0.0,0.0,0.0,0.0,0.0,0.0,0.0,0.0,0.0,0.0,0.0,0.0,0.0,0.0,0.0,0.0,0.0,0.0,0.0,0.0,0.0,0.0,0.0,0.0,0.0,0.0,0.0,0.0,0.0,0.0,0.0,0.0,0.0,0.0,0.0,0.0,0.0,0.0,0.0,0.0,0.0,0.0,0.0,0.0,0.0,0.0,0.0,0.0,0.0,0.0,0.0,0.0,0.0,0.0,0.0,0.0,0.0,0.0,0.0,0.0,0.0,0.0,0.0,1.5467,1.2053,0.8671,0.5592,0.5164,0.4555,0.0,0.0,0.0,0.0,0.0,0.0,0.0,0.0,0.0,0.0,0.0,0.0,0.0,0.0,0.0,0.0,0.0,0.0,0.0,0.0,0.0,0.0,0.0,0.0,0.0,0.0,0.0,0.0,0.0,0.0,0.0,0.0,0.0,0.0,0.0,0.0,0.0,0.0,0.0,0.0,0.0,0.0,0.0,0.0,0.0,0.0,0.0,0.0,0.0,0.0,0.0,0.0,0.0,0.0,0.0,0.0,0.0,0.0,0.0,0.0,0.0,0.0,0.0,0.0,0.0,0.0,0.0,0.0,0.0,0.0,0.0,0.0,0.0,0.0,0.0,0.0,0.0,0.0,0.0,0.0,0.0,0.0,0.0,0.0,0.0,0.0,0.0,0.0,0.0,0.0,0.0,0.0,0.0,0.0,0.0,0.0,0.0,0.0,0.0,0.0,0.0,0.0,0.0,0.0,0.0,0.0,0.0,0.0,0.0,1.3369,0.9537,0.6831,0.5477,0.4164,0.3559,0.0,0.0,0.0,0.0,0.0,0.0,0.0,0.0,0.0,0.0,0.0,0.0,0.0,0.0,0.0,0.0,0.0,0.0,0.0,0.0,0.0,0.0,0.0,0.0,0.0,0.0,0.0,0.0,0.0,0.0,0.0,0.0,0.0,0.0,0.0,0.0,0.0,0.0,0.0,0.0,0.0,0.0,0.0,0.0,0.0,0.0,0.0,0.0,0.0,0.0,0.0,0.0,0.0,0.0,0.0,0.0,0.0,0.0,0.0,0.0,0.0,0.0,0.0,0.0,0.0,0.0,0.0,0.0,0.0,0.0,0.0,0.0,0.0,0.0,0.0,0.0,0.0,0.0,0.0,0.0,0.0,0.0,0.0,0.0,0.0,0.0,0.0,0.0,0.0,0.0,0.0,0.0,0.0,0.0,0.0,0.0,0.0,0.0,0.0,0.0,0.0,0.0,0.0,0.0,0.0,0.0,0.0,0.0,0.0,1.1653,0.0,0.6386,0.5789,0.3592,0.263,0.0,0.0,0.0,0.0,0.0,0.0,0.0,0.0,0.0,0.0,0.0,0.0,0.0,0.0,0.0,0.0,0.0,0.0,0.0,0.0,0.0,0.0,0.0,0.0,0.0,0.0,0.0,0.0,0.0,0.0,0.0,0.0,0.0,0.0,0.0,0.0,0.0,0.0,0.0,0.0,0.0,0.0,0.0,0.0,0.0,0.0,0.0,0.0,0.0,0.0,0.0,0.0,0.0,0.0,0.0,0.0,0.0,0.0,0.0,0.0,0.0,0.0,0.0,0.0,0.0,0.0,0.0,0.0,0.0,0.0,0.0,0.0,0.0,0.0,0.0,0.0,0.0,0.0,0.0,0.0,0.0,0.0,0.0,0.0,0.0,0.0,0.0,0.0,0.0,0.0,0.0,0.0,0.0,0.0,0.0,0.0,0.0,0.0,0.0,0.0,0.0,0.0,0.0,0.0,0.0,0.0,0.0,0.0,1.3184,1.0567,0.8871,0.7372,0.6431,0.3489,0.1939,0.0,0.0,0.0,0.0,0.0,0.0,0.0,0.0,0.0,0.0,0.0,0.0,0.0,0.0,0.0,0.0,0.0,0.0,0.0,0.0,0.0,0.0,0.0,0.0,0.0,0.0,0.0,0.0,0.0,0.0,0.0,0.0,0.0,0.0,0.0,0.0,0.0,0.0,0.0,0.0,0.0,0.0,0.0,0.0,0.0,0.0,0.0,0.0,0.0,0.0,0.0,0.0,0.0,0.0,0.0,0.0,0.0,0.0,0.0,0.0,0.0,0.0,0.0,0.0,0.0,0.0,0.0,0.0,0.0,0.0,0.0,0.0,0.0,0.0,0.0,0.0,0.0,0.0,0.0,0.0,0.0,0.0,0.0,0.0,0.0,0.0,0.0,0.0,0.0,0.0,0.0,0.0,0.0,0.0,0.0,0.0,0.0,0.0,0.0,0.0,0.0,0.0,0.0,0.0,0.0,0.0,0.0,0.0,0.0,0.9152,0.6636,0.4997,0.4062,0.2015,0.0988,0.0,0.0,0.0,0.0,0.0,0.0,0.0,0.0,0.0,0.0,0.0,0.0,0.0,0.0,0.0,0.0,0.0,0.0,0.0,0.0,0.0,0.0,0.0,0.0,0.0,0.0,0.0,0.0,0.0,0.0,0.0,0.0,0.0,0.0,0.0,0.0,0.0,0.0,0.0,0.0,0.0,0.0,0.0,0.0,0.0,0.0,0.0,0.0,0.0,0.0,0.0,0.0,0.0,0.0,0.0,0.0,0.0,0.0,0.0,0.0,0.0,0.0,0.0,0.0,0.0,0.0,0.0,0.0,0.0,0.0,0.0,0.0,0.0,0.0,0.0,0.0,0.0,0.0,0.0,0.0,0.0,0.0,0.0,0.0,0.0,0.0,0.0,0.0,0.0,0.0,0.0,0.0,0.0,0.0,0.0,0.0,0.0,0.0,0.0,0.0,0.0,0.0,0.0,0.0,0.0,0.0,0.0,0.0,0.0,0.823,0.5377,0.346,0.2476,0.0564,-0.0044,0.0854,0.0,0.0,0.0,0.0,0.0,0.0,0.0,0.0,0.0,0.0,0.0,0.0,0.0,0.0,0.0,0.0,0.0,0.0,0.0,0.0,0.0,0.0,0.0,0.0,0.0,0.0,0.0,0.0,0.0,0.0,0.0,0.0,0.0,0.0,0.0,0.0,0.0,0.0,0.0,0.0,0.0,0.0,0.0,0.0,0.0,0.0,0.0,0.0,0.0,0.0,0.0,0.0,0.0,0.0,0.0,0.0,0.0,0.0,0.0,0.0,0.0,0.0,0.0,0.0,0.0,0.0,0.0,0.0,0.0,0.0,0.0,0.0,0.0,0.0,0.0,0.0,0.0,0.0,0.0,0.0,0.0,0.0,0.0,0.0,0.0,0.0,0.0,0.0,0.0,0.0,0.0,0.0,0.0,0.0,0.0,0.0,0.0,0.0,0.0,0.0,0.0,0.0,0.0,0.0,0.0,0.0,0.0,0.0,0.7645,0.4701,0.2546,0.1397,-0.0797,-0.1195,0.0,0.0,0.0,0.0,0.0,0.0,0.0,0.0,0.0,0.0,0.0,0.0,0.0,0.0,0.0,0.0,0.0,0.0,0.0,0.0,0.0,0.0,0.0,0.0,0.0,0.0,0.0,0.0,0.0,0.0,0.0,0.0,0.0,0.0,0.0,0.0,0.0,0.0,0.0,0.0,0.0,0.0,0.0,0.0,0.0,0.0,0.0,0.0,0.0,0.0,0.0,0.0,0.0,0.0,0.0,0.0,0.0,0.0,0.0,0.0,0.0,0.0,0.0,0.0,0.0,0.0,0.0,0.0,0.0,0.0,0.0,0.0,0.0,0.0,0.0,0.0,0.0,0.0,0.0,0.0,0.0,0.0,0.0,0.0,0.0,0.0,0.0,0.0,0.0,0.0,0.0,0.0,0.0,0.0,0.0,0.0,0.0,0.0,0.0,0.0,0.0,0.0,0.0,0.0,0.0,0.0,0.0,0.0,0.0,0.5741,0.1418,-0.0949,-0.1038,-0.2191,-0.2594,0.0,0.0,0.0,0.0,0.0,0.0,0.0,0.0,0.0,0.0,0.0,0.0,0.0,0.0,0.0,0.0,0.0,0.0,0.0,0.0,0.0,0.0,0.0,0.0,0.0,0.0,0.0,0.0,0.0,0.0,0.0,0.0,0.0,0.0,0.0,0.0,0.0,0.0,0.0,0.0,0.0,0.0,0.0,0.0,0.0,0.0,0.0,0.0,0.0,0.0,0.0,0.0,0.0,0.0,0.0,0.0,0.0,0.0,0.0,0.0,0.0,0.0,0.0,0.0,0.0,0.0,0.0,0.0,0.0,0.0,0.0,0.0,0.0,0.0,0.0,0.0,0.0,0.0,0.0,0.0,0.0,0.0,0.0,0.0,0.0,0.0,0.0,0.0,0.0,0.0,0.0,0.0,0.0,0.0,0.0,0.0,0.0,0.0,0.0,0.0,0.0,0.0,0.0,0.0,0.0,0.0,0.0,0.0,0.7636,0.58,0.0887,-0.1817,-0.2034,-0.3239,-0.3541,0.0,0.0,0.0,0.0,0.0,0.0,0.0,0.0,0.0,0.0,0.0,0.0,0.0,0.0,0.0,0.0,0.0,0.0,0.0,0.0,0.0,0.0,0.0,0.0,0.0,0.0,0.0,0.0,0.0,0.0,0.0,0.0,0.0,0.0,0.0,0.0,0.0,0.0,0.0,0.0,0.0,0.0,0.0,0.0,0.0,0.0,0.0,0.0,0.0,0.0,0.0,0.0,0.0,0.0,0.0,0.0,0.0,0.0,0.0,0.0,0.0,0.0,0.0,0.0,0.0,0.0,0.0,0.0,0.0,0.0,0.0,0.0,0.0,0.0,0.0,0.0,0.0,0.0,0.0,0.0,0.0,0.0,0.0,0.0,0.0,0.0,0.0,0.0,0.0,0.0,0.0,0.0,0.0,0.0,0.0,0.0,0.0,0.0,0.0,0.0,0.0,0.0,0.0,0.0,0.0,0.0,0.0,0.0,0.7968,0.6818,0.2012,-0.0972,-0.1772,-0.3642,-0.3789,0.0,0.0,0.0,0.0,0.0,0.0,0.0,0.0,0.0,0.0,0.0,0.0,0.0,0.0,0.0,0.0,0.0,0.0,0.0,0.0,0.0,0.0,0.0,0.0,0.0,0.0,0.0,0.0,0.0,0.0,0.0,0.0,0.0,0.0,0.0,0.0,0.0,0.0,0.0,0.0,0.0,0.0,0.0,0.0,0.0,0.0,0.0,0.0,0.0,0.0,0.0,0.0,0.0,0.0,0.0,0.0,0.0,0.0,0.0,0.0,0.0,0.0,0.0,0.0,0.0,0.0,0.0,0.0,0.0,0.0,0.0,0.0,0.0,0.0,0.0,0.0,0.0,0.0,0.0,0.0,0.0,0.0,0.0,0.0,0.0,0.0,0.0,0.0,0.0,0.0,0.0,0.0,0.0,0.0,0.0,0.0,0.0,0.0,0.0,0.0,0.0,0.0,0.0,0.0,0.0,0.0,0.0,0.0,0.8425,0.7139,0.2721,0.0571,0.0912,-0.1402,-0.1956,0.0,0.0,0.0,0.0,0.0,0.0,0.0,0.0,0.0,0.0,0.0,0.0,0.0,0.0,0.0,0.0,0.0,0.0,0.0,0.0,0.0,0.0,0.0,0.0,0.0,0.0,0.0,0.0,0.0,0.0,0.0,0.0,0.0,0.0,0.0,0.0,0.0,0.0,0.0,0.0,0.0,0.0,0.0,0.0,0.0,0.0,0.0,0.0,1.2965,0.0,0.0,0.0,0.0,0.0,0.0,0.0,0.0,0.0,0.0,0.0,0.0,0.0,0.0,0.0,0.0,0.0,0.0,0.0,0.0,0.0,0.0,0.0,0.0,0.0,0.0,0.0,0.0,0.0,0.0,0.0,0.0,0.0,0.0,0.0,0.0,0.0,0.0,0.0,0.0,0.0,0.0,0.0,0.0,0.0,0.0,0.0,0.0,0.0,0.0,0.0,0.0,0.0,0.0,0.0,0.0,0.0,0.0,0.0,0.9694,0.7998,0.4864,0.3331,0.3512,0.2881,0.213,0.0,0.0,0.0,0.0,0.0,0.0,0.0,0.0,0.0,0.0,0.0,0.0,0.0,0.0,0.0,0.0,0.0,0.0,0.0,0.0,0.0,0.0,0.0,0.0,0.0,0.0,0.0,0.0,0.0,0.0,0.0,0.0,0.0,0.0,0.0,0.0,0.0,0.0,0.0,0.0,0.0,0.0,0.0,0.0,0.0,0.0,0.0,0.0,0.0,0.0,0.0,0.0,0.0,0.0,0.0,0.0,0.0,0.0,0.0,0.0,0.0,0.0,0.0,0.0,0.0,0.0,0.0,0.0,0.0,0.0,0.0,0.0,0.0,0.0,0.0,0.0,0.0,0.0,0.0,0.0,0.0,0.0,0.0,0.0,0.0,0.0,0.0,0.0,0.0,0.0,0.0,0.0,0.0,0.0,0.0,0.0,0.0,0.0,0.0,0.0,0.0,0.0,0.0,0.0,0.0,0.0,0.0,1.333,1.1235,0.9216,0.7549,0.6602,0.6479,0.7607,0.6825,0.3838,0.0,0.0,0.0,0.0,0.0,0.0,0.0,0.0,0.0,0.0,0.0,0.0,0.0,0.0,0.0,0.0,0.0,0.0,0.0,0.0,0.0,0.0,0.0,0.0,0.0,0.0,0.0,0.0,0.0,0.0,0.0,0.0,0.0,0.0,0.0,0.0,0.0,0.0,2.3442,2.2048,0.0,0.0,0.0,0.0,0.0,0.0,0.0,0.0,1.5568,0.0,0.0,0.0,0.0,0.0,0.0,0.0,0.0,0.0,0.0,0.0,0.0,0.0,0.0,0.0,0.0,0.0,0.0,0.0,0.0,0.0,0.0,0.0,0.0,0.0,0.0,0.0,0.0,0.0,0.0,0.0,0.0,0.0,0.0,0.0,0.0,0.0,0.0,0.0,0.0,0.0,0.0,0.0,0.0,0.0,0.0,0.0,0.0,0.0,0.0,0.0,0.0,0.0,0.0,0.0,0.0,1.5835,1.4328,1.2709,1.0942,1.0261,1.0032,1.0259,1.0327,0.9847,0.8791,0.0,0.0,0.0,0.0,0.0,0.0,0.0,0.0,0.0,0.0,0.0,0.0,0.0,0.0,0.0,0.0,0.0,0.0,0.0,0.0,0.0,0.0,0.0,0.0,0.0,0.0,0.0,0.0,0.0,0.0,0.0,0.0,0.0,0.0,0.0,0.0,0.0,0.0,0.0,2.3941,2.3143,0.0,0.0,0.0,0.0,0.0,0.0,0.0,0.0,1.8843,0.0,0.0,0.0,0.0,0.0,0.0,0.0,0.0,0.0,0.0,0.0,0.0,0.0,0.0,0.0,0.0,0.0,0.0,0.0,0.0,0.0,0.0,0.0,0.0,0.0,0.0,0.0,0.0,0.0,0.0,0.0,0.0,0.0,0.0,0.0,0.0,0.0,0.0,0.0,0.0,0.0,0.0,0.0,0.0,0.0,0.0,0.0,0.0,0.0,0.0,0.0,0.0,0.0,0.0,0.0,1.7001,1.567,1.4199,1.2718,1.1856,1.2002,1.3122,1.2432,1.2069,0.0,0.0,0.0,0.0,0.0,0.0,0.0,0.0,0.0,0.0,0.0,0.0,0.0,0.0,0.0,0.0,0.0,0.0,0.0,0.0,0.0,0.0,0.0,0.0,0.0,0.0,0.0,0.0,0.0,0.0,0.0,0.0,0.0,0.0,0.0,0.0,0.0,0.0,0.0,0.0,2.5255,2.4663,2.3158,0.0,0.0,0.0,0.0,0.0,0.0,1.9515,1.9743,0.0,0.0,0.0,0.0,0.0,0.0,0.0,0.0,0.0,0.0,0.0,0.0,0.0,0.0,0.0,0.0,0.0,0.0,0.0,0.0,0.0,0.0,0.0,0.0,0.0,0.0,0.0,0.0,0.0,0.0,0.0,0.0,0.0,0.0,0.0,0.0,0.0,0.0,0.0,0.0,0.0,0.0,0.0,0.0,0.0,0.0,0.0,0.0,0.0,0.0,0.0,0.0,0.0,0.0,0.0,1.8381,1.7123,1.5972,1.4905,1.3964,1.414,1.5549,1.4121,1.3735,0.0,0.0,0.0,0.0,0.0,0.0,0.0,0.0,0.0,0.0,0.0,0.0,0.0,0.0,0.0,0.0,0.0,0.0,0.0,0.0,0.0,0.0,0.0,0.0,0.0,0.0,0.0,0.0,0.0,0.0,0.0,0.0,0.0,0.0,0.0,0.0,0.0,0.0,0.0,0.0,0.0,2.6156,2.5265,2.5027,0.0,0.0,0.0,0.0,2.1303,2.1205,0.0,0.0,0.0,0.0,0.0,0.0,0.0,0.0,0.0,0.0,0.0,0.0,0.0,0.0,0.0,0.0,0.0,0.0,0.0,0.0,0.0,0.0,0.0,0.0,0.0,0.0,0.0,0.0,0.0,0.0,0.0,0.0,0.0,0.0,0.0,0.0,0.0,0.0,0.0,0.0,0.0,0.0,0.0,0.0,0.0,0.0,0.0,0.0,0.0,0.0,0.0,0.0,0.0,0.0,0.0,0.0,1.9571,1.8625,1.8147,1.8218,1.787,1.7677,1.7654,1.5524,1.4475,0.0,0.0,0.0,0.0,0.0,0.0,0.0,0.0,0.0,0.0,0.0,0.0,0.0,0.0,0.0,0.0,0.0,0.0,0.0,0.0,0.0,0.0,0.0,0.0,0.0,0.0,0.0,0.0,0.0,0.0,0.0,0.0,0.0,0.0,0.0,0.0,0.0,0.0,0.0,0.0,0.0,2.8005,2.4472,2.4901,2.5167,0.0,0.0,2.4293,2.5285,2.641,0.0,0.0,0.0,0.0,0.0,0.0,0.0,0.0,0.0,0.0,0.0,0.0,0.0,0.0,0.0,0.0,0.0,0.0,0.0,0.0,0.0,0.0,0.0,0.0,0.0,0.0,0.0,0.0,0.0,0.0,0.0,0.0,0.0,0.0,0.0,0.0,0.0,0.0,0.0,0.0,0.0,0.0,0.0,0.0,0.0,0.0,0.0,0.0,0.0,0.0,0.0,0.0,0.0,0.0,0.0,2.153,2.0936,1.9951,1.9367,1.919,1.9077,1.9268,1.967,1.6342,1.5152,0.0,0.0,0.0,0.0,0.0,0.0,0.0,0.0,0.0,0.0,0.0,0.0,0.0,0.0,0.0,0.0,0.0,0.0,0.0,0.0,0.0,0.0,0.0,0.0,0.0,0.0,0.0,0.0,0.0,0.0,0.0,0.0,0.0,0.0,0.0,0.0,0.0,0.0,0.0,0.0,0.0,0.0,2.6341,2.6403,0.0,0.0,0.0,2.5776,2.6685,0.0,0.0,0.0,0.0,0.0,0.0,0.0,0.0,0.0,0.0,0.0,0.0,0.0,0.0,0.0,0.0,0.0,0.0,0.0,0.0,0.0,0.0,0.0,0.0,0.0,0.0,0.0,0.0,0.0,0.0,0.0,0.0,0.0,0.0,0.0,0.0,0.0,0.0,0.0,0.0,0.0,0.0,0.0,0.0,0.0,0.0,0.0,0.0,0.0,0.0,0.0,0.0,0.0,0.0,0.0,0.0,0.0,2.2607,2.1797,2.1238,2.1016,2.0989,2.1301,2.1931,1.8498,0.0,0.0,0.0,0.0,0.0,0.0,0.0,0.0,0.0,0.0,0.0,0.0,0.0,0.0,0.0,0.0,0.0,0.0,0.0,0.0,0.0,0.0,0.0,0.0,0.0,0.0,0.0,2.8139,0.0,0.0,0.0,0.0,0.0,0.0,0.0,0.0,0.0,0.0,0.0,0.0,0.0,0.0,2.8399,2.7922,2.7991,2.8435,0.0,0.0,2.7174,2.7912,2.8158,2.7955,0.0,0.0,0.0,0.0,0.0,0.0,0.0,0.0,0.0,0.0,0.0,0.0,0.0,0.0,0.0,0.0,0.0,0.0,0.0,0.0,0.0,0.0,0.0,0.0,0.0,0.0,0.0,0.0,0.0,0.0,0.0,0.0,0.0,0.0,0.0,0.0,0.0,0.0,0.0,0.0,0.0,0.0,0.0,0.0,0.0,0.0,0.0,0.0,0.0,0.0,0.0,0.0,0.0,0.0,2.4801,2.4874,2.4493,2.4524,2.5041,2.5052,2.4957,2.4808,2.3136,2.1906,0.0,0.0,0.0,0.0,0.0,0.0,0.0,0.0,0.0,0.0,0.0,0.0,0.0,0.0,0.0,0.0,0.0,0.0,0.0,0.0,0.0,0.0,0.0,0.0,0.0,0.0,0.0,0.0,0.0,0.0,0.0,0.0,0.0,0.0,0.0,0.0,0.0,0.0,0.0,0.0,0.0,2.9297,2.8161,2.9307,3.026,0.0,0.0,2.9316,2.9762,3.0928,3.081,2.7773,0.0,0.0,0.0,0.0,0.0,0.0,0.0,0.0,0.0,0.0,0.0,0.0,0.0,0.0,0.0,0.0,0.0,0.0,0.0,0.0,0.0,0.0,0.0,0.0,0.0,0.0,0.0,0.0,0.0,0.0,0.0,0.0,0.0,0.0,0.0,0.0,0.0,0.0,0.0,0.0,0.0,0.0,0.0,0.0,0.0,0.0,0.0,0.0,0.0,0.0,0.0,0.0,0.0,2.5394,2.638,2.5389,2.5276,2.6055,2.6088,2.6036,2.5964,2.4324,2.2967,0.0,0.0,0.0,0.0,0.0,0.0,0.0,0.0,0.0,0.0,0.0,0.0,0.0,0.0,0.0,0.0,0.0,0.0,0.0,0.0,0.0,0.0,0.0,0.0,0.0,0.0,0.0,0.0,2.7014,2.6895,2.7273,0.0,0.0,0.0,0.0,0.0,0.0,0.0,0.0,0.0,0.0,2.9834,2.9903,3.0579,0.0,0.0,3.1232,3.0687,3.0857,3.1053,3.053,2.8612,2.7908,0.0,0.0,0.0,0.0,0.0,0.0,0.0,0.0,0.0,0.0,0.0,0.0,0.0,0.0,0.0,0.0,0.0,0.0,0.0,0.0,0.0,0.0,0.0,0.0,0.0,0.0,0.0,0.0,0.0,0.0,0.0,0.0,0.0,0.0,0.0,0.0,0.0,0.0,0.0,0.0,0.0,0.0,0.0,0.0,0.0,0.0,0.0,0.0,0.0,0.0,0.0,0.0,2.6287,2.7947,2.6675,2.643,2.7238,2.7331,2.7261,2.7019,2.5694,2.4437,0.0,0.0,0.0,0.0,0.0,0.0,0.0,0.0,0.0,0.0,0.0,0.0,0.0,0.0,0.0,0.0,0.0,0.0,0.0,0.0,0.0,0.0,0.0,0.0,0.0,0.0,0.0,0.0,2.7453,2.7331,2.7998,0.0,0.0,0.0,0.0,0.0,0.0,0.0,0.0,0.0,0.0,3.056,3.1118,3.1638,3.2061,3.2331,3.1524,3.0859,3.0683,3.0507,3.0058,2.9211,0.0,0.0,0.0,0.0,0.0,0.0,0.0,0.0,0.0,0.0,0.0,0.0,0.0,0.0,0.0,0.0,0.0,0.0,0.0,0.0,0.0,0.0,0.0,0.0,0.0,0.0,0.0,0.0,0.0,0.0,3.0999,0.0,0.0,0.0,0.0,0.0,0.0,0.0,0.0,0.0,0.0,0.0,0.0,0.0,0.0,0.0,0.0,0.0,0.0,0.0,0.0,0.0,0.0,2.7831,2.9702,2.8786,2.8575,2.9042,2.9263,2.9003,2.828,2.7903,2.6968,2.5382,0.0,0.0,0.0,0.0,0.0,0.0,0.0,0.0,0.0,0.0,0.0,0.0,0.0,0.0,0.0,0.0,0.0,0.0,0.0,0.0,0.0,0.0,0.0,0.0,0.0,0.0,3.0851,2.9368,2.8502,0.0,0.0,0.0,0.0,0.0,0.0,0.0,0.0,0.0,0.0,3.0676,3.1615,3.1465,3.2353,3.2533,3.0974,3.027,2.9705,2.9189,2.9516,2.9745,0.0,0.0,0.0,0.0,0.0,0.0,0.0,0.0,0.0,0.0,0.0,0.0,0.0,0.0,0.0,0.0,0.0,0.0,0.0,0.0,0.0,0.0,0.0,0.0,0.0,0.0,0.0,3.273,3.2417,0.0,0.0,0.0,0.0,0.0,0.0,0.0,0.0,0.0,0.0,0.0,3.6258,3.68,0.0,0.0,0.0,0.0,0.0,0.0,0.0,0.0,0.0,0.0,0.0,0.0,2.9649,3.1326,3.0472,3.0467,3.1383,3.1063,3.053,2.985,2.9317,2.8438,2.7304,0.0,0.0,0.0,0.0,0.0,0.0,0.0,0.0,0.0,0.0,0.0,0.0,0.0,0.0,0.0,0.0,0.0,0.0,0.0,0.0,0.0,0.0,0.0,0.0,0.0,3.0479,0.0,0.0,0.0,0.0,0.0,0.0,0.0,0.0,0.0,0.0,0.0,3.0433,3.1583,3.237,3.2883,3.309,3.3754,3.3768,0.0,0.0,0.0,0.0,0.0,0.0,0.0,0.0,0.0,0.0,0.0,0.0,0.0,0.0,3.0535,2.7727,2.6567,2.6002,2.6002,0.0,0.0,0.0,0.0,0.0,0.0,0.0,0.0,0.0,0.0,0.0,0.0,0.0,0.0,3.5669,0.0,3.5078,0.0,0.0,0.0,0.0,0.0,0.0,0.0,0.0,3.8068,3.9287,3.9852,4.0344,4.0184,0.0,3.807,3.5762,0.0,0.0,0.0,0.0,0.0,0.0,0.0,0.0,3.1042,3.2632,3.176,3.1702,3.2524,3.1943,3.1287,3.0664,3.0063,2.9462,2.8853,2.7845,2.757,0.0,0.0,0.0,0.0,0.0,0.0,0.0,0.0,0.0,0.0,0.0,0.0,0.0,0.0,0.0,0.0,0.0,0.0,0.0,0.0,0.0,0.0,0.0,3.0422,0.0,0.0,0.0,0.0,0.0,0.0,0.0,0.0,0.0,3.1486,3.1311,3.1915,3.3706,3.3698,3.3652,3.4084,0.0,0.0,0.0,0.0,0.0,0.0,0.0,3.1798,3.2755,3.1807,3.1135,3.1668,3.2423,3.2718,3.1836,0.0,0.0,2.9151,2.8,2.7391,2.7331,2.7021,2.6735,2.6748,2.5385,2.4177,0.0,0.0,0.0,0.0,0.0,0.0,0.0,0.0,3.9423,3.9581,0.0,3.8511,0.0,0.0,0.0,0.0,0.0,3.8318,0.0,0.0,4.2519,4.3705,4.321,4.3048,4.2666,4.196,4.0976,3.9488,3.7495,3.4327,0.0,0.0,0.0,0.0,0.0,0.0,3.2092,3.3607,3.2753,3.2381,3.2687,3.2041,3.1412,3.0851,3.0316,3.0083,3.0183,3.0192,2.9979,2.944,2.9431,0.0,0.0,0.0,0.0,0.0,0.0,0.0,0.0,0.0,0.0,0.0,0.0,0.0,0.0,0.0,0.0,0.0,0.0,0.0,0.0,3.0959,0.0,0.0,0.0,0.0,0.0,0.0,0.0,0.0,0.0,0.0,3.3545,3.345,3.4061,3.5682,0.0,0.0,0.0,0.0,3.3113,3.2118,3.2472,3.2667,3.2145,3.2881,3.371,3.4166,0.0,0.0,3.2146,3.3251,3.3947,3.2864,3.2535,3.2222,3.1751,3.0699,2.9961,2.9705,2.8837,2.8197,2.8011,2.6919,2.5889,4.6187,0.0,0.0,0.0,0.0,4.2766,4.3185,4.3701,4.3744,4.2894,4.1406,4.051,0.0,0.0,0.0,0.0,0.0,0.0,4.0279,4.1544,4.3535,4.4786,4.5386,4.543,4.5018,4.4143,4.2736,4.1492,4.0284,3.8195,3.5965,3.3678,0.0,0.0,0.0,0.0,3.4433,3.5149,3.4803,3.4553,3.446,3.3471,3.2414,3.132,3.1134,3.1317,3.1811,3.1375,3.1264,3.1542,3.0162,0.0,0.0,0.0,0.0,0.0,0.0,0.0,0.0,0.0,0.0,0.0,0.0,0.0,0.0,0.0,0.0,0.0,0.0,0.0,3.21,3.1539,3.1509,0.0,0.0,0.0,0.0,0.0,0.0,0.0,0.0,0.0,3.6037,3.5399,3.5181,0.0,0.0,3.499,3.4981,3.4816,3.4588,3.4272,3.4273,0.0,3.4278,3.3725,3.3817,3.5173,3.5389,3.5238,3.4806,3.4849,3.4674,3.3825,3.3599,3.3359,3.2627,3.1307,3.0343,3.0037,2.972,2.934,2.8725,2.7619,2.654,5.0425,4.7603,4.5621,4.501,4.5423,4.5454,4.5839,4.6421,4.6411,4.5605,4.4225,4.3431,4.1954,4.0062,3.9584,0.0,0.0,0.0,4.2341,4.3917,4.4587,4.5368,4.6227,4.5773,4.5152,4.4363,4.2926,4.1888,4.1208,3.9966,3.8313,3.6277,0.0,0.0,3.5114,3.5798,3.6289,3.6551,3.6159,3.5859,3.5683,3.4767,3.3782,3.2746,3.3273,3.3773,3.4182,3.3807,3.3519,3.3352,3.2135,3.1313,0.0,0.0,0.0,0.0,0.0,0.0,0.0,0.0,0.0,0.0,0.0,3.3386,3.2565,0.0,0.0,0.0,3.216,3.2545,3.2078,3.2154,0.0,0.0,0.0,0.0,0.0,0.0,0.0,3.6157,3.6066,3.6241,3.6965,3.6449,3.6199,3.6725,3.6049,3.5561,3.5702,0.0,3.5326,3.5326,3.5436,3.5585,3.5683,3.5028,3.4819,3.5599,3.5857,3.5889,3.5759,3.5499,3.5162,3.4754,3.4375,3.4022,3.3518,3.2206,3.1043,3.0807,3.029,2.9694,2.9238,2.8101,2.6992,5.3778,5.3542,4.9851,4.8256,4.8162,4.826,4.8256,4.8129,4.7991,4.7883,4.7708,4.6769,4.5775,4.478,4.3798,0.0,4.4405,4.4276,4.491,4.6176,4.5556,4.561,4.6122,4.474,4.3802,4.3354,4.2066,4.1208,4.0802,4.0204,3.9573,3.8882,3.8226,3.7535,3.6849,3.7387,3.7711,3.7668,3.7037,3.6644,3.6524,3.5772,3.5088,3.4622,3.5934,3.663,3.6678,3.663,3.6037,3.4776,3.4573,3.3516,3.1444,0.0,0.0,0.0,0.0,0.0,0.0,0.0,0.0,0.0,0.0,0.0,0.0,0.0,0.0,0.0,3.2945,0.0,3.1986,3.293,0.0,0.0,0.0,3.5814,3.5505,3.6216,3.6734,3.676,0.0,0.0,3.695,3.6956,3.7049,3.7345,3.6319,3.5746,3.636,3.5896,3.5489,3.5457,3.5998,3.6387,3.6261,3.6216,3.6022,3.5601,3.5489,3.5534,3.5502,3.5487,3.5504,3.532,3.4817,3.4249,3.4234,3.3029,3.211,3.186,3.0603,2.9507,2.9254,2.8306,2.7243,5.5202,5.5036,5.2973,5.1418,5.0499,5.1414,5.1178,5.0243,5.0747,5.0371,4.9354,4.7957,4.6205,4.4272,4.4021,4.4092,4.44,4.4466,4.4811,4.5382,4.5321,4.5321,4.5307,4.413,4.3474,4.3152,4.1688,4.0902,4.0778,4.0296,3.9961,3.9775,3.9623,3.884,3.7551,3.8162,3.848,3.8369,3.836,3.7794,3.673,3.4979,3.4473,3.5411,3.5246,3.5363,3.5835,3.5395,3.4974,3.4622,3.3452,3.2532,3.2001,3.2012,0.0,0.0,0.0,0.0,0.0,0.0,0.0,0.0,0.0,3.5211,3.4746,0.0,3.5366,0.0,3.2604,3.299,3.4644,3.4612,0.0,0.0,3.6844,3.7069,3.6989,3.7334,3.7725,3.8077,3.7847,3.778,3.8187,3.7762,3.7326,3.7064,3.6393,3.5874,3.5896,3.5791,3.5621,3.5537,3.5639,3.5729,3.5759,3.5744,3.5699,3.5534,3.5489,3.5489,3.5489,3.5489,3.534,3.4861,3.4616,3.428,3.3771,3.2952,3.2439,3.2372,3.1089,2.9522,2.8434,2.7643,2.6914,5.575,5.5678,5.4401,5.3211,5.2129,5.2163,5.1714,5.1017,5.1296,5.0708,4.9384,4.8075,4.6655,4.5358,4.5602,4.5627,4.5426,4.5471,4.5534,4.5616,4.5091,4.4765,4.4532,4.344,4.2774,4.2418,4.1371,4.0754,4.05,4.0204,4.0113,4.0113,4.0113,3.9656,3.8805,3.9159,3.9354,3.9253,3.8989,3.811,3.6682,3.5824,3.5652,3.6069,3.6088,3.6244,3.6603,3.5965,3.5424,3.5054,3.419,3.3362,3.2588,3.2756,3.2607,0.0,0.0,0.0,0.0,0.0,0.0,0.0,0.0,0.0,0.0,0.0,3.5774,3.5062,3.4336,3.4728,3.6764,3.6736,3.6937,3.7818,3.8207,3.8321,3.8184,3.836,3.8573,3.8826,3.8397,3.8188,3.8476,3.8187,3.7809,3.7571,3.7221,3.6723,3.6006,3.5831,3.5814,3.5733,3.5716,3.5716,3.5716,3.5636,3.5686,3.5941,3.5733,3.5512,3.5453,3.5232,3.4831,3.4234,3.4069,3.3948,3.3514,3.2688,3.1967,3.1556,3.0455,2.927,2.8624,2.778,2.6876,5.5921,5.5922,5.4912,5.4104,5.3333,5.1844,5.1254,5.1315,5.0982,5.0115,4.8829,4.7904,4.7301,4.7025,4.7583,4.7434,4.6702,4.6521,4.6329,4.5965,4.4755,4.4047,4.3761,4.2781,4.2053,4.1543,4.1134,4.0676,4.0146,4.0196,4.0229,4.0229,4.0303,4.0328,4.0303,4.0303,4.0254,4.0171,3.9318,3.8258,3.6982,3.7461,3.7499,3.7047,3.7547,3.7855,3.7908,3.7211,3.648,3.5812,3.5659,3.4895,3.3354,3.3835,3.4006,0.0,3.3629,0.0,0.0,0.0,0.0,0.0,0.0,0.0,0.0,3.5854,3.6544,3.7482,3.687,3.6989,3.8363,3.8681,3.8777,3.866,3.9196,3.9453,3.9165,3.9233,3.9312,3.9312,3.8849,3.8546,3.8585,3.853,3.853,3.8288,3.8314,3.7803,3.6507,3.6275,3.6337,3.6242,3.6242,3.6321,3.629,3.6149,3.6197,3.6538,3.6137,3.5594,3.5458,3.5003,3.4454,3.3834,3.3622,3.3472,3.3337,3.2297,3.1299,3.0646,2.9593,2.8886,2.8858,2.8049,2.6872,5.6626,5.6484,5.5029,5.4316,5.406,5.2506,5.2145,5.2585,5.1887,5.0782,4.9474,4.9245,4.868,4.7966,4.8075,4.7572,4.6612,4.6036,4.536,4.4554,4.3778,4.3378,4.3287,4.2409,4.1945,4.1756,4.0984,4.0541,4.0419,4.0737,4.0891,4.0932,4.1286,4.1459,4.1423,0.0,0.0,0.0,3.9754,3.9508,3.9734,3.8533,3.8275,3.9049,3.8042,0.0,3.8021,3.7289,3.6818,3.6661,3.6085,0.0,0.0,0.0,0.0,0.0,0.0,0.0,0.0,0.0,0.0,0.0,3.6422,3.7003,3.7478,3.8135,3.8524,3.8456,3.8254,3.8362,3.899,3.8986,3.92,3.9704,3.9891,3.9968,3.991,3.991,3.9944,3.9918,3.9808,3.9731,3.9655,3.9773,3.9324,3.8348,3.8649,3.8434,3.7167,3.7294,3.7541,3.7501,3.7352,3.7427,3.7488,3.7336,3.6993,3.6819,3.65,3.6103,3.5647,3.5361,3.504,3.4431,3.3903,3.3152,3.2361,3.1717,3.114,3.0277,2.9674,2.9064,2.8123,2.7351,2.6552,5.5978,5.55,5.4326,5.3812,0.0,5.2949,5.2559,5.2425,5.1216,5.0065,4.8948,4.8948,4.8489,4.7697,4.8082,4.751,4.6187,4.5881,4.5222,4.427,4.3597,4.3269,4.3178,4.2595,4.2259,4.216,4.1525,4.1225,4.118,4.1331,4.1442,4.1442,4.1703,4.1768,4.176,4.1948,4.1692,4.1007,4.0626,4.0464,4.0457,3.9237,3.8715,3.8992,3.793,0.0,0.0,0.0,0.0,0.0,0.0,0.0,0.0,3.5773,0.0,3.6363,3.6504,3.668,3.6916,3.7143,3.7066,3.6695,3.7249,3.7747,3.8073,3.8273,3.8582,3.9116,3.8401,3.8408,3.9661,3.9397,3.9255,3.9595,3.9596,3.9428,3.9106,3.9343,3.9402,3.9106,3.9309,3.9453,3.9056,3.9022,3.8754,3.8154,3.8296,3.8329,3.773,3.7889,3.8104,3.8019,3.7701,3.7508,3.7448,3.7058,3.6913,3.6675,3.6364,3.5966,3.563,3.5252,3.4808,3.4228,3.3499,3.2781,3.2279,3.1506,3.0752,3.0235,2.9499,2.8723,2.7842,2.7407,2.6722,5.506,5.4509,5.361,5.3185,5.3185,5.3078,5.2546,5.1683,0.0,0.0,0.0,4.8324,4.7957,4.7351,4.8031,4.7479,4.6066,4.5938,4.5389,4.4418,4.3742,4.3358,4.3251,4.2901,4.2693,4.256,4.2203,4.1958,4.1874,4.1937,4.2018,4.2,4.2062,4.2085,4.2103,4.238,4.2274,4.1727,4.1618,4.1323,4.0761,3.9898,3.9259,3.892,3.7978,3.7554,3.761,3.6862,3.6417,3.6417,3.6435,3.629,3.6004,3.6547,3.7008,3.7353,3.7305,3.7462,3.7981,3.7949,3.7863,3.7702,3.8022,3.8172,3.8023,3.781,3.8198,3.9405,3.8168,3.8117,3.9935,3.9491,3.902,3.902,3.8924,3.8621,3.8048,3.842,3.8589,3.8091,3.8464,3.8582,3.8058,3.799,3.7838,3.7753,3.7841,3.7898,3.792,3.8065,3.8177,3.8128,3.7746,3.7361,3.7242,3.683,3.6395,3.6719,3.6241,3.5697,3.5324,3.4911,3.4316,3.3729,3.2975,3.249,3.2289,3.1401,3.0454,3.0156,2.9249,2.8276,2.7687,2.7496,2.684,5.4895,5.5299,5.3812,5.3185,5.317,5.2472,5.1701,5.0912,4.9996,4.9095,4.8324,4.8324,4.8251,4.8141,4.8251,4.7791,4.6892,4.6214,4.5443,4.4637,4.3847,4.3462,4.3445,4.3068,4.2863,4.2825,4.238,4.2177,4.2198,4.2557,4.275,4.2788,4.3087,4.3214,4.316,4.3123,4.3013,4.2861,4.2456,4.2203,4.2098,4.1008,4.0567,4.0803,3.9424,3.8869,3.9235,3.8472,3.8053,3.8053,3.8053,3.7967,3.7759,3.7765,3.7906,3.8092,3.7717,3.7648,3.8051,3.7756,3.7827,3.8379,3.8611,3.8396,3.7685,3.8104,3.8548,3.8715,3.8379,3.8317,3.8677,3.8516,3.8338,3.8321,3.8321,3.8182,3.7942,3.8031,3.8041,3.7845,3.7973,3.8041,3.7821,3.7804,3.7533,3.7195,3.7347,3.7838,3.7804,3.7937,3.7958,3.795,3.7883,3.7799,3.7626,3.7691,3.7138,3.6868,3.6511,3.5859,3.479,3.4509,3.4145,3.3538,3.2837,3.2267,3.1863,3.1408,3.0597,2.9582,2.9098,2.8547,2.7186,2.6839,2.6385,5.4748,5.4234,5.35,5.3185,5.3115,5.1885,5.1151,5.0692,4.9444,4.8948,4.9003,4.8985,4.8746,4.8288,4.7828,4.7204,4.6416,4.5608,4.48,4.4066,4.3644,4.3479,4.3479,4.3322,4.3214,4.3214,4.3014,4.2902,4.2921,4.3142,4.3214,4.3214,4.341,4.348,4.3445,4.3393,4.3358,4.3304,4.2957,4.2805,4.2789,4.1861,4.1304,4.1214,4.0433,3.9973,3.9754,3.9404,3.9202,3.9202,3.88,3.8549,3.8417,3.8403,3.8419,3.8501,3.8269,3.8236,3.8417,3.8252,3.8195,3.833,3.8383,3.8169,3.756,3.8058,3.8566,3.8928,3.7984,3.7627,3.8384,3.8031,3.7706,3.7729,3.7621,3.7422,3.7052,3.7303,3.7331,3.6996,3.7165,3.7204,3.6791,3.6694,3.6586,3.6231,3.6502,3.674,3.7012,3.704,3.7274,3.7733,3.7584,3.733,3.7246,3.6535,3.5977,3.5594,3.5515,3.5036,3.415,3.4107,3.409,3.352,3.278,3.2279,3.1972,3.154,3.0871,3.0343,2.939,2.8655,2.7731,2.6736,2.5696,5.4739,5.3738,5.3492,5.3378,5.3265,5.2031,5.1477,5.1291,4.993,4.9525,4.9874,4.9521,4.893,4.8269,4.7461,4.6764,4.6085,4.5149,4.436,4.3791,4.3589,4.3479,4.3479,4.3479,4.3479,4.3479,4.3479,4.3479,4.3479,4.3479,4.3479,4.3479,4.3479,4.3479,4.3479,4.3479,4.3479,4.3479,4.3305,4.3196,4.3232,4.2483,4.1822,4.1425,4.1187,4.0818,4.0212,4.0175,4.0084,3.9882,3.9313,3.8891,3.8726,3.8707,3.8781,3.8927,3.8964,3.9056,3.9221,3.9056,3.8836,3.8523,3.8327,3.8101,3.7845,3.8003,3.8376,3.8682,3.7554,3.7134,3.8003,3.7779,3.7351,3.7334,3.7266,3.6978,3.635,3.6685,3.6693,3.6092,3.6434,3.6532,3.5805,3.5604,3.5617,3.5424,3.5343,3.5514,3.5808,3.6011,3.6517,3.6794,3.6735,3.6452,3.6339,3.5248,3.4486,3.4342,3.4333,3.3969,3.3457,3.3643,3.3626,3.2933,3.2408,3.2019,3.1972,3.1427,3.085,3.0386,2.946,2.8526,2.7829,2.6618,2.5357,5.489,5.5181,5.4296,5.3907,5.3795,5.3609,5.3442,5.3198,5.2456,5.1732,5.0879,4.9231,4.8417,4.8214,4.748,4.7058,4.6819,4.5388,4.4673,4.4525,4.3828,4.3497,4.3571,4.3533,4.3479,4.3533,4.3497,4.3479,4.3479,4.3479,4.3479,4.3479,4.3479,4.3479,4.3479,4.3479,4.3479,4.3479,4.348,4.3463,4.3425,4.2691,4.2251,4.2194,4.148,4.1058,4.1001,4.0985,4.0671,3.9989,3.9827,3.9441,3.8836,3.8726,3.9038,3.9735,3.979,4.0102,4.0726,4.0194,3.9756,3.9685,3.9048,3.8648,3.8549,3.8292,3.797,3.7774,3.7557,3.7464,3.7591,3.7535,3.7479,3.7458,3.7442,3.7242,3.6799,3.6696,3.6429,3.5558,3.6293,3.6168,3.5316,3.5384,3.5414,3.4826,3.477,3.4828,3.4979,3.5419,3.5596,3.5273,3.5146,3.5352,3.5215,3.4299,3.385,3.3965,3.3741,3.3318,3.2863,3.2584,3.233,3.2145,3.1571,3.1469,3.1241,3.0717,3.0074,2.9702,2.8804,2.7703,2.6817,2.6307,2.584,5.5093,5.4929,5.4491,5.4274,5.4202,5.3733,5.3191,5.2634,5.1844,5.1037,5.0202,4.9361,4.8847,4.8549,4.7754,4.7278,4.7021,4.592,4.5406,4.5388,4.5057,4.4911,4.4874,4.4415,4.4213,4.414,4.3736,4.3479,4.3479,4.3479,4.3479,4.3479,4.3479,4.3479,4.3479,4.3479,4.3479,4.3479,4.3479,4.3479,4.3478,4.3185,4.2782,4.2359,4.2433,4.2286,4.1882,4.1809,4.1644,4.1295,4.0448,3.9974,4.0102,3.968,3.9772,4.0524,4.0616,4.0763,4.1093,4.0765,4.0396,3.9918,3.9588,3.9239,3.8747,3.8564,3.8385,3.8203,3.7773,3.7505,3.7523,3.7505,3.7505,3.7505,3.7505,3.7432,3.7228,3.7154,3.6993,3.6708,3.6845,3.6653,3.572,3.5277,3.5028,3.4674,3.4622,3.4641,3.496,3.5314,3.5367,3.5118,3.4889,3.4729,3.4735,3.4091,3.3654,3.366,3.3604,3.3195,3.2641,3.2778,3.2667,3.1721,3.1509,3.1357,3.1263,3.0615,2.9956,2.9347,2.8535,2.7552,2.6707,2.6418,2.6067,5.534,5.4832,5.472,5.4693,5.4636,5.4027,5.3255,5.2412,5.1613,5.0766,4.9996,4.975,4.9464,4.9014,4.8091,4.7488,4.7168,4.636,4.5938,4.5938,4.5956,4.5828,4.5571,4.5038,4.4726,4.4616,4.3952,4.3583,4.362,4.3841,4.3914,4.3932,4.4116,4.4135,4.3932,4.3914,4.3804,4.3601,4.3601,4.3584,4.3531,4.3513,4.3238,4.2727,4.3185,4.3204,4.2671,4.2635,4.2506,4.2286,4.1167,4.0708,4.1056,4.0543,4.0598,4.135,4.1662,4.1756,4.1754,4.1554,4.1077,4.0322,4.0047,3.9551,3.8891,3.8707,3.8707,3.8643,3.8152,3.7861,3.7826,3.7826,3.7844,3.7826,3.7808,3.7791,3.7685,3.7667,3.7542,3.7363,3.7149,3.6809,3.5861,3.5002,3.438,3.4347,3.4366,3.4471,3.4877,3.5013,3.5173,3.499,3.4591,3.4523,3.4496,3.3758,3.3387,3.3383,3.3333,3.3002,3.259,3.2949,3.309,3.2056,3.1811,3.1389,3.0926,3.0404,2.9456,2.9044,2.8281,2.7385,2.6776,2.6521,2.6435,5.5638,5.5516,5.5256,5.5151,5.5151,5.5094,5.4487,5.3424,5.2734,5.1902,5.0982,5.0304,4.9962,4.9828,4.8457,4.7739,4.7564,4.67,4.6265,4.6265,4.6229,4.5733,4.4959,4.4832,4.4887,4.5033,4.4348,4.3937,4.3937,4.4581,4.4932,4.4969,4.5595,4.5651,4.5058,4.4909,4.4561,4.3968,4.3855,4.3736,4.3615,4.3617,4.3579,4.3456,4.3496,4.346,4.3423,4.3441,4.3111,4.2341,4.2174,4.1827,4.1224,4.1113,4.1444,4.2213,4.2928,4.3332,4.3204,4.2635,4.1901,4.1113,4.0469,3.9606,3.8927,3.8817,3.8781,3.8707,3.8611,3.8564,3.8564,3.8481,3.8549,3.8546,3.8596,3.8417,3.8101,3.8085,3.7723,3.7216,3.6982,3.6397,3.517,3.426,3.3872,3.3775,3.3716,3.3771,3.392,3.4404,3.4488,3.4225,3.4287,3.4624,3.4233,3.3609,3.3061,3.312,3.316,3.2724,3.257,3.2519,3.2518,3.2326,3.182,3.1232,3.0612,2.9661,2.8493,2.7844,2.7505,2.6859,2.6775,2.6725,2.6641,5.5692,5.5671,5.5543,5.5508,5.5527,5.5508,5.4729,5.3391,5.3077,5.2176,5.0996,5.0585,5.0451,5.0391,4.96,4.9098,4.881,4.8255,4.8014,4.7997,4.7809,4.7554,4.7259,4.6724,4.6466,4.6391,4.5726,4.5337,4.5355,4.5651,4.5762,4.5831,4.6271,4.6366,4.6081,4.5694,4.5279,4.4833,4.4516,4.4117,4.3837,4.4072,4.414,4.3934,4.3647,4.3479,4.3479,4.3699,4.3584,4.3092,4.274,4.2606,4.2632,4.2635,4.2745,4.3039,4.3349,4.3479,4.3442,4.324,4.2708,4.1956,4.1625,4.0834,3.9772,3.9441,3.9276,3.8854,3.8707,3.8707,3.8707,3.8707,3.8707,3.8707,3.8707,3.8661,3.853,3.8483,3.8355,3.7969,3.7223,3.6098,3.5117,3.4261,3.3771,3.3726,3.3726,3.3726,3.3762,3.4019,3.4073,3.3881,3.3959,3.4105,3.3988,3.3662,3.335,3.3441,3.3426,3.3383,3.327,3.3079,3.3046,3.245,3.1875,3.1,3.0325,2.9467,2.8209,2.793,2.7508,2.7021,2.6859,2.6841,2.6775,5.5684,5.5684,5.5684,5.5684,5.5684,5.5684,5.4914,5.3645,5.3318,5.2395,5.1221,5.0818,5.0683,5.0663,5.041,5.0159,4.9859,4.9464,4.9256,4.9259,4.9015,4.8803,4.8468,4.7984,4.7723,4.7665,4.7234,4.6858,4.6635,4.684,4.697,4.7002,4.7425,4.7548,4.7291,4.69,4.6504,4.6017,4.5391,4.4871,4.4467,4.4468,4.4397,4.4192,4.3876,4.3747,4.3825,4.403,4.4045,4.3781,4.3453,4.3385,4.3607,4.3548,4.3479,4.3496,4.3595,4.3644,4.3677,4.3756,4.3471,4.2604,4.2511,4.1907,4.0578,4.0349,3.9929,3.9344,3.9108,3.9038,3.8762,3.8707,3.8707,3.8707,3.8707,3.8707,3.8707,3.8692,3.8398,3.7793,3.6949,3.5885,3.4839,3.416,3.3862,3.3807,3.3807,3.3807,3.3807,3.3807,3.3807,3.3807,3.3825,3.3867,3.3849,3.3679,3.3597,3.3652,3.3684,3.3734,3.3693,3.3538,3.3232,3.2587,3.1729,3.0805,2.9937,2.9157,2.8711,2.8456,2.7967,2.7426,2.7227,2.7004,2.6971,5.5684,5.5684,5.5684,5.5684,5.5684,5.5684,5.5222,5.426,5.353,5.2626,5.1587,5.101,5.0683,5.0683,5.0653,5.0634,5.0483,5.0025,4.9716,4.9617,4.9556,4.9164,4.856,4.8489,4.8452,4.8466,4.8518,4.8123,4.7496,4.8132,4.8491,4.8697,4.9213,4.9159,4.8598,4.8447,4.8068,4.7321,4.6537,4.5929,4.5552,4.4885,4.4444,4.4296,4.4185,4.4231,4.4465,4.4425,4.4369,4.436,4.4332,4.4242,4.3999,4.3747,4.3531,4.3597,4.3836,4.3967,4.4031,4.4304,4.4045,4.3334,4.3071,4.2638,4.1701,4.1342,4.0945,4.0231,3.9998,3.9685,3.8992,3.886,3.8808,3.8707,3.8707,3.8707,3.8707,3.8707,3.8138,3.6927,3.6464,3.5624,3.4394,3.399,3.3954,3.3844,3.3807,3.3807,3.3807,3.3807,3.3807,3.3807,3.3807,3.3807,3.3807,3.3807,3.3793,3.3793,3.378,3.3788,3.3665,3.3533,3.3336,3.2716,3.1339,3.0386,2.9782,2.9044,2.8719,2.8418,2.8032,2.7829,2.756,2.7365,2.7243,5.5684,5.5684,5.5684,5.5684,5.5684,5.5684,5.4934,5.3645,5.3299,5.2414,5.1202,5.0798,5.0683,5.0693,5.0683,5.0712,5.0712,5.0968,5.0784,5.0126,4.9851,4.9638,4.9392,4.9373,4.9373,4.9373,4.9386,4.9305,4.9129,4.9318,4.9419,4.9521,4.9867,4.9954,4.973,4.9365,4.89,4.8438,4.764,4.6986,4.6502,4.5814,4.5367,4.5158,4.4913,4.4831,4.4893,4.4758,4.4585,4.4425,4.4572,4.4565,4.4303,4.4173,4.4038,4.3968,4.4169,4.427,4.4202,4.4419,4.4485,4.4167,4.4097,4.3662,4.2868,4.2645,4.2193,4.1376,4.1292,4.096,3.9997,3.9828,3.9592,3.8808,3.8707,3.8707,3.8738,3.8704,3.8212,3.7401,3.7125,3.6358,3.5114,3.4619,3.4376,3.393,3.3852,3.3834,3.3834,3.3855,3.3807,3.3807,3.3807,3.386,3.3873,3.3887,3.386,3.3834,3.3807,3.3807,3.3697,3.3403,3.3238,3.2577,3.1176,3.0247,2.9612,2.9099,2.8771,2.8715,2.8613,2.8312,2.7933,2.7754,2.7651,5.5992,5.5703,5.5684,5.5684,5.5684,5.5684,5.5126,5.4155,5.3831,5.2916,5.1838,5.1693,5.1299,5.0952,5.1318,5.1433,5.1279,5.2,5.2015,5.13,5.0768,5.0455,5.0245,5.0474,5.0588,5.0664,5.0924,5.1058,5.1058,5.1077,5.1058,5.1114,5.1232,5.1127,5.0859,5.0507,5.0083,4.943,4.8629,4.7915,4.7259,4.6374,4.5771,4.5543,4.5079,4.4929,4.5045,4.4976,4.4875,4.4782,4.4837,4.4776,4.4637,4.4533,4.4411,4.4369,4.4533,4.4657,4.4572,4.483,4.49,4.4842,4.4806,4.4549,4.3995,4.3844,4.3372,4.261,4.2448,4.2083,4.1113,4.0654,4.0285,3.9644,3.9029,3.8814,3.8825,3.8844,3.8475,3.7852,3.7525,3.6809,3.5917,3.5161,3.4958,3.4455,3.4157,3.4018,3.4037,3.4099,3.4074,3.4093,3.4148,3.4111,3.3985,3.3947,3.3908,3.3873,3.3807,3.3807,3.3752,3.3293,3.2949,3.2284,3.1127,3.0638,3.0027,2.9326,2.8895,2.8992,2.9002,2.8706,2.8308,2.8215,2.8106,5.6464,5.5801,5.5744,5.5737,5.5757,5.5738,5.5613,5.5421,5.4852,5.3994,5.3254,5.3078,5.2385,5.1501,5.2375,5.2587,5.2231,5.2865,5.3135,5.2826,5.2333,5.1727,5.1189,5.1621,5.187,5.2007,5.2613,5.2969,5.2803,5.2822,5.3203,5.292,5.2843,5.275,5.2037,5.1942,5.135,5.0363,4.9622,4.9023,4.8231,4.678,4.5823,4.5715,4.4993,4.4699,4.4981,4.509,4.5224,4.5319,4.5145,4.503,4.4985,4.4769,4.467,4.4644,4.4931,4.5052,4.5159,4.5293,4.5419,4.5232,4.5201,4.5137,4.4817,4.4675,4.4369,4.3696,4.3564,4.3144,4.227,4.1539,4.1024,4.0639,3.9581,3.905,3.9096,3.9136,3.8833,3.8255,3.7757,3.7327,3.6592,3.5952,3.5629,3.52,3.4809,3.461,3.4409,3.4442,3.4537,3.4526,3.4472,3.4375,3.4244,3.4208,3.4184,3.4111,3.4018,3.3941,3.3855,3.338,3.2858,3.2137,3.1477,3.1005,3.0338,2.9555,2.9078,2.9008,2.8949,2.8846,2.8755,2.8614,2.8525,5.6336,5.6743,5.6125,5.5896,5.5982,5.5986,5.5622,5.506,5.4866,5.4279,5.3528,5.3402,5.3155,5.2636,5.2972,5.3068,5.3106,5.376,5.376,5.3356,5.3703,5.3318,5.2683,5.2722,5.2856,5.2914,5.3203,5.3203,5.3203,5.3318,5.3299,5.3203,5.3337,5.3164,5.2876,5.2865,5.2364,5.1615,5.1478,5.0667,4.9381,4.8484,4.7425,4.6267,4.5604,4.5108,4.4919,4.5191,4.5371,4.54,4.5351,4.5283,4.5273,4.5192,4.5096,4.5041,4.5222,4.5322,4.5253,4.5438,4.5531,4.5513,4.5476,4.5476,4.541,4.5362,4.5148,4.4866,4.4859,4.4484,4.3388,4.2566,4.1654,4.022,3.9674,3.9396,3.9451,3.9469,3.9356,3.9163,3.9014,3.8464,3.7821,3.7412,3.6929,3.5965,3.5477,3.5179,3.4893,3.4724,3.4764,3.4694,3.4632,3.4591,3.4537,3.4497,3.4453,3.4398,3.4295,3.4165,3.4012,3.3708,3.3172,3.2546,3.1955,3.1446,3.0484,2.9604,2.9335,2.9262,2.9012,2.8995,2.8977,2.8906,2.8912,5.6627,5.7125,5.6255,5.5975,5.6084,5.6096,5.5811,5.5429,5.5378,5.4866,5.4147,5.4396,5.403,5.3309,5.3914,5.403,5.3895,5.4626,5.4703,5.4453,5.478,5.428,5.353,5.3491,5.376,5.3799,5.4087,5.426,5.428,5.4241,5.4241,5.4318,5.4241,5.4087,5.376,5.3722,5.3247,5.2475,5.2393,5.1773,5.0415,4.9642,4.8701,4.7376,4.6445,4.564,4.5539,4.5878,4.5907,4.5582,4.5476,4.5466,4.5466,4.5485,4.5429,4.5322,4.5457,4.5466,4.5429,4.5513,4.5586,4.5594,4.5594,4.5594,4.5586,4.5594,4.5504,4.54,4.5522,4.5179,4.4498,4.3522,4.2221,4.095,4.0233,3.9943,3.9816,3.9786,3.9786,3.9765,3.963,3.9413,3.872,3.8603,3.7788,3.6788,3.6231,3.5704,3.5171,3.5067,3.501,3.503,3.5002,3.4983,3.4851,3.4784,3.4695,3.4645,3.4603,3.4456,3.4311,3.4074,3.3623,3.3074,3.2465,3.1795,3.1013,3.0328,3.0063,2.9879,2.945,2.937,2.9524,2.9253,2.9272,5.7139,5.7295,5.6328,5.6013,5.6154,5.6142,5.6136,5.6142,5.6197,5.5709,5.5099,5.5703,5.5045,5.3579,5.4888,5.5261,5.4664,5.5261,5.553,5.5491,5.5491,5.4895,5.3933,5.4357,5.4607,5.4684,5.5357,5.5491,5.5395,5.5511,5.5607,5.5434,5.5511,5.528,5.4741,5.4607,5.3999,5.3273,5.3223,5.2616,5.1469,5.0599,4.9721,4.858,4.7125,4.6521,4.6593,4.681,4.6693,4.583,4.5683,4.5577,4.5586,4.5586,4.5586,4.5568,4.5568,4.5586,4.5586,4.5577,4.5594,4.5594,4.5594,4.5594,4.5594,4.5594,4.5586,4.554,4.5594,4.5433,4.5059,4.4,4.2956,4.1933,4.116,4.0558,4.0263,4.0167,4.0101,4.0043,3.9821,3.9724,3.949,3.9091,3.8465,3.7764,3.729,3.692,3.6397,3.6184,3.5924,3.5618,3.5541,3.5442,3.5239,3.5051,3.4944,3.487,3.4851,3.4784,3.4735,3.449,3.4126,3.3642,3.3082,3.2583,3.2057,3.15,3.1013,3.0475,3.002,3.0247,3.049,2.9886,2.9639,5.7573,5.8317,5.6737,5.6225,5.6459,5.6452,5.6414,5.6398,5.6445,5.6213,5.5998,5.6064,5.5773,5.5284,5.5537,5.5588,5.5397,5.5618,5.5684,5.5684,5.5684,5.5568,5.5126,5.5318,5.5376,5.5453,5.5568,5.5684,5.5684,5.5684,5.5684,5.5684,5.5684,5.5626,5.5434,5.5318,5.5019,5.4367,5.4475,5.3861,5.2653,5.1921,5.0954,4.9524,4.8157,4.7487,4.7469,4.7693,4.7731,4.7288,4.6432,4.5806,4.571,4.5633,4.5594,4.5594,4.5594,4.5594,4.5594,4.5594,4.5594,4.5594,4.5594,4.5594,4.5594,4.5594,4.5594,4.5594,4.5575,4.5336,4.4816,4.4335,4.3624,4.2854,4.2066,4.1465,4.1319,4.0811,4.0419,4.0345,4.0292,4.0239,4.0091,4.008,3.9503,3.88,3.8421,3.8209,3.774,3.7228,3.6875,3.6418,3.6104,3.6032,3.5975,3.5686,3.537,3.5179,3.5094,3.5086,3.5043,3.4896,3.4519,3.4159,3.3749,3.3284,3.283,3.2264,3.1677,3.1142,3.0734,3.0813,3.0812,3.0324,3.0138,5.7951,5.8078,5.7187,5.671,5.6604,5.6521,5.6497,5.6494,5.6481,5.6422,5.6315,5.6208,5.6123,5.5982,5.5854,5.5798,5.5788,5.5726,5.5684,5.5684,5.5684,5.5684,5.5684,5.5684,5.5684,5.5684,5.5684,5.5684,5.5684,5.5684,5.5684,5.5684,5.5684,5.5684,5.5684,5.5684,5.5491,5.5182,5.5297,5.486,5.3823,5.3086,5.1732,5.0208,4.9254,4.8966,4.8565,4.8635,4.8692,4.8394,4.749,4.6567,4.6163,4.5817,4.5633,4.5594,4.5594,4.5594,4.5594,4.5594,4.5594,4.5614,4.5594,4.5594,4.5594,4.5594,4.5594,4.5594,4.5556,4.5374,4.4951,4.4432,4.4066,4.3682,4.2912,4.2297,4.1797,4.1046,4.0496,4.0496,4.0473,4.0433,4.0433,4.0457,4.0073,3.9158,3.8986,3.8742,3.8062,3.7627,3.7615,3.7262,3.6839,3.6647,3.6671,3.6399,3.5859,3.558,3.5335,3.5335,3.532,3.5146,3.4922,3.4541,3.4175,3.3941,3.3478,3.2901,3.2727,3.2751,3.2443,3.1755,3.1266,3.1162,3.1024,5.8309,5.7729,5.7639,5.721,5.6637,5.6536,5.6516,5.6499,5.6506,5.6461,5.6356,5.6323,5.6251,5.6128,5.5993,5.5935,5.5889,5.5798,5.5749,5.5735,5.5695,5.5695,5.5684,5.5684,5.5684,5.5684,5.5684,5.5684,5.5684,5.5684,5.5684,5.5684,5.5684,5.5684,5.5684,5.5684,5.5645,5.5588,5.563,5.5489,5.4731,5.3889,5.2224,5.0758,5.0303,5.0298,4.9865,4.9731,4.9586,4.9548,4.8779,4.8029,4.7298,4.6509,4.597,4.6037,4.6191,4.6249,4.6229,4.6018,4.5874,4.5797,4.5633,4.5594,4.5594,4.5594,4.5594,4.5594,4.5575,4.5575,4.5537,4.5047,4.4624,4.4355,4.3778,4.3008,4.2258,4.1393,4.1073,4.0496,4.0496,4.0473,4.0473,4.0469,4.0027,3.9669,3.9515,3.9265,3.8623,3.8296,3.8411,3.8296,3.7911,3.7392,3.7346,3.6839,3.6332,3.5986,3.5659,3.5512,3.5512,3.536,3.5143,3.489,3.4569,3.4402,3.4281,3.3985,3.3998,3.4348,3.376,3.2616,3.2212,3.2086,3.1942,5.8725,5.8689,5.796,5.7275,5.6647,5.6589,5.6548,5.6525,5.6548,5.6543,5.6469,5.6394,5.6367,5.6316,5.6197,5.6091,5.5998,5.5894,5.5835,5.5788,5.5726,5.5714,5.5714,5.5695,5.5684,5.5684,5.5684,5.5684,5.5684,5.5684,5.5684,5.5684,5.5684,5.5684,5.5695,5.5703,5.5714,5.5716,5.5798,5.5718,5.5368,5.4331,5.3097,5.1653,5.1322,5.1199,5.1279,5.0837,5.0481,5.0394,4.9644,4.9202,4.8836,4.8163,4.7702,4.7471,4.7432,4.7355,4.7336,4.699,4.6759,4.6528,4.6086,4.5652,4.5614,4.5594,4.5594,4.5594,4.5594,4.5594,4.5594,4.5344,4.5364,4.5152,4.4652,4.4008,4.3662,4.3008,4.1997,4.1112,4.0804,4.0496,4.0496,4.0496,4.0285,4.0092,4.0035,3.9996,3.97,3.9546,3.9611,3.9373,3.9027,3.8469,3.8027,3.7308,3.6731,3.6378,3.6031,3.5608,3.5577,3.5519,3.5332,3.5112,3.5093,3.5096,3.499,3.4835,3.4669,3.4592,3.3954,3.3287,3.31,3.2948,3.2966,5.8708,5.8287,5.7929,5.7343,5.6693,5.6616,5.6577,5.6558,5.6577,5.6576,5.6551,5.6538,5.6508,5.6477,5.637,5.6237,5.6116,5.5974,5.5927,5.5872,5.5798,5.5756,5.5745,5.5724,5.5695,5.5684,5.5684,5.5684,5.5684,5.5684,5.5742,5.5684,5.5684,5.5705,5.5745,5.5756,5.5765,5.5787,5.5818,5.5898,5.5912,5.4796,5.3812,5.2981,5.2404,5.2319,5.2386,5.2279,5.1991,5.1837,5.1164,5.0779,5.0433,4.9894,4.9029,4.8394,4.8182,4.8135,4.8105,4.7682,4.7365,4.6885,4.6471,4.6047,4.5729,4.5594,4.5633,4.5594,4.5594,4.5594,4.5594,4.5594,4.5594,4.5537,4.519,4.4786,4.4355,4.3951,4.3028,4.192,4.1604,4.12,4.0496,4.0496,4.0496,4.0496,4.0516,4.0496,4.0496,4.04,4.0265,4.0092,3.9688,3.9188,3.8688,3.8123,3.743,3.7,3.6538,3.6115,3.5712,3.5673,3.5558,3.5397,3.5481,3.5635,3.5441,3.5189,3.5012,3.4851,3.4538,3.4232,3.3997,3.384,3.3795,5.8487,5.776,5.786,5.7399,5.6678,5.6619,5.662,5.6621,5.6601,5.6619,5.6619,5.6597,5.6596,5.6572,5.6491,5.6384,5.6257,5.6141,5.6071,5.5994,5.59,5.5827,5.5797,5.5756,5.5735,5.5735,5.5695,5.5684,5.5761,5.5953,5.6002,5.6079,5.5992,5.5985,5.6104,5.5931,5.5893,5.5836,5.5856,5.5924,5.5687,5.5223,5.4582,5.3838,5.3469,5.3244,5.3414,5.3126,5.301,5.2856,5.2491,5.2115,5.2038,5.1548,5.05,4.9192,4.875,4.8625,4.8625,4.8413,4.8163,4.7721,4.7288,4.6778,4.6364,4.6152,4.5853,4.5661,4.562,4.562,4.564,4.5631,4.5603,4.5594,4.5537,4.5364,4.4893,4.4489,4.4182,4.3316,4.2701,4.2124,4.1604,4.0969,4.1066,4.0835,4.0835,4.0516,4.0496,4.0496,4.0419,4.0458,4.0189,3.9746,3.9361,3.9092,3.843,3.7892,3.7353,3.6834,3.6288,3.5865,3.5788,3.575,3.5885,3.5981,3.5769,3.5635,3.5537,3.5436,3.535,3.512,3.476,3.4538,3.4448,5.7968,5.7871,5.789,5.7383,5.666,5.6621,5.6621,5.6621,5.6621,5.6621,5.6621,5.6621,5.6621,5.6601,5.6582,5.6523,5.6441,5.6358,5.6237,5.6123,5.6032,5.596,5.5895,5.5826,5.5798,5.5788,5.5747,5.5695,5.581,5.6349,5.6753,5.6733,5.6618,5.687,5.6855,5.6317,5.5855,5.5924,5.5977,5.5715,5.5255,5.5048,5.4825,5.4463,5.3988,5.3793,5.4166,5.3857,5.3472,5.3356,5.3203,5.3049,5.3049,5.3,5.2463,5.1607,5.0914,5.0385,5.0125,4.9615,4.9134,4.8711,4.8336,4.7971,4.748,4.6987,4.6485,4.5712,4.5737,4.5706,4.5701,4.5673,4.5637,4.5612,4.5603,4.5584,4.5344,4.5075,4.4748,4.4517,4.3816,4.3451,4.3028,4.2277,4.1635,4.1373,4.1123,4.0854,4.0669,4.0816,4.0535,4.0516,4.0496,4.0112,3.9919,3.9669,3.9227,3.8681,3.818,3.7584,3.7007,3.6519,3.6212,3.6212,3.6423,3.6462,3.6269,3.6173,3.6096,3.6037,3.5974,3.5739,3.5441,3.5271,3.5174,5.7461,5.7871,5.7363,5.6953,5.664,5.6621,5.6621,5.6621,5.6621,5.6621,5.6621,5.6621,5.6621,5.6621,5.6621,5.6582,5.6534,5.6476,5.64,5.6299,5.6186,5.6104,5.6084,5.6047,5.6002,5.5965,5.5844,5.5779,5.5932,5.6139,5.6445,5.6945,5.6656,5.6832,5.7578,5.7003,5.6714,5.6532,5.6246,5.5843,5.561,5.5486,5.542,5.5365,5.4881,5.4872,5.4907,5.4914,5.4626,5.4511,5.426,5.3933,5.3655,5.3146,5.2435,5.2714,5.1433,5.0777,5.0642,5.0345,4.9961,4.9528,4.9047,4.8625,4.8211,4.7843,4.7292,4.6482,4.6428,4.6232,4.5838,4.5695,4.5687,4.5671,4.5637,4.5648,4.564,4.5594,4.5364,4.519,4.4979,4.4556,4.4094,4.3382,4.2701,4.2393,4.222,4.2047,4.1777,4.1643,4.1162,4.0535,4.0516,4.0419,4.0323,4.0169,3.9727,3.9258,3.9046,3.843,3.7777,3.7315,3.7046,3.7276,3.7815,3.7603,3.7019,3.6962,3.7103,3.6892,3.6603,3.6469,3.6315,3.6128,3.5957,5.6973,5.75,5.6855,5.6621,5.6621,5.6621,5.6621,5.6621,5.6621,5.6621,5.6621,5.6621,5.6621,5.6621,5.6621,5.6601,5.6601,5.6533,5.6499,5.6455,5.6358,5.6264,5.6217,5.6197,5.6283,5.6368,5.6449,5.6524,5.6607,5.6657,5.7032,5.7321,5.736,5.7566,5.81,5.792,5.7439,5.7024,5.6372,5.6001,5.5868,5.5842,5.5815,5.5798,5.5768,5.5684,5.5684,5.5626,5.5607,5.5472,5.5128,5.483,5.4638,5.4043,5.3504,5.3427,5.2404,5.1506,5.1227,5.0834,5.0421,5.0028,4.9701,4.9394,4.8653,4.8459,4.8167,4.7321,4.6984,4.6634,4.619,4.5901,4.5708,4.5711,4.5679,4.569,4.5682,4.5637,4.5612,4.546,4.5353,4.5449,4.493,4.4333,4.3833,4.3451,4.3278,4.3181,4.2816,4.2393,4.1777,4.1027,4.0631,4.0593,4.0516,4.0381,4.0015,3.9861,3.9669,3.9258,3.8584,3.8238,3.8046,3.8469,3.8911,3.87,3.8084,3.8104,3.8084,3.7623,3.7276,3.7334,3.7238,3.7026,3.6673,5.664,5.6699,5.664,5.6621,5.6621,5.6621,5.6621,5.6621,5.6621,5.6621,5.6621,5.6621,5.6621,5.6621,5.6621,5.6621,5.6601,5.6582,5.6556,5.652,5.648,5.64,5.6351,5.6379,5.6597,5.7157,5.717,5.7554,5.8161,5.8114,5.821,5.8239,5.8321,5.9074,5.9309,5.8809,5.8018,5.7429,5.6597,5.6029,5.5885,5.5808,5.5788,5.5737,5.5705,5.5684,5.5684,5.5724,5.5724,5.5724,5.5612,5.5555,5.5392,5.5036,5.4699,5.437,5.3415,5.2594,5.2208,5.1276,5.072,5.0605,5.0471,5.0135,4.9442,4.9364,4.8958,4.8235,4.7822,4.7248,4.6765,4.6349,4.6036,4.5731,4.5708,4.5695,4.5706,4.569,4.5646,4.564,4.564,4.5637,4.5637,4.4991,4.4669,4.4306,4.397,4.3835,4.3258,4.2816,4.2297,4.1662,4.0969,4.0708,4.0593,4.0419,4.0246,4.0342,4.0323,3.99,3.9354,3.9169,3.9296,3.895,3.92,3.9188,3.9227,3.915,3.888,3.8257,3.8007,3.8257,3.8065,3.7719,3.7296,5.6621,5.6621,5.6621,5.6621,5.6621,5.6621,5.6621,5.6621,5.6621,5.6621,5.6621,5.6621,5.6621,5.6621,5.6621,5.6621,5.6621,5.6601,5.6601,5.6582,5.6556,5.6523,5.6484,5.666,5.6858,5.7528,5.7677,5.7979,5.8606,5.9224,5.9413,5.9386,5.9244,5.9666,5.9773,5.9611,5.8839,5.7998,5.7149,5.6493,5.5845,5.5756,5.5716,5.5695,5.5745,5.5756,5.5766,5.5806,5.5816,5.5826,5.5846,5.5875,5.5789,5.5519,5.5392,5.5237,5.4176,5.3558,5.321,5.1951,5.075,5.0702,5.0664,5.0558,5.0154,5.0192,4.9806,4.9225,4.8709,4.8202,4.7109,4.6773,4.6494,4.5989,4.5785,4.5823,4.5788,4.5819,4.5679,4.5673,4.5671,4.5676,4.5676,4.5618,4.5376,4.515,4.4814,4.444,4.3912,4.3412,4.2951,4.245,4.1797,4.1412,4.1296,4.095,4.0593,4.0804,4.1035,4.0746,4.045,4.0758,4.0739,4.0162,3.9681,3.9919,4.0054,4.0035,3.9592,3.8777,3.8892,3.9392,3.9008,3.845,3.8007,5.6621,5.6621,5.6621,5.6621,5.6621,5.6621,5.6621,5.6621,5.6621,5.6621,5.6621,5.6621,5.6621,5.6621,5.6621,5.6621,5.6621,5.664,5.6797,5.6933,5.707,5.7148,5.7285,5.7558,5.7982,5.834,5.8574,5.8973,5.9806,6.0257,6.039,6.0195,5.9796,6.0308,6.0442,6.019,5.9456,5.879,5.7728,5.6984,5.6249,5.5891,5.5724,5.5724,5.5756,5.5787,5.5816,5.5836,5.5885,5.5895,5.5905,5.5943,5.575,5.5556,5.5497,5.5284,5.4841,5.4137,5.3869,5.2945,5.1376,5.1241,5.1125,5.0991,5.077,5.0702,5.0269,4.9951,4.9637,4.9043,4.773,4.7646,4.7395,4.6986,4.6457,4.6376,4.6175,4.609,4.5873,4.5706,4.5719,4.5715,4.57,4.5692,4.5629,4.5472,4.5321,4.5034,4.4767,4.4278,4.3816,4.3297,4.2701,4.2412,4.2154,4.1912,4.172,4.1835,4.1989,4.1893,4.1797,4.2008,4.1816,4.1104,4.0777,4.0881,4.09,4.0912,4.0123,3.9161,3.9508,3.9919,3.9785,3.9227,3.8861,5.6621,5.6621,5.6621,5.6621,5.6621,5.6621,5.6621,5.6621,5.6621,5.6621,5.6621,5.6621,5.6621,5.6621,5.6621,5.6621,5.6621,5.664,5.6973,5.7539,5.7637,5.8242,5.8672,5.8906,5.9004,6.0058,6.0078,6.0262,6.1271,6.1247,6.1296,6.1244,6.0953,6.0981,6.1018,6.0201,5.9725,5.9445,5.8066,5.7476,5.6829,5.6278,5.5985,5.5735,5.5788,5.5827,5.5836,5.5923,5.5942,5.5933,5.5961,5.599,5.5922,5.59,5.588,5.5844,5.5113,5.4641,5.4448,5.3648,5.2887,5.201,5.1779,5.1433,5.0933,5.0712,5.0664,5.0327,5.0018,4.9621,4.9108,4.8764,4.8334,4.7824,4.7256,4.7017,4.6835,4.6437,4.6241,4.6051,4.5874,4.5773,4.5723,4.5708,4.5711,4.5668,4.5671,4.5549,4.5323,4.5056,4.4566,4.4162,4.3605,4.3258,4.3028,4.2951,4.2874,4.297,4.2912,4.2777,4.2624,4.2566,4.2277,4.1854,4.1777,4.1777,4.1777,4.1769,4.1123,4.0566,4.0015,4.0131,4.0092,3.9977,3.9592,5.6621,5.6621,5.6621,5.6621,5.6621,5.6621,5.6621,5.6621,5.6621,5.6621,5.6621,5.6621,5.6621,5.6621,5.6621,5.6621,5.6621,5.6621,5.707,5.7812,5.7949,5.8437,5.9004,5.9453,5.9687,6.0195,6.0449,6.0879,6.1577,6.166,6.164,6.1592,6.1502,6.1417,6.1285,6.0847,6.0638,6.0011,5.9174,5.8431,5.7293,5.6762,5.6295,5.5784,5.5865,5.5902,5.5895,5.6025,5.6145,5.6075,5.6103,5.6093,5.6074,5.6061,5.6005,5.5999,5.5509,5.5422,5.5323,5.4869,5.4204,5.3203,5.2327,5.1962,5.1529,5.0933,5.0779,5.0731,5.0548,5.0114,4.9486,4.9309,4.8919,4.8311,4.7886,4.7886,4.7674,4.7105,4.6718,4.653,4.6356,4.6042,4.5919,4.5781,4.5739,4.5754,4.573,4.5717,4.553,4.5496,4.521,4.494,4.4528,4.4124,4.3855,4.3775,4.3591,4.3476,4.3544,4.3547,4.3393,4.3286,4.3047,4.2777,4.272,4.2662,4.2662,4.2643,4.2566,4.2162,4.1296,4.0727,4.0708,4.0573,4.0246,5.6621,5.6621,5.6621,5.6621,5.6621,5.6621,5.6621,5.6621,5.6621,5.6621,5.6621,5.6621,5.6621,5.6621,5.6621,5.6621,5.6621,5.6621,5.707,5.7851,5.8262,5.8906,5.9492,5.9863,6.0254,6.0508,6.0723,6.1133,6.1191,6.1543,6.166,6.1668,6.1618,6.1572,6.1471,6.1273,6.1026,6.0461,5.991,5.9087,5.8031,5.7287,5.6693,5.6149,5.5965,5.6025,5.6095,5.6283,5.6548,5.6452,5.6429,5.6429,5.6418,5.6177,5.6054,5.5961,5.5866,5.5757,5.5647,5.5618,5.4944,5.428,5.3269,5.2692,5.2423,5.1991,5.1798,5.1635,5.128,5.0895,5.0451,5.0257,4.9753,4.9159,4.8918,4.8918,4.8601,4.8031,4.7523,4.7308,4.7093,4.6702,4.6232,4.5916,4.5798,4.5788,4.5777,4.5773,4.575,4.5654,4.5618,4.5404,4.5241,4.4914,4.4655,4.4578,4.4347,4.4058,4.4146,4.4333,4.4311,4.4204,4.3957,4.3709,4.3629,4.3553,4.3536,4.3489,4.3363,4.2882,4.2047,4.1604,4.1412,4.1181,4.0969,5.6621,5.6621,5.6621,5.6621,5.6621,5.6621,5.6621,5.6621,5.6621,5.6621,5.6621,5.6621,5.6621,5.6621,5.6621,5.6621,5.6621,5.6621,5.7168,5.7871,5.8437,5.9336,6.0195,6.0859,6.0683,6.0762,6.0898,6.0859,6.0605,6.1308,6.168,6.171,6.1694,6.1674,6.1572,6.1451,6.1256,6.0972,6.056,5.9756,5.8855,5.7935,5.7194,5.6594,5.6246,5.6238,5.642,5.6815,5.7168,5.7276,5.73,5.729,5.7028,5.6495,5.6163,5.5895,5.5787,5.5745,5.5705,5.5724,5.5665,5.5164,5.4761,5.4107,5.3433,5.2953,5.2683,5.2529,5.227,5.2068,5.1828,5.1366,5.0912,5.0493,5.0107,4.9896,4.9606,4.9132,4.8623,4.8338,4.8174,4.7799,4.7187,4.6735,4.6442,4.6235,4.6229,4.6016,4.595,4.5727,4.568,4.57,4.5588,4.5615,4.5433,4.5178,4.5101,4.4792,4.5018,4.5175,4.5145,4.4988,4.471,4.4498,4.446,4.4441,4.4432,4.43,4.4102,4.3525,4.3176,4.2659,4.2486,4.2085,4.1912,5.6621,5.6621,5.6621,5.6621,5.6621,5.6621,5.6621,5.6621,5.6621,5.6621,5.6621,5.6621,5.6621,5.6621,5.6621,5.6621,5.6621,5.6719,5.7187,5.7773,5.8242,5.9199,6.0,6.0566,6.0566,6.0527,6.0547,6.0625,6.0605,6.1209,6.1634,6.1702,6.1713,6.1705,6.1671,6.1586,6.1545,6.1443,6.1111,6.0473,5.9688,5.8799,5.79,5.7181,5.6558,5.6566,5.6934,5.7308,5.7691,5.8083,5.8179,5.8062,5.726,5.7028,5.678,5.6029,5.5856,5.5766,5.5766,5.5735,5.5714,5.5695,5.5406,5.4972,5.428,5.3722,5.3414,5.3356,5.3164,5.2914,5.2741,5.2386,5.1856,5.1378,5.1075,5.085,5.05,4.9961,4.9476,4.9272,4.9123,4.8579,4.7998,4.7772,4.7456,4.7068,4.6749,4.6576,4.6224,4.6009,4.5759,4.5794,4.5773,4.5764,4.5704,4.5499,4.5565,4.5615,4.5668,4.5679,4.5522,4.5375,4.5329,4.5232,4.5078,4.5175,4.531,4.5101,4.4787,4.5065,4.4776,4.4116,4.3522,4.3091,4.286,5.6074,5.6133,5.6465,5.6621,5.6621,5.6621,5.6621,5.6621,5.6621,5.6621,5.6621,5.6621,5.6621,5.6621,5.6621,5.6621,5.6621,5.6621,5.6914,5.7187,5.7734,5.8437,5.9219,5.9746,5.9629,5.9668,5.9687,5.9687,5.9941,6.0662,6.1222,6.1699,6.1709,6.1705,6.1698,6.1671,6.1693,6.1652,6.147,6.1033,6.0353,5.9634,5.8795,5.781,5.7112,5.7196,5.7448,5.7793,5.8365,5.8886,5.905,5.87,5.7782,5.7251,5.6712,5.6,5.5905,5.5846,5.5817,5.5816,5.5785,5.5745,5.5716,5.5455,5.5117,5.4645,5.4472,5.4337,5.3991,5.3683,5.3568,5.3358,5.2742,5.2127,5.1958,5.1794,5.127,5.0713,5.0408,5.0184,4.978,4.9232,4.8887,4.8715,4.8443,4.8005,4.7774,4.7704,4.7108,4.6454,4.6111,4.5891,4.5867,4.5841,4.5851,4.5899,4.5822,4.5795,4.5708,4.5708,4.5723,4.57,4.5592,4.5596,4.5638,4.5658,4.5619,4.563,4.5499,4.5692,4.5703,4.5117,4.4465,4.4052,4.3936,5.5234,5.541,5.623,5.6621,5.6621,5.6621,5.6621,5.6621,5.6621,5.6621,5.6621,5.6621,5.6621,5.6621,5.6621,5.6621,5.6621,5.6621,5.664,5.664,5.7285,5.7969,5.8574,5.8769,5.9101,5.8711,5.8691,5.9238,5.8906,5.99,6.1282,6.168,6.1699,6.1715,6.1709,6.1707,6.1709,6.1692,6.1608,6.1322,6.0778,6.0254,5.9703,5.8533,5.8055,5.7907,5.8051,5.8506,5.9163,5.9636,5.9795,5.9551,5.8343,5.6991,5.6288,5.6028,5.5933,5.5914,5.5885,5.5885,5.5846,5.5826,5.5816,5.5719,5.5486,5.531,5.5126,5.5081,5.4764,5.4651,5.4535,5.4369,5.3884,5.3386,5.3081,5.2746,5.2219,5.1638,5.1175,5.0897,5.0437,4.997,4.9863,4.9701,4.9406,4.8945,4.8758,4.8743,4.8164,4.7266,4.6952,4.6488,4.607,4.615,4.6471,4.6441,4.6074,4.5938,4.5909,4.5801,4.586,4.5861,4.5831,4.5826,4.5821,4.5749,4.5708,4.5727,4.5719,4.5723,4.5723,4.5715,4.5368,4.4878,4.4839,5.4707,5.539,5.623,5.6621,5.6621,5.6621,5.6621,5.6621,5.6621,5.6621,5.6621,5.6621,5.6621,5.6621,5.6621,5.6621,5.6621,5.6621,5.6621,5.6621,5.6953,5.7617,5.8515,5.8672,5.8828,5.9023,5.9062,5.9043,5.9198,6.031,6.1383,6.1669,6.1707,6.1704,6.1701,6.1701,6.1702,6.1702,6.1656,6.1601,6.1328,6.0781,6.0155,5.9843,5.9664,5.9307,5.944,5.9749,6.0192,6.0577,6.0742,6.0016,5.8662,5.697,5.6149,5.6005,5.6018,5.6058,5.5991,5.5991,5.6001,5.5895,5.5885,5.5875,5.5826,5.5745,5.5696,5.568,5.5615,5.5547,5.5446,5.5238,5.4994,5.4548,5.4139,5.3646,5.3136,5.2576,5.1993,5.1505,5.1069,5.0883,5.0794,5.0566,5.0293,5.0067,4.9872,4.9668,4.9141,4.8457,4.8457,4.7906,4.6582,4.6489,4.6945,4.7111,4.6828,4.6546,4.6491,4.6304,4.6047,4.5978,4.5961,4.5958,4.5941,4.5867,4.5815,4.5786,4.5778,4.5769,4.5761,4.5761,4.5769,4.5394,4.551,5.3691,5.4297,5.5508,5.6504,5.7031,5.6777,5.6621,5.6621,5.6621,5.6621,5.6621,5.6621,5.6621,5.6621,5.6621,5.6621,5.6621,5.6621,5.6621,5.6621,5.6699,5.7129,5.7793,5.8242,5.789,5.8047,5.8515,5.8769,5.9374,6.0292,6.1111,6.1594,6.1691,6.1673,6.1691,6.1709,6.1709,6.1709,6.1718,6.1679,6.168,6.1266,6.0475,6.0365,6.0134,6.0063,6.0117,6.0273,6.0517,6.0634,6.0654,5.9899,5.8642,5.7385,5.6487,5.6274,5.6276,5.6393,5.621,5.6231,5.6242,5.6078,5.6023,5.6076,5.6635,5.6553,5.6182,5.6112,5.5898,5.5775,5.5812,5.5673,5.5347,5.495,5.4699,5.4348,5.386,5.3367,5.2733,5.2121,5.1786,5.1585,5.1408,5.1064,5.0859,5.084,5.0723,5.0644,5.0098,4.957,4.9609,4.9386,4.8088,4.7453,4.7841,4.7907,4.7693,4.742,4.7206,4.6691,4.638,4.6197,4.6099,4.6165,4.6148,4.5993,4.595,4.5898,4.5815,4.5793,4.5786,4.5793,4.5819,4.5833,4.5812,5.2598,5.3066,5.4648,5.6211,5.75,5.6933,5.6621,5.6621,5.6621,5.6621,5.6621,5.6621,5.6621,5.6621,5.6621,5.6621,5.6621,5.6621,5.6621,5.6621,5.6621,5.707,5.7129,5.7031,5.7226,5.7441,5.7812,5.8535,5.9237,6.0019,6.0683,6.144,6.1617,6.1598,6.1673,6.1711,6.1712,6.1713,6.1678,6.1582,6.1598,6.1662,6.0934,6.0323,6.0019,6.0399,6.0389,6.0342,6.0608,6.0478,6.0403,5.9716,5.8855,5.7811,5.7037,5.6603,5.6525,5.642,5.6304,5.671,5.649,5.6285,5.6276,5.6659,5.7268,5.7313,5.6941,5.6754,5.6536,5.6264,5.6304,5.6078,5.574,5.5522,5.5309,5.5039,5.459,5.4141,5.3535,5.2851,5.2461,5.2246,5.1836,5.1504,5.1406,5.1426,5.1406,5.1406,5.1211,5.0703,5.043,5.0351,4.9736,4.9302,4.916,4.8613,4.8418,4.8474,4.8181,4.7362,4.6846,4.7069,4.6974,4.6476,4.641,4.6368,4.6132,4.6008,4.5933,4.5906,4.5885,4.5914,4.591,4.591,4.588,5.1894,5.3848,5.4863,5.5937,5.6758,5.666,5.6621,5.6601,5.6601,5.6621,5.6562,5.6601,5.6621,5.6601,5.6621,5.6621,5.6621,5.6621,5.6621,5.6621,5.6621,5.7031,5.7285,5.7129,5.7539,5.7695,5.7851,5.8379,5.9219,5.955,6.0234,6.1581,6.0877,6.1034,6.1679,6.1698,6.1697,6.1697,6.16,6.1484,6.1068,6.1297,6.195,6.166,6.1449,6.1729,6.1732,6.1259,6.1086,6.0809,6.0393,5.9919,5.9184,5.8255,5.7404,5.697,5.6874,5.6457,5.6476,5.7037,5.6923,5.6463,5.6721,5.763,5.8098,5.8388,5.8184,5.8221,5.7886,5.7303,5.7117,5.6611,5.6231,5.6236,5.6108,5.5723,5.5293,5.4922,5.4473,5.3652,5.2949,5.25,5.1914,5.168,5.1562,5.1582,5.1601,5.1582,5.1641,5.1426,5.1269,5.1191,5.1094,5.1055,5.084,4.9512,4.9121,4.9258,4.9182,4.8388,4.8078,4.8389,4.8152,4.7215,4.6947,4.6933,4.6651,4.6255,4.6193,4.6158,4.6067,4.6041,4.6031,4.5988,4.5956]}]]